<?xml version="1.0" encoding="UTF-8" standalone="no" ?>
<gpx xmlns="http://www.topografix.com/GPX/1/1" xmlns:xsi="http://www.w3.org/2001/XMLSchema-instance" xsi:schemaLocation="http://www.topografix.com/GPX/1/1 http://www.topografix.com/GPX/1/1/gpx.xsd" version="1.1" creator="VisuGPX - https://www.visugpx.com">
  <metadata>
    <name>Autour de St Croix de Quintillargues</name>
    <desc><![CDATA[Randonnée # 20, saison 2025 / 206 des Pousse-cailloux (Lunel)
D'énormes prises de vues du Pic St Loup sur ce parcours avec de nombreuses charbonnières, secteurs empierrés, le lac de Cécélès (son pourtour est actuellement inaccessible)  ]]></desc>
  </metadata>
  <wpt lat="43.77375" lon="3.90757">
    <ele>162</ele>
    <name><![CDATA[Point de passage 1]]></name>
    <type><![CDATA[GENERIC]]></type>
  </wpt>
  <wpt lat="43.77378" lon="3.90746">
    <ele>162</ele>
    <name><![CDATA[Point de passage 2]]></name>
    <type><![CDATA[GENERIC]]></type>
  </wpt>
  <trk>
    <name><![CDATA[Randonnée du 27/03/2026 à 08:48]]></name>
    <trkseg>
      <trkpt lat="43.77375" lon="3.90757">
        <ele>162</ele>
        <time>2026-03-27T07:48:36.000Z</time>
      </trkpt>
      <trkpt lat="43.77374" lon="3.90757">
        <ele>162</ele>
        <time>2026-03-27T07:48:38.000Z</time>
      </trkpt>
      <trkpt lat="43.77366" lon="3.90759">
        <ele>162</ele>
        <time>2026-03-27T07:51:20.000Z</time>
      </trkpt>
      <trkpt lat="43.77357" lon="3.90764">
        <ele>162</ele>
        <time>2026-03-27T07:51:31.000Z</time>
      </trkpt>
      <trkpt lat="43.77349" lon="3.90767">
        <ele>162</ele>
        <time>2026-03-27T07:51:43.000Z</time>
      </trkpt>
      <trkpt lat="43.77347" lon="3.90781">
        <ele>162</ele>
        <time>2026-03-27T07:52:02.000Z</time>
      </trkpt>
      <trkpt lat="43.77346" lon="3.90794">
        <ele>162</ele>
        <time>2026-03-27T07:52:11.000Z</time>
      </trkpt>
      <trkpt lat="43.77347" lon="3.90806">
        <ele>162</ele>
        <time>2026-03-27T07:52:23.000Z</time>
      </trkpt>
      <trkpt lat="43.77349" lon="3.90819">
        <ele>162</ele>
        <time>2026-03-27T07:52:33.000Z</time>
      </trkpt>
      <trkpt lat="43.7735" lon="3.90832">
        <ele>162</ele>
        <time>2026-03-27T07:52:42.000Z</time>
      </trkpt>
      <trkpt lat="43.77353" lon="3.90843">
        <ele>163</ele>
        <time>2026-03-27T07:52:52.000Z</time>
      </trkpt>
      <trkpt lat="43.77357" lon="3.90854">
        <ele>163</ele>
        <time>2026-03-27T07:53:43.000Z</time>
      </trkpt>
      <trkpt lat="43.77355" lon="3.90867">
        <ele>163</ele>
        <time>2026-03-27T07:54:16.000Z</time>
      </trkpt>
      <trkpt lat="43.77353" lon="3.90879">
        <ele>163</ele>
        <time>2026-03-27T07:54:31.000Z</time>
      </trkpt>
      <trkpt lat="43.77358" lon="3.90888">
        <ele>163</ele>
        <time>2026-03-27T07:54:43.000Z</time>
      </trkpt>
      <trkpt lat="43.77361" lon="3.90899">
        <ele>163</ele>
        <time>2026-03-27T07:54:52.000Z</time>
      </trkpt>
      <trkpt lat="43.77354" lon="3.90907">
        <ele>163</ele>
        <time>2026-03-27T07:55:11.000Z</time>
      </trkpt>
      <trkpt lat="43.77345" lon="3.90912">
        <ele>163</ele>
        <time>2026-03-27T07:55:20.000Z</time>
      </trkpt>
      <trkpt lat="43.77336" lon="3.90916">
        <ele>163</ele>
        <time>2026-03-27T07:55:30.000Z</time>
      </trkpt>
      <trkpt lat="43.77329" lon="3.90924">
        <ele>164</ele>
        <time>2026-03-27T07:55:39.000Z</time>
      </trkpt>
      <trkpt lat="43.7732" lon="3.90928">
        <ele>164</ele>
        <time>2026-03-27T07:55:51.000Z</time>
      </trkpt>
      <trkpt lat="43.77312" lon="3.90931">
        <ele>165</ele>
        <time>2026-03-27T07:55:58.000Z</time>
      </trkpt>
      <trkpt lat="43.77305" lon="3.90939">
        <ele>165</ele>
        <time>2026-03-27T07:56:06.000Z</time>
      </trkpt>
      <trkpt lat="43.77296" lon="3.90945">
        <ele>165</ele>
        <time>2026-03-27T07:56:19.000Z</time>
      </trkpt>
      <trkpt lat="43.77289" lon="3.90955">
        <ele>165</ele>
        <time>2026-03-27T07:56:30.000Z</time>
      </trkpt>
      <trkpt lat="43.77286" lon="3.90967">
        <ele>165</ele>
        <time>2026-03-27T07:56:36.000Z</time>
      </trkpt>
      <trkpt lat="43.77283" lon="3.90979">
        <ele>166</ele>
        <time>2026-03-27T07:56:46.000Z</time>
      </trkpt>
      <trkpt lat="43.77279" lon="3.90991">
        <ele>166</ele>
        <time>2026-03-27T07:56:57.000Z</time>
      </trkpt>
      <trkpt lat="43.77275" lon="3.91002">
        <ele>166</ele>
        <time>2026-03-27T07:57:07.000Z</time>
      </trkpt>
      <trkpt lat="43.77272" lon="3.91014">
        <ele>167</ele>
        <time>2026-03-27T07:57:16.000Z</time>
      </trkpt>
      <trkpt lat="43.77269" lon="3.91026">
        <ele>167</ele>
        <time>2026-03-27T07:57:25.000Z</time>
      </trkpt>
      <trkpt lat="43.77261" lon="3.91029">
        <ele>167</ele>
        <time>2026-03-27T07:57:39.000Z</time>
      </trkpt>
      <trkpt lat="43.77252" lon="3.91026">
        <ele>167</ele>
        <time>2026-03-27T07:57:49.000Z</time>
      </trkpt>
      <trkpt lat="43.77243" lon="3.9102">
        <ele>168</ele>
        <time>2026-03-27T07:57:59.000Z</time>
      </trkpt>
      <trkpt lat="43.77234" lon="3.91015">
        <ele>168</ele>
        <time>2026-03-27T07:58:08.000Z</time>
      </trkpt>
      <trkpt lat="43.77225" lon="3.9101">
        <ele>168</ele>
        <time>2026-03-27T07:58:15.000Z</time>
      </trkpt>
      <trkpt lat="43.77216" lon="3.91004">
        <ele>168</ele>
        <time>2026-03-27T07:58:24.000Z</time>
      </trkpt>
      <trkpt lat="43.77208" lon="3.90998">
        <ele>168</ele>
        <time>2026-03-27T07:58:37.000Z</time>
      </trkpt>
      <trkpt lat="43.77199" lon="3.90991">
        <ele>168</ele>
        <time>2026-03-27T07:58:47.000Z</time>
      </trkpt>
      <trkpt lat="43.7719" lon="3.90986">
        <ele>168</ele>
        <time>2026-03-27T07:58:54.000Z</time>
      </trkpt>
      <trkpt lat="43.77181" lon="3.90981">
        <ele>168</ele>
        <time>2026-03-27T07:59:08.000Z</time>
      </trkpt>
      <trkpt lat="43.7717" lon="3.90978">
        <ele>168</ele>
        <time>2026-03-27T07:59:15.000Z</time>
      </trkpt>
      <trkpt lat="43.77163" lon="3.90968">
        <ele>168</ele>
        <time>2026-03-27T07:59:23.000Z</time>
      </trkpt>
      <trkpt lat="43.77155" lon="3.90963">
        <ele>168</ele>
        <time>2026-03-27T07:59:31.000Z</time>
      </trkpt>
      <trkpt lat="43.77146" lon="3.9097">
        <ele>168</ele>
        <time>2026-03-27T07:59:43.000Z</time>
      </trkpt>
      <trkpt lat="43.7714" lon="3.90979">
        <ele>168</ele>
        <time>2026-03-27T07:59:53.000Z</time>
      </trkpt>
      <trkpt lat="43.77135" lon="3.90991">
        <ele>168</ele>
        <time>2026-03-27T08:00:04.000Z</time>
      </trkpt>
      <trkpt lat="43.77127" lon="3.90998">
        <ele>169</ele>
        <time>2026-03-27T08:00:13.000Z</time>
      </trkpt>
      <trkpt lat="43.7712" lon="3.91003">
        <ele>169</ele>
        <time>2026-03-27T08:00:27.000Z</time>
      </trkpt>
      <trkpt lat="43.77112" lon="3.91009">
        <ele>169</ele>
        <time>2026-03-27T08:00:33.000Z</time>
      </trkpt>
      <trkpt lat="43.77102" lon="3.91015">
        <ele>169</ele>
        <time>2026-03-27T08:00:39.000Z</time>
      </trkpt>
      <trkpt lat="43.77094" lon="3.91019">
        <ele>169</ele>
        <time>2026-03-27T08:00:45.000Z</time>
      </trkpt>
      <trkpt lat="43.77086" lon="3.91026">
        <ele>169</ele>
        <time>2026-03-27T08:00:52.000Z</time>
      </trkpt>
      <trkpt lat="43.77079" lon="3.91035">
        <ele>169</ele>
        <time>2026-03-27T08:01:01.000Z</time>
      </trkpt>
      <trkpt lat="43.77072" lon="3.91044">
        <ele>169</ele>
        <time>2026-03-27T08:01:09.000Z</time>
      </trkpt>
      <trkpt lat="43.77065" lon="3.91052">
        <ele>169</ele>
        <time>2026-03-27T08:01:17.000Z</time>
      </trkpt>
      <trkpt lat="43.77056" lon="3.9106">
        <ele>169</ele>
        <time>2026-03-27T08:01:29.000Z</time>
      </trkpt>
      <trkpt lat="43.77049" lon="3.91069">
        <ele>169</ele>
        <time>2026-03-27T08:01:37.000Z</time>
      </trkpt>
      <trkpt lat="43.77042" lon="3.91077">
        <ele>169</ele>
        <time>2026-03-27T08:01:45.000Z</time>
      </trkpt>
      <trkpt lat="43.77034" lon="3.91085">
        <ele>169</ele>
        <time>2026-03-27T08:01:55.000Z</time>
      </trkpt>
      <trkpt lat="43.77025" lon="3.91093">
        <ele>170</ele>
        <time>2026-03-27T08:02:03.000Z</time>
      </trkpt>
      <trkpt lat="43.77017" lon="3.911">
        <ele>170</ele>
        <time>2026-03-27T08:02:11.000Z</time>
      </trkpt>
      <trkpt lat="43.77009" lon="3.91108">
        <ele>171</ele>
        <time>2026-03-27T08:02:22.000Z</time>
      </trkpt>
      <trkpt lat="43.77002" lon="3.91116">
        <ele>171</ele>
        <time>2026-03-27T08:02:55.000Z</time>
      </trkpt>
      <trkpt lat="43.76996" lon="3.91124">
        <ele>171</ele>
        <time>2026-03-27T08:03:06.000Z</time>
      </trkpt>
      <trkpt lat="43.76988" lon="3.91131">
        <ele>171</ele>
        <time>2026-03-27T08:03:14.000Z</time>
      </trkpt>
      <trkpt lat="43.76981" lon="3.91141">
        <ele>172</ele>
        <time>2026-03-27T08:03:23.000Z</time>
      </trkpt>
      <trkpt lat="43.76974" lon="3.91148">
        <ele>172</ele>
        <time>2026-03-27T08:03:32.000Z</time>
      </trkpt>
      <trkpt lat="43.76967" lon="3.91156">
        <ele>171</ele>
        <time>2026-03-27T08:03:42.000Z</time>
      </trkpt>
      <trkpt lat="43.7696" lon="3.91165">
        <ele>171</ele>
        <time>2026-03-27T08:04:11.000Z</time>
      </trkpt>
      <trkpt lat="43.76951" lon="3.91171">
        <ele>170</ele>
        <time>2026-03-27T08:04:16.000Z</time>
      </trkpt>
      <trkpt lat="43.76943" lon="3.91177">
        <ele>170</ele>
        <time>2026-03-27T08:04:22.000Z</time>
      </trkpt>
      <trkpt lat="43.76935" lon="3.91185">
        <ele>169</ele>
        <time>2026-03-27T08:04:31.000Z</time>
      </trkpt>
      <trkpt lat="43.76929" lon="3.91194">
        <ele>169</ele>
        <time>2026-03-27T08:04:38.000Z</time>
      </trkpt>
      <trkpt lat="43.76922" lon="3.91201">
        <ele>169</ele>
        <time>2026-03-27T08:04:46.000Z</time>
      </trkpt>
      <trkpt lat="43.76913" lon="3.91207">
        <ele>170</ele>
        <time>2026-03-27T08:04:54.000Z</time>
      </trkpt>
      <trkpt lat="43.76904" lon="3.9121">
        <ele>170</ele>
        <time>2026-03-27T08:05:02.000Z</time>
      </trkpt>
      <trkpt lat="43.76895" lon="3.91215">
        <ele>170</ele>
        <time>2026-03-27T08:05:12.000Z</time>
      </trkpt>
      <trkpt lat="43.76888" lon="3.91222">
        <ele>170</ele>
        <time>2026-03-27T08:05:20.000Z</time>
      </trkpt>
      <trkpt lat="43.76882" lon="3.91232">
        <ele>170</ele>
        <time>2026-03-27T08:05:28.000Z</time>
      </trkpt>
      <trkpt lat="43.7688" lon="3.91243">
        <ele>170</ele>
        <time>2026-03-27T08:06:31.000Z</time>
      </trkpt>
      <trkpt lat="43.76871" lon="3.91253">
        <ele>171</ele>
        <time>2026-03-27T08:06:38.000Z</time>
      </trkpt>
      <trkpt lat="43.76862" lon="3.91262">
        <ele>171</ele>
        <time>2026-03-27T08:06:46.000Z</time>
      </trkpt>
      <trkpt lat="43.76853" lon="3.9127">
        <ele>172</ele>
        <time>2026-03-27T08:06:54.000Z</time>
      </trkpt>
      <trkpt lat="43.76845" lon="3.91279">
        <ele>173</ele>
        <time>2026-03-27T08:07:03.000Z</time>
      </trkpt>
      <trkpt lat="43.76838" lon="3.91289">
        <ele>173</ele>
        <time>2026-03-27T08:07:10.000Z</time>
      </trkpt>
      <trkpt lat="43.76834" lon="3.91299">
        <ele>174</ele>
        <time>2026-03-27T08:07:33.000Z</time>
      </trkpt>
      <trkpt lat="43.76826" lon="3.91305">
        <ele>175</ele>
        <time>2026-03-27T08:07:40.000Z</time>
      </trkpt>
      <trkpt lat="43.76818" lon="3.91311">
        <ele>176</ele>
        <time>2026-03-27T08:07:51.000Z</time>
      </trkpt>
      <trkpt lat="43.7681" lon="3.91319">
        <ele>177</ele>
        <time>2026-03-27T08:07:59.000Z</time>
      </trkpt>
      <trkpt lat="43.76806" lon="3.91327">
        <ele>177</ele>
        <time>2026-03-27T08:08:09.000Z</time>
      </trkpt>
      <trkpt lat="43.76812" lon="3.91332">
        <ele>177</ele>
        <time>2026-03-27T08:08:27.000Z</time>
      </trkpt>
      <trkpt lat="43.76818" lon="3.91342">
        <ele>176</ele>
        <time>2026-03-27T08:08:34.000Z</time>
      </trkpt>
      <trkpt lat="43.76823" lon="3.91353">
        <ele>176</ele>
        <time>2026-03-27T08:08:42.000Z</time>
      </trkpt>
      <trkpt lat="43.76829" lon="3.91363">
        <ele>175</ele>
        <time>2026-03-27T08:08:50.000Z</time>
      </trkpt>
      <trkpt lat="43.76833" lon="3.91375">
        <ele>174</ele>
        <time>2026-03-27T08:09:17.000Z</time>
      </trkpt>
      <trkpt lat="43.76839" lon="3.91386">
        <ele>174</ele>
        <time>2026-03-27T08:09:27.000Z</time>
      </trkpt>
      <trkpt lat="43.76844" lon="3.91397">
        <ele>174</ele>
        <time>2026-03-27T08:09:35.000Z</time>
      </trkpt>
      <trkpt lat="43.76849" lon="3.91409">
        <ele>174</ele>
        <time>2026-03-27T08:09:45.000Z</time>
      </trkpt>
      <trkpt lat="43.76856" lon="3.91419">
        <ele>174</ele>
        <time>2026-03-27T08:09:52.000Z</time>
      </trkpt>
      <trkpt lat="43.76865" lon="3.91425">
        <ele>173</ele>
        <time>2026-03-27T08:10:02.000Z</time>
      </trkpt>
      <trkpt lat="43.76875" lon="3.91429">
        <ele>173</ele>
        <time>2026-03-27T08:10:11.000Z</time>
      </trkpt>
      <trkpt lat="43.76885" lon="3.91428">
        <ele>173</ele>
        <time>2026-03-27T08:10:20.000Z</time>
      </trkpt>
      <trkpt lat="43.76895" lon="3.91426">
        <ele>173</ele>
        <time>2026-03-27T08:10:31.000Z</time>
      </trkpt>
      <trkpt lat="43.76902" lon="3.9142">
        <ele>173</ele>
        <time>2026-03-27T08:10:38.000Z</time>
      </trkpt>
      <trkpt lat="43.7691" lon="3.91415">
        <ele>173</ele>
        <time>2026-03-27T08:10:45.000Z</time>
      </trkpt>
      <trkpt lat="43.76919" lon="3.9141">
        <ele>173</ele>
        <time>2026-03-27T08:10:53.000Z</time>
      </trkpt>
      <trkpt lat="43.76928" lon="3.91402">
        <ele>173</ele>
        <time>2026-03-27T08:11:01.000Z</time>
      </trkpt>
      <trkpt lat="43.76937" lon="3.91397">
        <ele>173</ele>
        <time>2026-03-27T08:11:10.000Z</time>
      </trkpt>
      <trkpt lat="43.76946" lon="3.91392">
        <ele>173</ele>
        <time>2026-03-27T08:11:16.000Z</time>
      </trkpt>
      <trkpt lat="43.76955" lon="3.91384">
        <ele>173</ele>
        <time>2026-03-27T08:11:29.000Z</time>
      </trkpt>
      <trkpt lat="43.76963" lon="3.91376">
        <ele>173</ele>
        <time>2026-03-27T08:11:34.000Z</time>
      </trkpt>
      <trkpt lat="43.76971" lon="3.9137">
        <ele>174</ele>
        <time>2026-03-27T08:11:43.000Z</time>
      </trkpt>
      <trkpt lat="43.7698" lon="3.91369">
        <ele>175</ele>
        <time>2026-03-27T08:11:52.000Z</time>
      </trkpt>
      <trkpt lat="43.76988" lon="3.91368">
        <ele>175</ele>
        <time>2026-03-27T08:12:01.000Z</time>
      </trkpt>
      <trkpt lat="43.76997" lon="3.91375">
        <ele>175</ele>
        <time>2026-03-27T08:12:12.000Z</time>
      </trkpt>
      <trkpt lat="43.77006" lon="3.9138">
        <ele>175</ele>
        <time>2026-03-27T08:12:23.000Z</time>
      </trkpt>
      <trkpt lat="43.77016" lon="3.91384">
        <ele>175</ele>
        <time>2026-03-27T08:12:30.000Z</time>
      </trkpt>
      <trkpt lat="43.77027" lon="3.91384">
        <ele>175</ele>
        <time>2026-03-27T08:12:38.000Z</time>
      </trkpt>
      <trkpt lat="43.77037" lon="3.91384">
        <ele>174</ele>
        <time>2026-03-27T08:12:47.000Z</time>
      </trkpt>
      <trkpt lat="43.77047" lon="3.91383">
        <ele>173</ele>
        <time>2026-03-27T08:12:53.000Z</time>
      </trkpt>
      <trkpt lat="43.77056" lon="3.91384">
        <ele>173</ele>
        <time>2026-03-27T08:12:58.000Z</time>
      </trkpt>
      <trkpt lat="43.77067" lon="3.91384">
        <ele>172</ele>
        <time>2026-03-27T08:13:09.000Z</time>
      </trkpt>
      <trkpt lat="43.77076" lon="3.91382">
        <ele>171</ele>
        <time>2026-03-27T08:13:17.000Z</time>
      </trkpt>
      <trkpt lat="43.77085" lon="3.91379">
        <ele>170</ele>
        <time>2026-03-27T08:13:25.000Z</time>
      </trkpt>
      <trkpt lat="43.77094" lon="3.91378">
        <ele>169</ele>
        <time>2026-03-27T08:13:33.000Z</time>
      </trkpt>
      <trkpt lat="43.771" lon="3.91386">
        <ele>169</ele>
        <time>2026-03-27T08:14:05.000Z</time>
      </trkpt>
      <trkpt lat="43.77099" lon="3.91399">
        <ele>170</ele>
        <time>2026-03-27T08:15:11.000Z</time>
      </trkpt>
      <trkpt lat="43.77098" lon="3.91411">
        <ele>170</ele>
        <time>2026-03-27T08:15:19.000Z</time>
      </trkpt>
      <trkpt lat="43.77095" lon="3.91426">
        <ele>170</ele>
        <time>2026-03-27T08:15:30.000Z</time>
      </trkpt>
      <trkpt lat="43.77093" lon="3.9144">
        <ele>170</ele>
        <time>2026-03-27T08:15:41.000Z</time>
      </trkpt>
      <trkpt lat="43.77088" lon="3.91453">
        <ele>171</ele>
        <time>2026-03-27T08:15:50.000Z</time>
      </trkpt>
      <trkpt lat="43.77085" lon="3.91467">
        <ele>171</ele>
        <time>2026-03-27T08:16:01.000Z</time>
      </trkpt>
      <trkpt lat="43.77085" lon="3.91482">
        <ele>171</ele>
        <time>2026-03-27T08:16:11.000Z</time>
      </trkpt>
      <trkpt lat="43.77089" lon="3.91493">
        <ele>172</ele>
        <time>2026-03-27T08:16:17.000Z</time>
      </trkpt>
      <trkpt lat="43.77095" lon="3.91503">
        <ele>172</ele>
        <time>2026-03-27T08:16:25.000Z</time>
      </trkpt>
      <trkpt lat="43.77097" lon="3.91515">
        <ele>172</ele>
        <time>2026-03-27T08:16:37.000Z</time>
      </trkpt>
      <trkpt lat="43.77096" lon="3.91529">
        <ele>173</ele>
        <time>2026-03-27T08:16:44.000Z</time>
      </trkpt>
      <trkpt lat="43.77094" lon="3.91543">
        <ele>174</ele>
        <time>2026-03-27T08:16:54.000Z</time>
      </trkpt>
      <trkpt lat="43.77091" lon="3.91556">
        <ele>175</ele>
        <time>2026-03-27T08:17:03.000Z</time>
      </trkpt>
      <trkpt lat="43.77088" lon="3.91569">
        <ele>176</ele>
        <time>2026-03-27T08:17:11.000Z</time>
      </trkpt>
      <trkpt lat="43.77087" lon="3.91583">
        <ele>177</ele>
        <time>2026-03-27T08:17:23.000Z</time>
      </trkpt>
      <trkpt lat="43.77086" lon="3.91598">
        <ele>177</ele>
        <time>2026-03-27T08:17:32.000Z</time>
      </trkpt>
      <trkpt lat="43.77083" lon="3.91612">
        <ele>177</ele>
        <time>2026-03-27T08:17:43.000Z</time>
      </trkpt>
      <trkpt lat="43.77083" lon="3.91625">
        <ele>177</ele>
        <time>2026-03-27T08:17:50.000Z</time>
      </trkpt>
      <trkpt lat="43.77086" lon="3.91637">
        <ele>176</ele>
        <time>2026-03-27T08:18:03.000Z</time>
      </trkpt>
      <trkpt lat="43.77088" lon="3.91651">
        <ele>176</ele>
        <time>2026-03-27T08:18:41.000Z</time>
      </trkpt>
      <trkpt lat="43.77088" lon="3.91663">
        <ele>177</ele>
        <time>2026-03-27T08:19:35.000Z</time>
      </trkpt>
      <trkpt lat="43.77089" lon="3.91677">
        <ele>177</ele>
        <time>2026-03-27T08:19:43.000Z</time>
      </trkpt>
      <trkpt lat="43.77089" lon="3.91691">
        <ele>178</ele>
        <time>2026-03-27T08:19:51.000Z</time>
      </trkpt>
      <trkpt lat="43.77088" lon="3.91705">
        <ele>179</ele>
        <time>2026-03-27T08:20:01.000Z</time>
      </trkpt>
      <trkpt lat="43.7709" lon="3.91718">
        <ele>181</ele>
        <time>2026-03-27T08:20:08.000Z</time>
      </trkpt>
      <trkpt lat="43.77096" lon="3.9173">
        <ele>182</ele>
        <time>2026-03-27T08:20:19.000Z</time>
      </trkpt>
      <trkpt lat="43.77103" lon="3.91739">
        <ele>183</ele>
        <time>2026-03-27T08:20:29.000Z</time>
      </trkpt>
      <trkpt lat="43.7711" lon="3.91747">
        <ele>184</ele>
        <time>2026-03-27T08:20:36.000Z</time>
      </trkpt>
      <trkpt lat="43.77118" lon="3.91756">
        <ele>185</ele>
        <time>2026-03-27T08:20:47.000Z</time>
      </trkpt>
      <trkpt lat="43.77124" lon="3.91766">
        <ele>186</ele>
        <time>2026-03-27T08:20:56.000Z</time>
      </trkpt>
      <trkpt lat="43.77131" lon="3.91777">
        <ele>187</ele>
        <time>2026-03-27T08:21:06.000Z</time>
      </trkpt>
      <trkpt lat="43.77136" lon="3.91787">
        <ele>188</ele>
        <time>2026-03-27T08:21:15.000Z</time>
      </trkpt>
      <trkpt lat="43.77141" lon="3.91798">
        <ele>189</ele>
        <time>2026-03-27T08:21:25.000Z</time>
      </trkpt>
      <trkpt lat="43.77148" lon="3.91809">
        <ele>189</ele>
        <time>2026-03-27T08:21:35.000Z</time>
      </trkpt>
      <trkpt lat="43.77154" lon="3.91818">
        <ele>190</ele>
        <time>2026-03-27T08:21:44.000Z</time>
      </trkpt>
      <trkpt lat="43.77161" lon="3.91829">
        <ele>191</ele>
        <time>2026-03-27T08:22:08.000Z</time>
      </trkpt>
      <trkpt lat="43.77168" lon="3.91839">
        <ele>192</ele>
        <time>2026-03-27T08:22:16.000Z</time>
      </trkpt>
      <trkpt lat="43.77173" lon="3.91851">
        <ele>193</ele>
        <time>2026-03-27T08:22:23.000Z</time>
      </trkpt>
      <trkpt lat="43.77177" lon="3.91863">
        <ele>194</ele>
        <time>2026-03-27T08:22:34.000Z</time>
      </trkpt>
      <trkpt lat="43.77179" lon="3.91876">
        <ele>195</ele>
        <time>2026-03-27T08:22:43.000Z</time>
      </trkpt>
      <trkpt lat="43.77183" lon="3.91888">
        <ele>197</ele>
        <time>2026-03-27T08:22:56.000Z</time>
      </trkpt>
      <trkpt lat="43.77184" lon="3.91901">
        <ele>198</ele>
        <time>2026-03-27T08:23:04.000Z</time>
      </trkpt>
      <trkpt lat="43.77186" lon="3.91913">
        <ele>199</ele>
        <time>2026-03-27T08:23:43.000Z</time>
      </trkpt>
      <trkpt lat="43.77184" lon="3.91926">
        <ele>201</ele>
        <time>2026-03-27T08:24:48.000Z</time>
      </trkpt>
      <trkpt lat="43.77183" lon="3.91938">
        <ele>202</ele>
        <time>2026-03-27T08:25:06.000Z</time>
      </trkpt>
      <trkpt lat="43.77179" lon="3.91948">
        <ele>203</ele>
        <time>2026-03-27T08:25:36.000Z</time>
      </trkpt>
      <trkpt lat="43.77173" lon="3.91957">
        <ele>205</ele>
        <time>2026-03-27T08:25:52.000Z</time>
      </trkpt>
      <trkpt lat="43.77165" lon="3.91964">
        <ele>206</ele>
        <time>2026-03-27T08:26:02.000Z</time>
      </trkpt>
      <trkpt lat="43.77156" lon="3.9197">
        <ele>208</ele>
        <time>2026-03-27T08:26:14.000Z</time>
      </trkpt>
      <trkpt lat="43.77148" lon="3.91975">
        <ele>209</ele>
        <time>2026-03-27T08:26:25.000Z</time>
      </trkpt>
      <trkpt lat="43.77142" lon="3.91984">
        <ele>210</ele>
        <time>2026-03-27T08:26:34.000Z</time>
      </trkpt>
      <trkpt lat="43.77134" lon="3.91993">
        <ele>211</ele>
        <time>2026-03-27T08:26:43.000Z</time>
      </trkpt>
      <trkpt lat="43.7713" lon="3.92005">
        <ele>211</ele>
        <time>2026-03-27T08:26:51.000Z</time>
      </trkpt>
      <trkpt lat="43.77131" lon="3.92018">
        <ele>212</ele>
        <time>2026-03-27T08:27:00.000Z</time>
      </trkpt>
      <trkpt lat="43.77132" lon="3.92031">
        <ele>212</ele>
        <time>2026-03-27T08:27:10.000Z</time>
      </trkpt>
      <trkpt lat="43.77134" lon="3.92044">
        <ele>213</ele>
        <time>2026-03-27T08:27:17.000Z</time>
      </trkpt>
      <trkpt lat="43.77136" lon="3.92059">
        <ele>213</ele>
        <time>2026-03-27T08:27:27.000Z</time>
      </trkpt>
      <trkpt lat="43.77137" lon="3.92073">
        <ele>214</ele>
        <time>2026-03-27T08:27:38.000Z</time>
      </trkpt>
      <trkpt lat="43.77138" lon="3.92087">
        <ele>214</ele>
        <time>2026-03-27T08:27:50.000Z</time>
      </trkpt>
      <trkpt lat="43.77138" lon="3.92101">
        <ele>215</ele>
        <time>2026-03-27T08:27:59.000Z</time>
      </trkpt>
      <trkpt lat="43.77138" lon="3.92115">
        <ele>216</ele>
        <time>2026-03-27T08:28:07.000Z</time>
      </trkpt>
      <trkpt lat="43.77139" lon="3.92128">
        <ele>218</ele>
        <time>2026-03-27T08:28:18.000Z</time>
      </trkpt>
      <trkpt lat="43.77141" lon="3.92141">
        <ele>220</ele>
        <time>2026-03-27T08:28:27.000Z</time>
      </trkpt>
      <trkpt lat="43.77144" lon="3.92152">
        <ele>222</ele>
        <time>2026-03-27T08:28:36.000Z</time>
      </trkpt>
      <trkpt lat="43.77146" lon="3.92165">
        <ele>223</ele>
        <time>2026-03-27T08:28:43.000Z</time>
      </trkpt>
      <trkpt lat="43.77149" lon="3.92177">
        <ele>225</ele>
        <time>2026-03-27T08:28:54.000Z</time>
      </trkpt>
      <trkpt lat="43.77153" lon="3.92187">
        <ele>226</ele>
        <time>2026-03-27T08:29:13.000Z</time>
      </trkpt>
      <trkpt lat="43.77152" lon="3.92198">
        <ele>227</ele>
        <time>2026-03-27T08:29:23.000Z</time>
      </trkpt>
      <trkpt lat="43.77153" lon="3.9221">
        <ele>229</ele>
        <time>2026-03-27T08:29:29.000Z</time>
      </trkpt>
      <trkpt lat="43.77152" lon="3.92224">
        <ele>230</ele>
        <time>2026-03-27T08:29:40.000Z</time>
      </trkpt>
      <trkpt lat="43.77149" lon="3.92236">
        <ele>232</ele>
        <time>2026-03-27T08:29:49.000Z</time>
      </trkpt>
      <trkpt lat="43.77151" lon="3.92249">
        <ele>234</ele>
        <time>2026-03-27T08:29:59.000Z</time>
      </trkpt>
      <trkpt lat="43.77152" lon="3.92263">
        <ele>236</ele>
        <time>2026-03-27T08:30:09.000Z</time>
      </trkpt>
      <trkpt lat="43.77156" lon="3.92275">
        <ele>239</ele>
        <time>2026-03-27T08:30:20.000Z</time>
      </trkpt>
      <trkpt lat="43.77164" lon="3.92283">
        <ele>241</ele>
        <time>2026-03-27T08:30:37.000Z</time>
      </trkpt>
      <trkpt lat="43.77171" lon="3.92293">
        <ele>242</ele>
        <time>2026-03-27T08:30:56.000Z</time>
      </trkpt>
      <trkpt lat="43.77174" lon="3.92308">
        <ele>244</ele>
        <time>2026-03-27T08:31:12.000Z</time>
      </trkpt>
      <trkpt lat="43.77176" lon="3.92322">
        <ele>245</ele>
        <time>2026-03-27T08:31:20.000Z</time>
      </trkpt>
      <trkpt lat="43.77179" lon="3.92334">
        <ele>247</ele>
        <time>2026-03-27T08:31:34.000Z</time>
      </trkpt>
      <trkpt lat="43.77181" lon="3.92346">
        <ele>248</ele>
        <time>2026-03-27T08:31:41.000Z</time>
      </trkpt>
      <trkpt lat="43.77183" lon="3.92359">
        <ele>250</ele>
        <time>2026-03-27T08:32:04.000Z</time>
      </trkpt>
      <trkpt lat="43.77184" lon="3.92372">
        <ele>252</ele>
        <time>2026-03-27T08:32:15.000Z</time>
      </trkpt>
      <trkpt lat="43.77185" lon="3.92384">
        <ele>254</ele>
        <time>2026-03-27T08:32:30.000Z</time>
      </trkpt>
      <trkpt lat="43.77186" lon="3.92398">
        <ele>255</ele>
        <time>2026-03-27T08:32:41.000Z</time>
      </trkpt>
      <trkpt lat="43.77186" lon="3.92411">
        <ele>257</ele>
        <time>2026-03-27T08:32:54.000Z</time>
      </trkpt>
      <trkpt lat="43.77186" lon="3.92424">
        <ele>259</ele>
        <time>2026-03-27T08:33:03.000Z</time>
      </trkpt>
      <trkpt lat="43.77186" lon="3.92436">
        <ele>260</ele>
        <time>2026-03-27T08:33:23.000Z</time>
      </trkpt>
      <trkpt lat="43.77188" lon="3.92448">
        <ele>261</ele>
        <time>2026-03-27T08:33:36.000Z</time>
      </trkpt>
      <trkpt lat="43.7719" lon="3.9246">
        <ele>263</ele>
        <time>2026-03-27T08:33:51.000Z</time>
      </trkpt>
      <trkpt lat="43.77191" lon="3.92474">
        <ele>265</ele>
        <time>2026-03-27T08:34:01.000Z</time>
      </trkpt>
      <trkpt lat="43.77191" lon="3.92488">
        <ele>267</ele>
        <time>2026-03-27T08:34:13.000Z</time>
      </trkpt>
      <trkpt lat="43.77191" lon="3.92501">
        <ele>269</ele>
        <time>2026-03-27T08:34:23.000Z</time>
      </trkpt>
      <trkpt lat="43.7719" lon="3.92514">
        <ele>271</ele>
        <time>2026-03-27T08:34:33.000Z</time>
      </trkpt>
      <trkpt lat="43.7719" lon="3.92527">
        <ele>273</ele>
        <time>2026-03-27T08:34:45.000Z</time>
      </trkpt>
      <trkpt lat="43.7719" lon="3.92538">
        <ele>274</ele>
        <time>2026-03-27T08:34:55.000Z</time>
      </trkpt>
      <trkpt lat="43.77181" lon="3.92535">
        <ele>275</ele>
        <time>2026-03-27T08:36:41.000Z</time>
      </trkpt>
      <trkpt lat="43.77172" lon="3.92529">
        <ele>276</ele>
        <time>2026-03-27T08:36:51.000Z</time>
      </trkpt>
      <trkpt lat="43.77165" lon="3.9252">
        <ele>278</ele>
        <time>2026-03-27T08:37:44.000Z</time>
      </trkpt>
      <trkpt lat="43.77157" lon="3.92514">
        <ele>280</ele>
        <time>2026-03-27T08:37:49.000Z</time>
      </trkpt>
      <trkpt lat="43.77149" lon="3.92509">
        <ele>282</ele>
        <time>2026-03-27T08:37:56.000Z</time>
      </trkpt>
      <trkpt lat="43.77142" lon="3.925">
        <ele>284</ele>
        <time>2026-03-27T08:38:10.000Z</time>
      </trkpt>
      <trkpt lat="43.77134" lon="3.92494">
        <ele>286</ele>
        <time>2026-03-27T08:38:40.000Z</time>
      </trkpt>
      <trkpt lat="43.77125" lon="3.9249">
        <ele>288</ele>
        <time>2026-03-27T08:39:09.000Z</time>
      </trkpt>
      <trkpt lat="43.77116" lon="3.92482">
        <ele>290</ele>
        <time>2026-03-27T08:39:18.000Z</time>
      </trkpt>
      <trkpt lat="43.77107" lon="3.92477">
        <ele>292</ele>
        <time>2026-03-27T08:39:25.000Z</time>
      </trkpt>
      <trkpt lat="43.77097" lon="3.92478">
        <ele>294</ele>
        <time>2026-03-27T08:39:35.000Z</time>
      </trkpt>
      <trkpt lat="43.77092" lon="3.92489">
        <ele>296</ele>
        <time>2026-03-27T08:39:58.000Z</time>
      </trkpt>
      <trkpt lat="43.77089" lon="3.925">
        <ele>298</ele>
        <time>2026-03-27T08:40:10.000Z</time>
      </trkpt>
      <trkpt lat="43.77083" lon="3.92509">
        <ele>299</ele>
        <time>2026-03-27T08:41:08.000Z</time>
      </trkpt>
      <trkpt lat="43.77075" lon="3.92512">
        <ele>301</ele>
        <time>2026-03-27T08:41:13.000Z</time>
      </trkpt>
      <trkpt lat="43.77066" lon="3.92517">
        <ele>302</ele>
        <time>2026-03-27T08:41:24.000Z</time>
      </trkpt>
      <trkpt lat="43.77061" lon="3.92526">
        <ele>305</ele>
        <time>2026-03-27T08:41:36.000Z</time>
      </trkpt>
      <trkpt lat="43.77058" lon="3.92538">
        <ele>306</ele>
        <time>2026-03-27T08:42:02.000Z</time>
      </trkpt>
      <trkpt lat="43.77052" lon="3.92547">
        <ele>307</ele>
        <time>2026-03-27T08:42:08.000Z</time>
      </trkpt>
      <trkpt lat="43.77044" lon="3.92553">
        <ele>308</ele>
        <time>2026-03-27T08:42:18.000Z</time>
      </trkpt>
      <trkpt lat="43.77035" lon="3.92559">
        <ele>308</ele>
        <time>2026-03-27T08:42:25.000Z</time>
      </trkpt>
      <trkpt lat="43.77028" lon="3.92567">
        <ele>309</ele>
        <time>2026-03-27T08:43:23.000Z</time>
      </trkpt>
      <trkpt lat="43.77019" lon="3.92572">
        <ele>311</ele>
        <time>2026-03-27T08:43:31.000Z</time>
      </trkpt>
      <trkpt lat="43.77011" lon="3.92575">
        <ele>312</ele>
        <time>2026-03-27T08:43:39.000Z</time>
      </trkpt>
      <trkpt lat="43.77002" lon="3.92575">
        <ele>312</ele>
        <time>2026-03-27T08:43:49.000Z</time>
      </trkpt>
      <trkpt lat="43.76992" lon="3.92573">
        <ele>312</ele>
        <time>2026-03-27T08:44:00.000Z</time>
      </trkpt>
      <trkpt lat="43.76983" lon="3.92569">
        <ele>313</ele>
        <time>2026-03-27T08:44:10.000Z</time>
      </trkpt>
      <trkpt lat="43.76976" lon="3.92562">
        <ele>313</ele>
        <time>2026-03-27T08:44:19.000Z</time>
      </trkpt>
      <trkpt lat="43.76969" lon="3.92553">
        <ele>313</ele>
        <time>2026-03-27T08:44:27.000Z</time>
      </trkpt>
      <trkpt lat="43.76963" lon="3.92543">
        <ele>313</ele>
        <time>2026-03-27T08:44:36.000Z</time>
      </trkpt>
      <trkpt lat="43.76956" lon="3.92534">
        <ele>312</ele>
        <time>2026-03-27T08:44:44.000Z</time>
      </trkpt>
      <trkpt lat="43.76949" lon="3.92524">
        <ele>312</ele>
        <time>2026-03-27T08:44:53.000Z</time>
      </trkpt>
      <trkpt lat="43.76941" lon="3.92516">
        <ele>311</ele>
        <time>2026-03-27T08:45:02.000Z</time>
      </trkpt>
      <trkpt lat="43.76932" lon="3.92509">
        <ele>311</ele>
        <time>2026-03-27T08:45:11.000Z</time>
      </trkpt>
      <trkpt lat="43.76923" lon="3.92501">
        <ele>310</ele>
        <time>2026-03-27T08:45:19.000Z</time>
      </trkpt>
      <trkpt lat="43.76915" lon="3.92494">
        <ele>310</ele>
        <time>2026-03-27T08:45:28.000Z</time>
      </trkpt>
      <trkpt lat="43.76906" lon="3.92487">
        <ele>311</ele>
        <time>2026-03-27T08:45:38.000Z</time>
      </trkpt>
      <trkpt lat="43.76898" lon="3.92481">
        <ele>311</ele>
        <time>2026-03-27T08:45:47.000Z</time>
      </trkpt>
      <trkpt lat="43.76889" lon="3.92475">
        <ele>312</ele>
        <time>2026-03-27T08:45:55.000Z</time>
      </trkpt>
      <trkpt lat="43.7688" lon="3.92471">
        <ele>313</ele>
        <time>2026-03-27T08:50:07.000Z</time>
      </trkpt>
      <trkpt lat="43.76874" lon="3.92461">
        <ele>315</ele>
        <time>2026-03-27T08:50:22.000Z</time>
      </trkpt>
      <trkpt lat="43.76867" lon="3.92453">
        <ele>316</ele>
        <time>2026-03-27T08:50:33.000Z</time>
      </trkpt>
      <trkpt lat="43.76859" lon="3.92445">
        <ele>317</ele>
        <time>2026-03-27T08:50:45.000Z</time>
      </trkpt>
      <trkpt lat="43.76852" lon="3.92439">
        <ele>318</ele>
        <time>2026-03-27T08:50:51.000Z</time>
      </trkpt>
      <trkpt lat="43.76845" lon="3.9243">
        <ele>319</ele>
        <time>2026-03-27T08:51:02.000Z</time>
      </trkpt>
      <trkpt lat="43.76837" lon="3.92421">
        <ele>319</ele>
        <time>2026-03-27T08:51:13.000Z</time>
      </trkpt>
      <trkpt lat="43.76826" lon="3.92418">
        <ele>320</ele>
        <time>2026-03-27T08:51:56.000Z</time>
      </trkpt>
      <trkpt lat="43.76819" lon="3.92411">
        <ele>321</ele>
        <time>2026-03-27T08:52:04.000Z</time>
      </trkpt>
      <trkpt lat="43.76811" lon="3.92405">
        <ele>321</ele>
        <time>2026-03-27T08:52:16.000Z</time>
      </trkpt>
      <trkpt lat="43.76804" lon="3.92398">
        <ele>321</ele>
        <time>2026-03-27T08:52:23.000Z</time>
      </trkpt>
      <trkpt lat="43.76796" lon="3.92392">
        <ele>321</ele>
        <time>2026-03-27T08:52:34.000Z</time>
      </trkpt>
      <trkpt lat="43.76787" lon="3.92387">
        <ele>320</ele>
        <time>2026-03-27T08:52:41.000Z</time>
      </trkpt>
      <trkpt lat="43.76779" lon="3.92381">
        <ele>320</ele>
        <time>2026-03-27T08:52:49.000Z</time>
      </trkpt>
      <trkpt lat="43.76774" lon="3.9237">
        <ele>319</ele>
        <time>2026-03-27T08:53:06.000Z</time>
      </trkpt>
      <trkpt lat="43.76769" lon="3.92358">
        <ele>318</ele>
        <time>2026-03-27T08:53:22.000Z</time>
      </trkpt>
      <trkpt lat="43.76764" lon="3.92348">
        <ele>317</ele>
        <time>2026-03-27T08:53:31.000Z</time>
      </trkpt>
      <trkpt lat="43.76754" lon="3.92344">
        <ele>316</ele>
        <time>2026-03-27T08:53:39.000Z</time>
      </trkpt>
      <trkpt lat="43.76747" lon="3.92336">
        <ele>315</ele>
        <time>2026-03-27T08:53:50.000Z</time>
      </trkpt>
      <trkpt lat="43.76741" lon="3.92326">
        <ele>314</ele>
        <time>2026-03-27T08:54:00.000Z</time>
      </trkpt>
      <trkpt lat="43.76738" lon="3.92313">
        <ele>314</ele>
        <time>2026-03-27T08:54:12.000Z</time>
      </trkpt>
      <trkpt lat="43.76734" lon="3.92302">
        <ele>313</ele>
        <time>2026-03-27T08:54:19.000Z</time>
      </trkpt>
      <trkpt lat="43.7673" lon="3.9229">
        <ele>313</ele>
        <time>2026-03-27T08:54:33.000Z</time>
      </trkpt>
      <trkpt lat="43.76724" lon="3.92278">
        <ele>312</ele>
        <time>2026-03-27T08:54:42.000Z</time>
      </trkpt>
      <trkpt lat="43.76719" lon="3.92266">
        <ele>312</ele>
        <time>2026-03-27T08:54:52.000Z</time>
      </trkpt>
      <trkpt lat="43.76716" lon="3.92253">
        <ele>311</ele>
        <time>2026-03-27T08:55:08.000Z</time>
      </trkpt>
      <trkpt lat="43.76712" lon="3.92243">
        <ele>311</ele>
        <time>2026-03-27T08:55:20.000Z</time>
      </trkpt>
      <trkpt lat="43.76706" lon="3.92234">
        <ele>310</ele>
        <time>2026-03-27T08:55:28.000Z</time>
      </trkpt>
      <trkpt lat="43.76702" lon="3.92223">
        <ele>310</ele>
        <time>2026-03-27T08:55:37.000Z</time>
      </trkpt>
      <trkpt lat="43.76697" lon="3.92212">
        <ele>309</ele>
        <time>2026-03-27T08:55:57.000Z</time>
      </trkpt>
      <trkpt lat="43.76693" lon="3.92201">
        <ele>309</ele>
        <time>2026-03-27T08:56:07.000Z</time>
      </trkpt>
      <trkpt lat="43.76689" lon="3.92189">
        <ele>309</ele>
        <time>2026-03-27T08:56:39.000Z</time>
      </trkpt>
      <trkpt lat="43.76683" lon="3.92176">
        <ele>308</ele>
        <time>2026-03-27T08:56:45.000Z</time>
      </trkpt>
      <trkpt lat="43.76677" lon="3.92166">
        <ele>307</ele>
        <time>2026-03-27T08:56:56.000Z</time>
      </trkpt>
      <trkpt lat="43.76671" lon="3.92157">
        <ele>307</ele>
        <time>2026-03-27T08:57:11.000Z</time>
      </trkpt>
      <trkpt lat="43.76666" lon="3.92146">
        <ele>306</ele>
        <time>2026-03-27T08:57:31.000Z</time>
      </trkpt>
      <trkpt lat="43.76662" lon="3.92135">
        <ele>306</ele>
        <time>2026-03-27T08:57:44.000Z</time>
      </trkpt>
      <trkpt lat="43.76659" lon="3.92123">
        <ele>306</ele>
        <time>2026-03-27T08:57:55.000Z</time>
      </trkpt>
      <trkpt lat="43.76656" lon="3.9211">
        <ele>305</ele>
        <time>2026-03-27T08:58:03.000Z</time>
      </trkpt>
      <trkpt lat="43.76653" lon="3.92097">
        <ele>305</ele>
        <time>2026-03-27T08:58:13.000Z</time>
      </trkpt>
      <trkpt lat="43.76648" lon="3.92085">
        <ele>304</ele>
        <time>2026-03-27T08:58:28.000Z</time>
      </trkpt>
      <trkpt lat="43.76642" lon="3.92075">
        <ele>303</ele>
        <time>2026-03-27T08:58:35.000Z</time>
      </trkpt>
      <trkpt lat="43.76635" lon="3.92067">
        <ele>303</ele>
        <time>2026-03-27T08:58:46.000Z</time>
      </trkpt>
      <trkpt lat="43.76627" lon="3.92057">
        <ele>302</ele>
        <time>2026-03-27T08:58:56.000Z</time>
      </trkpt>
      <trkpt lat="43.7662" lon="3.92048">
        <ele>302</ele>
        <time>2026-03-27T08:59:05.000Z</time>
      </trkpt>
      <trkpt lat="43.76614" lon="3.92038">
        <ele>301</ele>
        <time>2026-03-27T08:59:20.000Z</time>
      </trkpt>
      <trkpt lat="43.76607" lon="3.92028">
        <ele>301</ele>
        <time>2026-03-27T08:59:28.000Z</time>
      </trkpt>
      <trkpt lat="43.766" lon="3.9202">
        <ele>300</ele>
        <time>2026-03-27T08:59:37.000Z</time>
      </trkpt>
      <trkpt lat="43.7659" lon="3.92014">
        <ele>300</ele>
        <time>2026-03-27T08:59:48.000Z</time>
      </trkpt>
      <trkpt lat="43.76582" lon="3.92007">
        <ele>299</ele>
        <time>2026-03-27T08:59:59.000Z</time>
      </trkpt>
      <trkpt lat="43.76573" lon="3.92004">
        <ele>298</ele>
        <time>2026-03-27T09:00:06.000Z</time>
      </trkpt>
      <trkpt lat="43.76565" lon="3.92004">
        <ele>298</ele>
        <time>2026-03-27T09:00:13.000Z</time>
      </trkpt>
      <trkpt lat="43.76556" lon="3.92004">
        <ele>298</ele>
        <time>2026-03-27T09:00:22.000Z</time>
      </trkpt>
      <trkpt lat="43.76547" lon="3.92">
        <ele>298</ele>
        <time>2026-03-27T09:00:34.000Z</time>
      </trkpt>
      <trkpt lat="43.76539" lon="3.91993">
        <ele>298</ele>
        <time>2026-03-27T09:00:53.000Z</time>
      </trkpt>
      <trkpt lat="43.76535" lon="3.91982">
        <ele>299</ele>
        <time>2026-03-27T09:01:00.000Z</time>
      </trkpt>
      <trkpt lat="43.76532" lon="3.9197">
        <ele>300</ele>
        <time>2026-03-27T09:01:14.000Z</time>
      </trkpt>
      <trkpt lat="43.76527" lon="3.91959">
        <ele>300</ele>
        <time>2026-03-27T09:01:24.000Z</time>
      </trkpt>
      <trkpt lat="43.76522" lon="3.91948">
        <ele>300</ele>
        <time>2026-03-27T09:01:34.000Z</time>
      </trkpt>
      <trkpt lat="43.76518" lon="3.91936">
        <ele>300</ele>
        <time>2026-03-27T09:01:44.000Z</time>
      </trkpt>
      <trkpt lat="43.76515" lon="3.91924">
        <ele>299</ele>
        <time>2026-03-27T09:01:54.000Z</time>
      </trkpt>
      <trkpt lat="43.76512" lon="3.91912">
        <ele>299</ele>
        <time>2026-03-27T09:02:04.000Z</time>
      </trkpt>
      <trkpt lat="43.76508" lon="3.91902">
        <ele>298</ele>
        <time>2026-03-27T09:02:31.000Z</time>
      </trkpt>
      <trkpt lat="43.7651" lon="3.9189">
        <ele>298</ele>
        <time>2026-03-27T09:02:41.000Z</time>
      </trkpt>
      <trkpt lat="43.7651" lon="3.91877">
        <ele>297</ele>
        <time>2026-03-27T09:02:54.000Z</time>
      </trkpt>
      <trkpt lat="43.7651" lon="3.91864">
        <ele>296</ele>
        <time>2026-03-27T09:03:18.000Z</time>
      </trkpt>
      <trkpt lat="43.76515" lon="3.91854">
        <ele>294</ele>
        <time>2026-03-27T09:03:26.000Z</time>
      </trkpt>
      <trkpt lat="43.76518" lon="3.91842">
        <ele>292</ele>
        <time>2026-03-27T09:03:35.000Z</time>
      </trkpt>
      <trkpt lat="43.7652" lon="3.9183">
        <ele>290</ele>
        <time>2026-03-27T09:03:51.000Z</time>
      </trkpt>
      <trkpt lat="43.7652" lon="3.91818">
        <ele>287</ele>
        <time>2026-03-27T09:04:04.000Z</time>
      </trkpt>
      <trkpt lat="43.76523" lon="3.91807">
        <ele>285</ele>
        <time>2026-03-27T09:04:18.000Z</time>
      </trkpt>
      <trkpt lat="43.76524" lon="3.91794">
        <ele>283</ele>
        <time>2026-03-27T09:04:28.000Z</time>
      </trkpt>
      <trkpt lat="43.76524" lon="3.9178">
        <ele>281</ele>
        <time>2026-03-27T09:04:40.000Z</time>
      </trkpt>
      <trkpt lat="43.76522" lon="3.91768">
        <ele>280</ele>
        <time>2026-03-27T09:04:54.000Z</time>
      </trkpt>
      <trkpt lat="43.76521" lon="3.91756">
        <ele>279</ele>
        <time>2026-03-27T09:05:06.000Z</time>
      </trkpt>
      <trkpt lat="43.76524" lon="3.91745">
        <ele>278</ele>
        <time>2026-03-27T09:05:17.000Z</time>
      </trkpt>
      <trkpt lat="43.76527" lon="3.91733">
        <ele>277</ele>
        <time>2026-03-27T09:05:31.000Z</time>
      </trkpt>
      <trkpt lat="43.76524" lon="3.91721">
        <ele>276</ele>
        <time>2026-03-27T09:05:44.000Z</time>
      </trkpt>
      <trkpt lat="43.7652" lon="3.91709">
        <ele>274</ele>
        <time>2026-03-27T09:05:59.000Z</time>
      </trkpt>
      <trkpt lat="43.76517" lon="3.91698">
        <ele>273</ele>
        <time>2026-03-27T09:06:10.000Z</time>
      </trkpt>
      <trkpt lat="43.76513" lon="3.91687">
        <ele>271</ele>
        <time>2026-03-27T09:06:21.000Z</time>
      </trkpt>
      <trkpt lat="43.76508" lon="3.91677">
        <ele>269</ele>
        <time>2026-03-27T09:06:37.000Z</time>
      </trkpt>
      <trkpt lat="43.76504" lon="3.91665">
        <ele>268</ele>
        <time>2026-03-27T09:06:55.000Z</time>
      </trkpt>
      <trkpt lat="43.76498" lon="3.91654">
        <ele>266</ele>
        <time>2026-03-27T09:07:08.000Z</time>
      </trkpt>
      <trkpt lat="43.76493" lon="3.91644">
        <ele>264</ele>
        <time>2026-03-27T09:07:28.000Z</time>
      </trkpt>
      <trkpt lat="43.76487" lon="3.91635">
        <ele>263</ele>
        <time>2026-03-27T09:07:40.000Z</time>
      </trkpt>
      <trkpt lat="43.7648" lon="3.91625">
        <ele>262</ele>
        <time>2026-03-27T09:07:53.000Z</time>
      </trkpt>
      <trkpt lat="43.76472" lon="3.91619">
        <ele>261</ele>
        <time>2026-03-27T09:08:07.000Z</time>
      </trkpt>
      <trkpt lat="43.76465" lon="3.91611">
        <ele>260</ele>
        <time>2026-03-27T09:08:28.000Z</time>
      </trkpt>
      <trkpt lat="43.76458" lon="3.91604">
        <ele>259</ele>
        <time>2026-03-27T09:09:03.000Z</time>
      </trkpt>
      <trkpt lat="43.76451" lon="3.91598">
        <ele>257</ele>
        <time>2026-03-27T09:09:21.000Z</time>
      </trkpt>
      <trkpt lat="43.76442" lon="3.91594">
        <ele>256</ele>
        <time>2026-03-27T09:09:35.000Z</time>
      </trkpt>
      <trkpt lat="43.76433" lon="3.91591">
        <ele>255</ele>
        <time>2026-03-27T09:09:54.000Z</time>
      </trkpt>
      <trkpt lat="43.76424" lon="3.91584">
        <ele>254</ele>
        <time>2026-03-27T09:10:05.000Z</time>
      </trkpt>
      <trkpt lat="43.76417" lon="3.91578">
        <ele>252</ele>
        <time>2026-03-27T09:10:18.000Z</time>
      </trkpt>
      <trkpt lat="43.76409" lon="3.91574">
        <ele>250</ele>
        <time>2026-03-27T09:10:33.000Z</time>
      </trkpt>
      <trkpt lat="43.76401" lon="3.91569">
        <ele>248</ele>
        <time>2026-03-27T09:10:44.000Z</time>
      </trkpt>
      <trkpt lat="43.76393" lon="3.91564">
        <ele>246</ele>
        <time>2026-03-27T09:10:53.000Z</time>
      </trkpt>
      <trkpt lat="43.76385" lon="3.9156">
        <ele>244</ele>
        <time>2026-03-27T09:11:08.000Z</time>
      </trkpt>
      <trkpt lat="43.76378" lon="3.91552">
        <ele>243</ele>
        <time>2026-03-27T09:11:19.000Z</time>
      </trkpt>
      <trkpt lat="43.7637" lon="3.91546">
        <ele>241</ele>
        <time>2026-03-27T09:11:34.000Z</time>
      </trkpt>
      <trkpt lat="43.76362" lon="3.9154">
        <ele>239</ele>
        <time>2026-03-27T09:11:48.000Z</time>
      </trkpt>
      <trkpt lat="43.76354" lon="3.91534">
        <ele>237</ele>
        <time>2026-03-27T09:12:02.000Z</time>
      </trkpt>
      <trkpt lat="43.76347" lon="3.91526">
        <ele>235</ele>
        <time>2026-03-27T09:12:15.000Z</time>
      </trkpt>
      <trkpt lat="43.76339" lon="3.91518">
        <ele>233</ele>
        <time>2026-03-27T09:12:31.000Z</time>
      </trkpt>
      <trkpt lat="43.76331" lon="3.9151">
        <ele>232</ele>
        <time>2026-03-27T09:12:48.000Z</time>
      </trkpt>
      <trkpt lat="43.76323" lon="3.91505">
        <ele>230</ele>
        <time>2026-03-27T09:13:04.000Z</time>
      </trkpt>
      <trkpt lat="43.76316" lon="3.91497">
        <ele>228</ele>
        <time>2026-03-27T09:13:17.000Z</time>
      </trkpt>
      <trkpt lat="43.76308" lon="3.91492">
        <ele>227</ele>
        <time>2026-03-27T09:13:31.000Z</time>
      </trkpt>
      <trkpt lat="43.763" lon="3.91486">
        <ele>225</ele>
        <time>2026-03-27T09:13:45.000Z</time>
      </trkpt>
      <trkpt lat="43.76292" lon="3.9148">
        <ele>223</ele>
        <time>2026-03-27T09:14:02.000Z</time>
      </trkpt>
      <trkpt lat="43.76284" lon="3.91474">
        <ele>222</ele>
        <time>2026-03-27T09:14:17.000Z</time>
      </trkpt>
      <trkpt lat="43.76276" lon="3.91468">
        <ele>220</ele>
        <time>2026-03-27T09:14:30.000Z</time>
      </trkpt>
      <trkpt lat="43.76268" lon="3.91463">
        <ele>218</ele>
        <time>2026-03-27T09:14:45.000Z</time>
      </trkpt>
      <trkpt lat="43.7626" lon="3.91458">
        <ele>216</ele>
        <time>2026-03-27T09:14:58.000Z</time>
      </trkpt>
      <trkpt lat="43.76252" lon="3.91452">
        <ele>215</ele>
        <time>2026-03-27T09:15:09.000Z</time>
      </trkpt>
      <trkpt lat="43.76243" lon="3.91447">
        <ele>214</ele>
        <time>2026-03-27T09:15:20.000Z</time>
      </trkpt>
      <trkpt lat="43.76235" lon="3.91442">
        <ele>214</ele>
        <time>2026-03-27T09:15:32.000Z</time>
      </trkpt>
      <trkpt lat="43.76241" lon="3.91436">
        <ele>213</ele>
        <time>2026-03-27T09:16:11.000Z</time>
      </trkpt>
      <trkpt lat="43.76249" lon="3.91431">
        <ele>212</ele>
        <time>2026-03-27T09:16:23.000Z</time>
      </trkpt>
      <trkpt lat="43.76258" lon="3.91426">
        <ele>211</ele>
        <time>2026-03-27T09:16:40.000Z</time>
      </trkpt>
      <trkpt lat="43.76265" lon="3.91421">
        <ele>210</ele>
        <time>2026-03-27T09:16:58.000Z</time>
      </trkpt>
      <trkpt lat="43.76273" lon="3.91414">
        <ele>209</ele>
        <time>2026-03-27T09:17:10.000Z</time>
      </trkpt>
      <trkpt lat="43.76281" lon="3.9141">
        <ele>208</ele>
        <time>2026-03-27T09:17:23.000Z</time>
      </trkpt>
      <trkpt lat="43.76288" lon="3.91403">
        <ele>207</ele>
        <time>2026-03-27T09:17:33.000Z</time>
      </trkpt>
      <trkpt lat="43.76296" lon="3.91398">
        <ele>206</ele>
        <time>2026-03-27T09:17:46.000Z</time>
      </trkpt>
      <trkpt lat="43.76306" lon="3.91394">
        <ele>205</ele>
        <time>2026-03-27T09:18:02.000Z</time>
      </trkpt>
      <trkpt lat="43.76314" lon="3.91391">
        <ele>205</ele>
        <time>2026-03-27T09:18:14.000Z</time>
      </trkpt>
      <trkpt lat="43.76323" lon="3.91388">
        <ele>203</ele>
        <time>2026-03-27T09:18:28.000Z</time>
      </trkpt>
      <trkpt lat="43.76332" lon="3.91386">
        <ele>202</ele>
        <time>2026-03-27T09:18:38.000Z</time>
      </trkpt>
      <trkpt lat="43.76342" lon="3.91383">
        <ele>199</ele>
        <time>2026-03-27T09:18:50.000Z</time>
      </trkpt>
      <trkpt lat="43.76349" lon="3.91377">
        <ele>197</ele>
        <time>2026-03-27T09:18:58.000Z</time>
      </trkpt>
      <trkpt lat="43.76357" lon="3.9137">
        <ele>194</ele>
        <time>2026-03-27T09:19:08.000Z</time>
      </trkpt>
      <trkpt lat="43.76364" lon="3.91361">
        <ele>192</ele>
        <time>2026-03-27T09:19:22.000Z</time>
      </trkpt>
      <trkpt lat="43.76372" lon="3.91357">
        <ele>191</ele>
        <time>2026-03-27T09:19:36.000Z</time>
      </trkpt>
      <trkpt lat="43.76381" lon="3.91356">
        <ele>190</ele>
        <time>2026-03-27T09:19:46.000Z</time>
      </trkpt>
      <trkpt lat="43.7639" lon="3.91356">
        <ele>189</ele>
        <time>2026-03-27T09:20:00.000Z</time>
      </trkpt>
      <trkpt lat="43.76399" lon="3.9136">
        <ele>189</ele>
        <time>2026-03-27T09:20:10.000Z</time>
      </trkpt>
      <trkpt lat="43.76408" lon="3.91357">
        <ele>188</ele>
        <time>2026-03-27T09:20:19.000Z</time>
      </trkpt>
      <trkpt lat="43.76416" lon="3.9135">
        <ele>188</ele>
        <time>2026-03-27T09:20:32.000Z</time>
      </trkpt>
      <trkpt lat="43.76424" lon="3.91354">
        <ele>189</ele>
        <time>2026-03-27T09:26:28.000Z</time>
      </trkpt>
      <trkpt lat="43.76432" lon="3.91359">
        <ele>189</ele>
        <time>2026-03-27T09:26:41.000Z</time>
      </trkpt>
      <trkpt lat="43.7644" lon="3.91365">
        <ele>189</ele>
        <time>2026-03-27T09:26:51.000Z</time>
      </trkpt>
      <trkpt lat="43.76448" lon="3.91371">
        <ele>189</ele>
        <time>2026-03-27T09:27:02.000Z</time>
      </trkpt>
      <trkpt lat="43.76456" lon="3.91378">
        <ele>190</ele>
        <time>2026-03-27T09:27:18.000Z</time>
      </trkpt>
      <trkpt lat="43.76464" lon="3.91381">
        <ele>190</ele>
        <time>2026-03-27T09:27:26.000Z</time>
      </trkpt>
      <trkpt lat="43.76472" lon="3.91376">
        <ele>190</ele>
        <time>2026-03-27T09:27:35.000Z</time>
      </trkpt>
      <trkpt lat="43.7648" lon="3.91367">
        <ele>190</ele>
        <time>2026-03-27T09:27:47.000Z</time>
      </trkpt>
      <trkpt lat="43.76485" lon="3.91357">
        <ele>190</ele>
        <time>2026-03-27T09:27:55.000Z</time>
      </trkpt>
      <trkpt lat="43.76491" lon="3.91346">
        <ele>190</ele>
        <time>2026-03-27T09:28:03.000Z</time>
      </trkpt>
      <trkpt lat="43.76496" lon="3.91334">
        <ele>190</ele>
        <time>2026-03-27T09:28:14.000Z</time>
      </trkpt>
      <trkpt lat="43.76501" lon="3.91322">
        <ele>189</ele>
        <time>2026-03-27T09:28:25.000Z</time>
      </trkpt>
      <trkpt lat="43.76506" lon="3.91311">
        <ele>188</ele>
        <time>2026-03-27T09:28:34.000Z</time>
      </trkpt>
      <trkpt lat="43.76511" lon="3.913">
        <ele>186</ele>
        <time>2026-03-27T09:28:43.000Z</time>
      </trkpt>
      <trkpt lat="43.76511" lon="3.91288">
        <ele>185</ele>
        <time>2026-03-27T09:30:22.000Z</time>
      </trkpt>
      <trkpt lat="43.76513" lon="3.91278">
        <ele>184</ele>
        <time>2026-03-27T09:31:00.000Z</time>
      </trkpt>
      <trkpt lat="43.76507" lon="3.91276">
        <ele>184</ele>
        <time>2026-03-27T09:31:20.000Z</time>
      </trkpt>
      <trkpt lat="43.76498" lon="3.91271">
        <ele>183</ele>
        <time>2026-03-27T09:31:30.000Z</time>
      </trkpt>
      <trkpt lat="43.76489" lon="3.9127">
        <ele>182</ele>
        <time>2026-03-27T09:31:43.000Z</time>
      </trkpt>
      <trkpt lat="43.7648" lon="3.91267">
        <ele>182</ele>
        <time>2026-03-27T09:31:56.000Z</time>
      </trkpt>
      <trkpt lat="43.7647" lon="3.91265">
        <ele>182</ele>
        <time>2026-03-27T09:32:08.000Z</time>
      </trkpt>
      <trkpt lat="43.76462" lon="3.91263">
        <ele>182</ele>
        <time>2026-03-27T09:32:15.000Z</time>
      </trkpt>
      <trkpt lat="43.76453" lon="3.91259">
        <ele>181</ele>
        <time>2026-03-27T09:32:23.000Z</time>
      </trkpt>
      <trkpt lat="43.76443" lon="3.91256">
        <ele>181</ele>
        <time>2026-03-27T09:32:33.000Z</time>
      </trkpt>
      <trkpt lat="43.76434" lon="3.91253">
        <ele>180</ele>
        <time>2026-03-27T09:32:41.000Z</time>
      </trkpt>
      <trkpt lat="43.76425" lon="3.9125">
        <ele>180</ele>
        <time>2026-03-27T09:32:50.000Z</time>
      </trkpt>
      <trkpt lat="43.76416" lon="3.91248">
        <ele>179</ele>
        <time>2026-03-27T09:32:57.000Z</time>
      </trkpt>
      <trkpt lat="43.76408" lon="3.91245">
        <ele>179</ele>
        <time>2026-03-27T09:33:05.000Z</time>
      </trkpt>
      <trkpt lat="43.76398" lon="3.91245">
        <ele>178</ele>
        <time>2026-03-27T09:33:15.000Z</time>
      </trkpt>
      <trkpt lat="43.76388" lon="3.91244">
        <ele>177</ele>
        <time>2026-03-27T09:33:26.000Z</time>
      </trkpt>
      <trkpt lat="43.76378" lon="3.91241">
        <ele>177</ele>
        <time>2026-03-27T09:33:36.000Z</time>
      </trkpt>
      <trkpt lat="43.76369" lon="3.91237">
        <ele>176</ele>
        <time>2026-03-27T09:33:45.000Z</time>
      </trkpt>
      <trkpt lat="43.7636" lon="3.91234">
        <ele>176</ele>
        <time>2026-03-27T09:33:55.000Z</time>
      </trkpt>
      <trkpt lat="43.76351" lon="3.9123">
        <ele>175</ele>
        <time>2026-03-27T09:34:03.000Z</time>
      </trkpt>
      <trkpt lat="43.76341" lon="3.91228">
        <ele>175</ele>
        <time>2026-03-27T09:34:13.000Z</time>
      </trkpt>
      <trkpt lat="43.76331" lon="3.91223">
        <ele>175</ele>
        <time>2026-03-27T09:34:23.000Z</time>
      </trkpt>
      <trkpt lat="43.76321" lon="3.91221">
        <ele>175</ele>
        <time>2026-03-27T09:34:34.000Z</time>
      </trkpt>
      <trkpt lat="43.76312" lon="3.91223">
        <ele>176</ele>
        <time>2026-03-27T09:34:43.000Z</time>
      </trkpt>
      <trkpt lat="43.76306" lon="3.91235">
        <ele>177</ele>
        <time>2026-03-27T09:34:54.000Z</time>
      </trkpt>
      <trkpt lat="43.763" lon="3.91247">
        <ele>178</ele>
        <time>2026-03-27T09:35:04.000Z</time>
      </trkpt>
      <trkpt lat="43.76293" lon="3.91257">
        <ele>179</ele>
        <time>2026-03-27T09:35:13.000Z</time>
      </trkpt>
      <trkpt lat="43.76286" lon="3.91267">
        <ele>180</ele>
        <time>2026-03-27T09:35:41.000Z</time>
      </trkpt>
      <trkpt lat="43.76279" lon="3.91276">
        <ele>181</ele>
        <time>2026-03-27T09:35:50.000Z</time>
      </trkpt>
      <trkpt lat="43.76273" lon="3.91287">
        <ele>182</ele>
        <time>2026-03-27T09:36:00.000Z</time>
      </trkpt>
      <trkpt lat="43.76268" lon="3.91298">
        <ele>184</ele>
        <time>2026-03-27T09:36:07.000Z</time>
      </trkpt>
      <trkpt lat="43.76265" lon="3.9131">
        <ele>186</ele>
        <time>2026-03-27T09:36:16.000Z</time>
      </trkpt>
      <trkpt lat="43.76262" lon="3.91322">
        <ele>188</ele>
        <time>2026-03-27T09:36:25.000Z</time>
      </trkpt>
      <trkpt lat="43.76254" lon="3.91325">
        <ele>190</ele>
        <time>2026-03-27T09:36:38.000Z</time>
      </trkpt>
      <trkpt lat="43.76244" lon="3.91321">
        <ele>190</ele>
        <time>2026-03-27T09:36:50.000Z</time>
      </trkpt>
      <trkpt lat="43.76234" lon="3.91322">
        <ele>191</ele>
        <time>2026-03-27T09:37:00.000Z</time>
      </trkpt>
      <trkpt lat="43.76224" lon="3.91321">
        <ele>191</ele>
        <time>2026-03-27T09:37:10.000Z</time>
      </trkpt>
      <trkpt lat="43.76214" lon="3.91321">
        <ele>192</ele>
        <time>2026-03-27T09:37:20.000Z</time>
      </trkpt>
      <trkpt lat="43.76204" lon="3.91318">
        <ele>192</ele>
        <time>2026-03-27T09:37:28.000Z</time>
      </trkpt>
      <trkpt lat="43.76195" lon="3.91316">
        <ele>193</ele>
        <time>2026-03-27T09:37:37.000Z</time>
      </trkpt>
      <trkpt lat="43.76186" lon="3.9131">
        <ele>193</ele>
        <time>2026-03-27T09:37:47.000Z</time>
      </trkpt>
      <trkpt lat="43.7618" lon="3.91309">
        <ele>194</ele>
        <time>2026-03-27T09:37:56.000Z</time>
      </trkpt>
      <trkpt lat="43.76187" lon="3.9131">
        <ele>194</ele>
        <time>2026-03-27T09:38:32.000Z</time>
      </trkpt>
      <trkpt lat="43.76197" lon="3.91313">
        <ele>194</ele>
        <time>2026-03-27T09:38:42.000Z</time>
      </trkpt>
      <trkpt lat="43.76206" lon="3.91315">
        <ele>194</ele>
        <time>2026-03-27T09:38:51.000Z</time>
      </trkpt>
      <trkpt lat="43.76215" lon="3.91322">
        <ele>195</ele>
        <time>2026-03-27T09:39:01.000Z</time>
      </trkpt>
      <trkpt lat="43.76217" lon="3.91335">
        <ele>195</ele>
        <time>2026-03-27T09:39:13.000Z</time>
      </trkpt>
      <trkpt lat="43.76212" lon="3.91345">
        <ele>196</ele>
        <time>2026-03-27T09:39:37.000Z</time>
      </trkpt>
      <trkpt lat="43.76203" lon="3.91348">
        <ele>196</ele>
        <time>2026-03-27T09:39:48.000Z</time>
      </trkpt>
      <trkpt lat="43.76194" lon="3.91351">
        <ele>197</ele>
        <time>2026-03-27T09:40:46.000Z</time>
      </trkpt>
      <trkpt lat="43.76185" lon="3.91357">
        <ele>198</ele>
        <time>2026-03-27T09:40:56.000Z</time>
      </trkpt>
      <trkpt lat="43.76177" lon="3.91365">
        <ele>200</ele>
        <time>2026-03-27T09:41:08.000Z</time>
      </trkpt>
      <trkpt lat="43.7617" lon="3.91373">
        <ele>202</ele>
        <time>2026-03-27T09:41:23.000Z</time>
      </trkpt>
      <trkpt lat="43.76162" lon="3.91378">
        <ele>204</ele>
        <time>2026-03-27T09:41:35.000Z</time>
      </trkpt>
      <trkpt lat="43.76155" lon="3.91385">
        <ele>206</ele>
        <time>2026-03-27T09:42:06.000Z</time>
      </trkpt>
      <trkpt lat="43.76146" lon="3.9139">
        <ele>207</ele>
        <time>2026-03-27T09:43:18.000Z</time>
      </trkpt>
      <trkpt lat="43.76137" lon="3.91393">
        <ele>208</ele>
        <time>2026-03-27T09:43:26.000Z</time>
      </trkpt>
      <trkpt lat="43.76129" lon="3.91393">
        <ele>208</ele>
        <time>2026-03-27T09:43:34.000Z</time>
      </trkpt>
      <trkpt lat="43.76119" lon="3.91393">
        <ele>208</ele>
        <time>2026-03-27T09:43:44.000Z</time>
      </trkpt>
      <trkpt lat="43.7611" lon="3.91391">
        <ele>209</ele>
        <time>2026-03-27T09:43:54.000Z</time>
      </trkpt>
      <trkpt lat="43.76102" lon="3.91391">
        <ele>210</ele>
        <time>2026-03-27T09:44:07.000Z</time>
      </trkpt>
      <trkpt lat="43.76095" lon="3.91398">
        <ele>210</ele>
        <time>2026-03-27T09:44:18.000Z</time>
      </trkpt>
      <trkpt lat="43.76092" lon="3.9141">
        <ele>211</ele>
        <time>2026-03-27T09:44:58.000Z</time>
      </trkpt>
      <trkpt lat="43.76087" lon="3.9142">
        <ele>211</ele>
        <time>2026-03-27T09:45:10.000Z</time>
      </trkpt>
      <trkpt lat="43.7608" lon="3.91424">
        <ele>212</ele>
        <time>2026-03-27T09:46:04.000Z</time>
      </trkpt>
      <trkpt lat="43.76074" lon="3.9143">
        <ele>213</ele>
        <time>2026-03-27T09:46:53.000Z</time>
      </trkpt>
      <trkpt lat="43.76077" lon="3.91438">
        <ele>213</ele>
        <time>2026-03-27T09:47:05.000Z</time>
      </trkpt>
      <trkpt lat="43.76084" lon="3.91434">
        <ele>213</ele>
        <time>2026-03-27T09:48:04.000Z</time>
      </trkpt>
      <trkpt lat="43.76078" lon="3.91432">
        <ele>212</ele>
        <time>2026-03-27T09:50:50.000Z</time>
      </trkpt>
      <trkpt lat="43.76071" lon="3.91425">
        <ele>212</ele>
        <time>2026-03-27T09:52:35.000Z</time>
      </trkpt>
      <trkpt lat="43.76062" lon="3.91423">
        <ele>211</ele>
        <time>2026-03-27T09:52:49.000Z</time>
      </trkpt>
      <trkpt lat="43.76054" lon="3.91419">
        <ele>210</ele>
        <time>2026-03-27T09:53:04.000Z</time>
      </trkpt>
      <trkpt lat="43.76045" lon="3.91415">
        <ele>209</ele>
        <time>2026-03-27T09:53:16.000Z</time>
      </trkpt>
      <trkpt lat="43.76036" lon="3.91413">
        <ele>209</ele>
        <time>2026-03-27T09:53:26.000Z</time>
      </trkpt>
      <trkpt lat="43.76027" lon="3.91409">
        <ele>208</ele>
        <time>2026-03-27T09:53:40.000Z</time>
      </trkpt>
      <trkpt lat="43.7602" lon="3.91403">
        <ele>207</ele>
        <time>2026-03-27T09:53:54.000Z</time>
      </trkpt>
      <trkpt lat="43.76014" lon="3.91393">
        <ele>206</ele>
        <time>2026-03-27T09:54:12.000Z</time>
      </trkpt>
      <trkpt lat="43.76007" lon="3.91385">
        <ele>205</ele>
        <time>2026-03-27T09:54:23.000Z</time>
      </trkpt>
      <trkpt lat="43.75998" lon="3.91379">
        <ele>204</ele>
        <time>2026-03-27T09:54:54.000Z</time>
      </trkpt>
      <trkpt lat="43.75988" lon="3.91375">
        <ele>202</ele>
        <time>2026-03-27T09:55:02.000Z</time>
      </trkpt>
      <trkpt lat="43.75979" lon="3.91374">
        <ele>201</ele>
        <time>2026-03-27T09:55:16.000Z</time>
      </trkpt>
      <trkpt lat="43.75971" lon="3.91369">
        <ele>200</ele>
        <time>2026-03-27T09:56:03.000Z</time>
      </trkpt>
      <trkpt lat="43.75964" lon="3.9136">
        <ele>198</ele>
        <time>2026-03-27T09:56:11.000Z</time>
      </trkpt>
      <trkpt lat="43.75958" lon="3.91349">
        <ele>198</ele>
        <time>2026-03-27T09:56:17.000Z</time>
      </trkpt>
      <trkpt lat="43.75954" lon="3.91342">
        <ele>198</ele>
        <time>2026-03-27T09:56:26.000Z</time>
      </trkpt>
      <trkpt lat="43.75958" lon="3.9135">
        <ele>198</ele>
        <time>2026-03-27T09:57:19.000Z</time>
      </trkpt>
      <trkpt lat="43.75965" lon="3.91361">
        <ele>199</ele>
        <time>2026-03-27T09:57:31.000Z</time>
      </trkpt>
      <trkpt lat="43.7597" lon="3.91371">
        <ele>200</ele>
        <time>2026-03-27T09:57:46.000Z</time>
      </trkpt>
      <trkpt lat="43.75971" lon="3.9138">
        <ele>201</ele>
        <time>2026-03-27T09:58:14.000Z</time>
      </trkpt>
      <trkpt lat="43.75978" lon="3.91377">
        <ele>201</ele>
        <time>2026-03-27T09:59:50.000Z</time>
      </trkpt>
      <trkpt lat="43.75987" lon="3.91376">
        <ele>202</ele>
        <time>2026-03-27T10:00:00.000Z</time>
      </trkpt>
      <trkpt lat="43.75996" lon="3.91381">
        <ele>203</ele>
        <time>2026-03-27T10:00:08.000Z</time>
      </trkpt>
      <trkpt lat="43.76004" lon="3.91386">
        <ele>204</ele>
        <time>2026-03-27T10:00:15.000Z</time>
      </trkpt>
      <trkpt lat="43.76012" lon="3.91395">
        <ele>205</ele>
        <time>2026-03-27T10:00:24.000Z</time>
      </trkpt>
      <trkpt lat="43.76018" lon="3.91404">
        <ele>206</ele>
        <time>2026-03-27T10:00:36.000Z</time>
      </trkpt>
      <trkpt lat="43.76027" lon="3.91411">
        <ele>207</ele>
        <time>2026-03-27T10:00:45.000Z</time>
      </trkpt>
      <trkpt lat="43.76036" lon="3.91416">
        <ele>208</ele>
        <time>2026-03-27T10:00:56.000Z</time>
      </trkpt>
      <trkpt lat="43.76045" lon="3.91421">
        <ele>209</ele>
        <time>2026-03-27T10:01:03.000Z</time>
      </trkpt>
      <trkpt lat="43.76053" lon="3.91424">
        <ele>210</ele>
        <time>2026-03-27T10:01:17.000Z</time>
      </trkpt>
      <trkpt lat="43.76062" lon="3.91424">
        <ele>212</ele>
        <time>2026-03-27T10:01:30.000Z</time>
      </trkpt>
      <trkpt lat="43.76071" lon="3.91426">
        <ele>213</ele>
        <time>2026-03-27T10:01:39.000Z</time>
      </trkpt>
      <trkpt lat="43.76074" lon="3.91436">
        <ele>213</ele>
        <time>2026-03-27T10:02:09.000Z</time>
      </trkpt>
      <trkpt lat="43.76067" lon="3.91443">
        <ele>214</ele>
        <time>2026-03-27T10:04:08.000Z</time>
      </trkpt>
      <trkpt lat="43.76058" lon="3.91441">
        <ele>214</ele>
        <time>2026-03-27T10:04:22.000Z</time>
      </trkpt>
      <trkpt lat="43.76049" lon="3.91439">
        <ele>214</ele>
        <time>2026-03-27T10:04:38.000Z</time>
      </trkpt>
      <trkpt lat="43.7604" lon="3.91433">
        <ele>214</ele>
        <time>2026-03-27T10:04:45.000Z</time>
      </trkpt>
      <trkpt lat="43.76032" lon="3.91425">
        <ele>215</ele>
        <time>2026-03-27T10:04:57.000Z</time>
      </trkpt>
      <trkpt lat="43.76024" lon="3.91422">
        <ele>216</ele>
        <time>2026-03-27T10:05:07.000Z</time>
      </trkpt>
      <trkpt lat="43.76016" lon="3.91427">
        <ele>216</ele>
        <time>2026-03-27T10:06:22.000Z</time>
      </trkpt>
      <trkpt lat="43.76007" lon="3.91432">
        <ele>217</ele>
        <time>2026-03-27T10:06:51.000Z</time>
      </trkpt>
      <trkpt lat="43.75999" lon="3.91438">
        <ele>217</ele>
        <time>2026-03-27T10:07:06.000Z</time>
      </trkpt>
      <trkpt lat="43.7599" lon="3.9144">
        <ele>217</ele>
        <time>2026-03-27T10:08:06.000Z</time>
      </trkpt>
      <trkpt lat="43.75981" lon="3.91435">
        <ele>216</ele>
        <time>2026-03-27T10:08:19.000Z</time>
      </trkpt>
      <trkpt lat="43.75973" lon="3.91434">
        <ele>216</ele>
        <time>2026-03-27T10:08:29.000Z</time>
      </trkpt>
      <trkpt lat="43.75967" lon="3.91442">
        <ele>216</ele>
        <time>2026-03-27T10:08:47.000Z</time>
      </trkpt>
      <trkpt lat="43.75959" lon="3.91452">
        <ele>216</ele>
        <time>2026-03-27T10:09:00.000Z</time>
      </trkpt>
      <trkpt lat="43.75952" lon="3.9146">
        <ele>218</ele>
        <time>2026-03-27T10:09:11.000Z</time>
      </trkpt>
      <trkpt lat="43.75945" lon="3.91468">
        <ele>219</ele>
        <time>2026-03-27T10:09:28.000Z</time>
      </trkpt>
      <trkpt lat="43.75937" lon="3.91475">
        <ele>221</ele>
        <time>2026-03-27T10:09:43.000Z</time>
      </trkpt>
      <trkpt lat="43.75929" lon="3.91483">
        <ele>223</ele>
        <time>2026-03-27T10:10:05.000Z</time>
      </trkpt>
      <trkpt lat="43.75924" lon="3.91492">
        <ele>224</ele>
        <time>2026-03-27T10:10:27.000Z</time>
      </trkpt>
      <trkpt lat="43.75919" lon="3.91501">
        <ele>226</ele>
        <time>2026-03-27T10:10:55.000Z</time>
      </trkpt>
      <trkpt lat="43.75917" lon="3.91513">
        <ele>228</ele>
        <time>2026-03-27T10:11:10.000Z</time>
      </trkpt>
      <trkpt lat="43.75915" lon="3.91525">
        <ele>230</ele>
        <time>2026-03-27T10:11:35.000Z</time>
      </trkpt>
      <trkpt lat="43.7591" lon="3.91538">
        <ele>231</ele>
        <time>2026-03-27T10:11:50.000Z</time>
      </trkpt>
      <trkpt lat="43.75903" lon="3.91547">
        <ele>233</ele>
        <time>2026-03-27T10:12:05.000Z</time>
      </trkpt>
      <trkpt lat="43.75895" lon="3.91551">
        <ele>235</ele>
        <time>2026-03-27T10:12:15.000Z</time>
      </trkpt>
      <trkpt lat="43.75888" lon="3.91558">
        <ele>236</ele>
        <time>2026-03-27T10:13:01.000Z</time>
      </trkpt>
      <trkpt lat="43.75882" lon="3.91559">
        <ele>236</ele>
        <time>2026-03-27T10:14:21.000Z</time>
      </trkpt>
      <trkpt lat="43.75888" lon="3.9156">
        <ele>236</ele>
        <time>2026-03-27T10:15:08.000Z</time>
      </trkpt>
      <trkpt lat="43.75897" lon="3.91556">
        <ele>237</ele>
        <time>2026-03-27T10:15:23.000Z</time>
      </trkpt>
      <trkpt lat="43.75902" lon="3.91546">
        <ele>237</ele>
        <time>2026-03-27T10:15:51.000Z</time>
      </trkpt>
      <trkpt lat="43.75908" lon="3.91542">
        <ele>238</ele>
        <time>2026-03-27T10:16:05.000Z</time>
      </trkpt>
      <trkpt lat="43.75907" lon="3.91552">
        <ele>239</ele>
        <time>2026-03-27T10:16:29.000Z</time>
      </trkpt>
      <trkpt lat="43.75906" lon="3.91564">
        <ele>241</ele>
        <time>2026-03-27T10:17:13.000Z</time>
      </trkpt>
      <trkpt lat="43.75905" lon="3.91577">
        <ele>243</ele>
        <time>2026-03-27T10:17:28.000Z</time>
      </trkpt>
      <trkpt lat="43.75904" lon="3.9159">
        <ele>245</ele>
        <time>2026-03-27T10:17:44.000Z</time>
      </trkpt>
      <trkpt lat="43.75904" lon="3.91602">
        <ele>248</ele>
        <time>2026-03-27T10:18:01.000Z</time>
      </trkpt>
      <trkpt lat="43.759" lon="3.91615">
        <ele>250</ele>
        <time>2026-03-27T10:19:03.000Z</time>
      </trkpt>
      <trkpt lat="43.759" lon="3.91628">
        <ele>252</ele>
        <time>2026-03-27T10:19:23.000Z</time>
      </trkpt>
      <trkpt lat="43.75903" lon="3.9164">
        <ele>254</ele>
        <time>2026-03-27T10:21:59.000Z</time>
      </trkpt>
      <trkpt lat="43.75901" lon="3.91651">
        <ele>256</ele>
        <time>2026-03-27T10:22:26.000Z</time>
      </trkpt>
      <trkpt lat="43.75902" lon="3.91664">
        <ele>258</ele>
        <time>2026-03-27T10:23:00.000Z</time>
      </trkpt>
      <trkpt lat="43.75901" lon="3.91677">
        <ele>259</ele>
        <time>2026-03-27T10:23:21.000Z</time>
      </trkpt>
      <trkpt lat="43.75901" lon="3.91689">
        <ele>262</ele>
        <time>2026-03-27T10:23:41.000Z</time>
      </trkpt>
      <trkpt lat="43.75903" lon="3.91701">
        <ele>265</ele>
        <time>2026-03-27T10:23:56.000Z</time>
      </trkpt>
      <trkpt lat="43.7591" lon="3.91707">
        <ele>268</ele>
        <time>2026-03-27T10:24:33.000Z</time>
      </trkpt>
      <trkpt lat="43.75916" lon="3.91716">
        <ele>269</ele>
        <time>2026-03-27T10:25:07.000Z</time>
      </trkpt>
      <trkpt lat="43.75921" lon="3.91722">
        <ele>269</ele>
        <time>2026-03-27T10:25:39.000Z</time>
      </trkpt>
      <trkpt lat="43.75917" lon="3.91715">
        <ele>269</ele>
        <time>2026-03-27T10:28:47.000Z</time>
      </trkpt>
      <trkpt lat="43.75912" lon="3.91704">
        <ele>268</ele>
        <time>2026-03-27T10:29:08.000Z</time>
      </trkpt>
      <trkpt lat="43.75903" lon="3.91701">
        <ele>267</ele>
        <time>2026-03-27T10:29:21.000Z</time>
      </trkpt>
      <trkpt lat="43.75895" lon="3.91708">
        <ele>266</ele>
        <time>2026-03-27T10:29:47.000Z</time>
      </trkpt>
      <trkpt lat="43.75891" lon="3.91718">
        <ele>266</ele>
        <time>2026-03-27T10:29:57.000Z</time>
      </trkpt>
      <trkpt lat="43.75885" lon="3.91728">
        <ele>266</ele>
        <time>2026-03-27T10:30:15.000Z</time>
      </trkpt>
      <trkpt lat="43.7588" lon="3.91739">
        <ele>266</ele>
        <time>2026-03-27T10:30:25.000Z</time>
      </trkpt>
      <trkpt lat="43.75873" lon="3.91747">
        <ele>265</ele>
        <time>2026-03-27T10:30:34.000Z</time>
      </trkpt>
      <trkpt lat="43.75864" lon="3.91752">
        <ele>265</ele>
        <time>2026-03-27T10:30:46.000Z</time>
      </trkpt>
      <trkpt lat="43.75856" lon="3.91757">
        <ele>264</ele>
        <time>2026-03-27T10:31:00.000Z</time>
      </trkpt>
      <trkpt lat="43.75847" lon="3.91763">
        <ele>263</ele>
        <time>2026-03-27T10:31:14.000Z</time>
      </trkpt>
      <trkpt lat="43.75839" lon="3.91757">
        <ele>262</ele>
        <time>2026-03-27T10:31:38.000Z</time>
      </trkpt>
      <trkpt lat="43.75832" lon="3.91752">
        <ele>260</ele>
        <time>2026-03-27T10:31:52.000Z</time>
      </trkpt>
      <trkpt lat="43.75823" lon="3.91752">
        <ele>258</ele>
        <time>2026-03-27T10:32:05.000Z</time>
      </trkpt>
      <trkpt lat="43.75813" lon="3.91754">
        <ele>256</ele>
        <time>2026-03-27T10:32:17.000Z</time>
      </trkpt>
      <trkpt lat="43.75804" lon="3.91758">
        <ele>255</ele>
        <time>2026-03-27T10:32:39.000Z</time>
      </trkpt>
      <trkpt lat="43.75799" lon="3.91769">
        <ele>253</ele>
        <time>2026-03-27T10:33:11.000Z</time>
      </trkpt>
      <trkpt lat="43.75796" lon="3.91778">
        <ele>252</ele>
        <time>2026-03-27T10:34:49.000Z</time>
      </trkpt>
      <trkpt lat="43.75796" lon="3.91769">
        <ele>251</ele>
        <time>2026-03-27T10:35:53.000Z</time>
      </trkpt>
      <trkpt lat="43.75792" lon="3.91758">
        <ele>250</ele>
        <time>2026-03-27T10:36:32.000Z</time>
      </trkpt>
      <trkpt lat="43.75789" lon="3.91746">
        <ele>249</ele>
        <time>2026-03-27T10:36:57.000Z</time>
      </trkpt>
      <trkpt lat="43.75794" lon="3.91735">
        <ele>249</ele>
        <time>2026-03-27T10:37:09.000Z</time>
      </trkpt>
      <trkpt lat="43.758" lon="3.91726">
        <ele>248</ele>
        <time>2026-03-27T10:37:18.000Z</time>
      </trkpt>
      <trkpt lat="43.75806" lon="3.91717">
        <ele>248</ele>
        <time>2026-03-27T10:37:29.000Z</time>
      </trkpt>
      <trkpt lat="43.75812" lon="3.91706">
        <ele>249</ele>
        <time>2026-03-27T10:37:42.000Z</time>
      </trkpt>
      <trkpt lat="43.75816" lon="3.91695">
        <ele>250</ele>
        <time>2026-03-27T10:37:51.000Z</time>
      </trkpt>
      <trkpt lat="43.75823" lon="3.91687">
        <ele>250</ele>
        <time>2026-03-27T10:38:11.000Z</time>
      </trkpt>
      <trkpt lat="43.7583" lon="3.91677">
        <ele>250</ele>
        <time>2026-03-27T10:38:30.000Z</time>
      </trkpt>
      <trkpt lat="43.75837" lon="3.91667">
        <ele>250</ele>
        <time>2026-03-27T10:38:44.000Z</time>
      </trkpt>
      <trkpt lat="43.75844" lon="3.91658">
        <ele>249</ele>
        <time>2026-03-27T10:38:54.000Z</time>
      </trkpt>
      <trkpt lat="43.75849" lon="3.91648">
        <ele>248</ele>
        <time>2026-03-27T10:39:05.000Z</time>
      </trkpt>
      <trkpt lat="43.75851" lon="3.91636">
        <ele>246</ele>
        <time>2026-03-27T10:39:15.000Z</time>
      </trkpt>
      <trkpt lat="43.7585" lon="3.91624">
        <ele>245</ele>
        <time>2026-03-27T10:39:29.000Z</time>
      </trkpt>
      <trkpt lat="43.75853" lon="3.91613">
        <ele>243</ele>
        <time>2026-03-27T10:39:42.000Z</time>
      </trkpt>
      <trkpt lat="43.75856" lon="3.91601">
        <ele>241</ele>
        <time>2026-03-27T10:39:56.000Z</time>
      </trkpt>
      <trkpt lat="43.75858" lon="3.91589">
        <ele>239</ele>
        <time>2026-03-27T10:40:13.000Z</time>
      </trkpt>
      <trkpt lat="43.75861" lon="3.91578">
        <ele>238</ele>
        <time>2026-03-27T10:40:24.000Z</time>
      </trkpt>
      <trkpt lat="43.75862" lon="3.91567">
        <ele>237</ele>
        <time>2026-03-27T10:40:51.000Z</time>
      </trkpt>
      <trkpt lat="43.7587" lon="3.91558">
        <ele>236</ele>
        <time>2026-03-27T10:41:26.000Z</time>
      </trkpt>
      <trkpt lat="43.75879" lon="3.91555">
        <ele>235</ele>
        <time>2026-03-27T10:41:47.000Z</time>
      </trkpt>
      <trkpt lat="43.75886" lon="3.91554">
        <ele>234</ele>
        <time>2026-03-27T10:42:53.000Z</time>
      </trkpt>
      <trkpt lat="43.7588" lon="3.91556">
        <ele>233</ele>
        <time>2026-03-27T10:43:31.000Z</time>
      </trkpt>
      <trkpt lat="43.75871" lon="3.91559">
        <ele>232</ele>
        <time>2026-03-27T10:43:50.000Z</time>
      </trkpt>
      <trkpt lat="43.75864" lon="3.91555">
        <ele>231</ele>
        <time>2026-03-27T10:44:01.000Z</time>
      </trkpt>
      <trkpt lat="43.75865" lon="3.91544">
        <ele>230</ele>
        <time>2026-03-27T10:44:33.000Z</time>
      </trkpt>
      <trkpt lat="43.75866" lon="3.91532">
        <ele>229</ele>
        <time>2026-03-27T10:44:49.000Z</time>
      </trkpt>
      <trkpt lat="43.75859" lon="3.91523">
        <ele>229</ele>
        <time>2026-03-27T10:45:09.000Z</time>
      </trkpt>
      <trkpt lat="43.7585" lon="3.91525">
        <ele>228</ele>
        <time>2026-03-27T10:45:22.000Z</time>
      </trkpt>
      <trkpt lat="43.75843" lon="3.91532">
        <ele>228</ele>
        <time>2026-03-27T10:45:41.000Z</time>
      </trkpt>
      <trkpt lat="43.75834" lon="3.91533">
        <ele>228</ele>
        <time>2026-03-27T10:45:50.000Z</time>
      </trkpt>
      <trkpt lat="43.75825" lon="3.91536">
        <ele>228</ele>
        <time>2026-03-27T10:46:00.000Z</time>
      </trkpt>
      <trkpt lat="43.75817" lon="3.91538">
        <ele>228</ele>
        <time>2026-03-27T10:46:12.000Z</time>
      </trkpt>
      <trkpt lat="43.75808" lon="3.91542">
        <ele>228</ele>
        <time>2026-03-27T10:46:23.000Z</time>
      </trkpt>
      <trkpt lat="43.758" lon="3.9154">
        <ele>228</ele>
        <time>2026-03-27T10:46:35.000Z</time>
      </trkpt>
      <trkpt lat="43.75791" lon="3.91539">
        <ele>227</ele>
        <time>2026-03-27T10:46:49.000Z</time>
      </trkpt>
      <trkpt lat="43.75782" lon="3.91536">
        <ele>226</ele>
        <time>2026-03-27T10:46:59.000Z</time>
      </trkpt>
      <trkpt lat="43.75774" lon="3.91537">
        <ele>225</ele>
        <time>2026-03-27T10:47:08.000Z</time>
      </trkpt>
      <trkpt lat="43.75766" lon="3.91543">
        <ele>224</ele>
        <time>2026-03-27T10:47:19.000Z</time>
      </trkpt>
      <trkpt lat="43.75757" lon="3.91547">
        <ele>224</ele>
        <time>2026-03-27T10:47:51.000Z</time>
      </trkpt>
      <trkpt lat="43.75748" lon="3.91553">
        <ele>224</ele>
        <time>2026-03-27T10:49:06.000Z</time>
      </trkpt>
      <trkpt lat="43.75739" lon="3.91565">
        <ele>224</ele>
        <time>2026-03-27T10:49:13.000Z</time>
      </trkpt>
      <trkpt lat="43.75734" lon="3.91577">
        <ele>224</ele>
        <time>2026-03-27T10:49:19.000Z</time>
      </trkpt>
      <trkpt lat="43.75732" lon="3.91591">
        <ele>224</ele>
        <time>2026-03-27T10:49:29.000Z</time>
      </trkpt>
      <trkpt lat="43.75728" lon="3.91604">
        <ele>224</ele>
        <time>2026-03-27T10:49:39.000Z</time>
      </trkpt>
      <trkpt lat="43.75723" lon="3.91615">
        <ele>224</ele>
        <time>2026-03-27T10:49:47.000Z</time>
      </trkpt>
      <trkpt lat="43.7572" lon="3.91626">
        <ele>225</ele>
        <time>2026-03-27T10:49:55.000Z</time>
      </trkpt>
      <trkpt lat="43.75716" lon="3.91637">
        <ele>226</ele>
        <time>2026-03-27T10:50:03.000Z</time>
      </trkpt>
      <trkpt lat="43.75715" lon="3.91651">
        <ele>226</ele>
        <time>2026-03-27T10:50:11.000Z</time>
      </trkpt>
      <trkpt lat="43.75712" lon="3.91664">
        <ele>226</ele>
        <time>2026-03-27T10:50:20.000Z</time>
      </trkpt>
      <trkpt lat="43.75708" lon="3.91675">
        <ele>225</ele>
        <time>2026-03-27T10:50:32.000Z</time>
      </trkpt>
      <trkpt lat="43.75699" lon="3.91676">
        <ele>224</ele>
        <time>2026-03-27T10:50:44.000Z</time>
      </trkpt>
      <trkpt lat="43.75691" lon="3.91673">
        <ele>223</ele>
        <time>2026-03-27T10:50:56.000Z</time>
      </trkpt>
      <trkpt lat="43.75682" lon="3.91672">
        <ele>222</ele>
        <time>2026-03-27T10:51:16.000Z</time>
      </trkpt>
      <trkpt lat="43.75674" lon="3.91674">
        <ele>220</ele>
        <time>2026-03-27T10:51:29.000Z</time>
      </trkpt>
      <trkpt lat="43.75665" lon="3.91673">
        <ele>219</ele>
        <time>2026-03-27T10:51:52.000Z</time>
      </trkpt>
      <trkpt lat="43.75658" lon="3.91667">
        <ele>217</ele>
        <time>2026-03-27T10:52:04.000Z</time>
      </trkpt>
      <trkpt lat="43.75649" lon="3.91662">
        <ele>216</ele>
        <time>2026-03-27T10:52:19.000Z</time>
      </trkpt>
      <trkpt lat="43.75641" lon="3.91655">
        <ele>215</ele>
        <time>2026-03-27T10:52:30.000Z</time>
      </trkpt>
      <trkpt lat="43.75636" lon="3.91645">
        <ele>215</ele>
        <time>2026-03-27T10:52:43.000Z</time>
      </trkpt>
      <trkpt lat="43.7563" lon="3.91638">
        <ele>214</ele>
        <time>2026-03-27T10:52:50.000Z</time>
      </trkpt>
      <trkpt lat="43.75621" lon="3.9164">
        <ele>213</ele>
        <time>2026-03-27T10:55:01.000Z</time>
      </trkpt>
      <trkpt lat="43.75624" lon="3.91627">
        <ele>211</ele>
        <time>2026-03-27T10:55:41.000Z</time>
      </trkpt>
      <trkpt lat="43.75629" lon="3.91615">
        <ele>210</ele>
        <time>2026-03-27T10:55:48.000Z</time>
      </trkpt>
      <trkpt lat="43.75636" lon="3.91607">
        <ele>209</ele>
        <time>2026-03-27T10:55:59.000Z</time>
      </trkpt>
      <trkpt lat="43.75644" lon="3.91599">
        <ele>207</ele>
        <time>2026-03-27T10:56:08.000Z</time>
      </trkpt>
      <trkpt lat="43.7565" lon="3.91588">
        <ele>206</ele>
        <time>2026-03-27T10:56:19.000Z</time>
      </trkpt>
      <trkpt lat="43.75659" lon="3.91581">
        <ele>205</ele>
        <time>2026-03-27T10:56:27.000Z</time>
      </trkpt>
      <trkpt lat="43.75667" lon="3.91573">
        <ele>204</ele>
        <time>2026-03-27T10:56:35.000Z</time>
      </trkpt>
      <trkpt lat="43.75672" lon="3.91561">
        <ele>203</ele>
        <time>2026-03-27T10:56:45.000Z</time>
      </trkpt>
      <trkpt lat="43.75676" lon="3.91549">
        <ele>202</ele>
        <time>2026-03-27T10:56:52.000Z</time>
      </trkpt>
      <trkpt lat="43.7568" lon="3.91537">
        <ele>202</ele>
        <time>2026-03-27T10:57:02.000Z</time>
      </trkpt>
      <trkpt lat="43.75687" lon="3.91528">
        <ele>202</ele>
        <time>2026-03-27T10:57:12.000Z</time>
      </trkpt>
      <trkpt lat="43.75694" lon="3.9152">
        <ele>203</ele>
        <time>2026-03-27T10:57:22.000Z</time>
      </trkpt>
      <trkpt lat="43.757" lon="3.91511">
        <ele>204</ele>
        <time>2026-03-27T10:57:32.000Z</time>
      </trkpt>
      <trkpt lat="43.75706" lon="3.91499">
        <ele>205</ele>
        <time>2026-03-27T10:57:42.000Z</time>
      </trkpt>
      <trkpt lat="43.7571" lon="3.91488">
        <ele>207</ele>
        <time>2026-03-27T10:57:59.000Z</time>
      </trkpt>
      <trkpt lat="43.75713" lon="3.91475">
        <ele>208</ele>
        <time>2026-03-27T10:58:18.000Z</time>
      </trkpt>
      <trkpt lat="43.75719" lon="3.91466">
        <ele>209</ele>
        <time>2026-03-27T10:58:37.000Z</time>
      </trkpt>
      <trkpt lat="43.75726" lon="3.91457">
        <ele>209</ele>
        <time>2026-03-27T10:59:27.000Z</time>
      </trkpt>
      <trkpt lat="43.75727" lon="3.91444">
        <ele>208</ele>
        <time>2026-03-27T10:59:55.000Z</time>
      </trkpt>
      <trkpt lat="43.75729" lon="3.91432">
        <ele>207</ele>
        <time>2026-03-27T11:00:08.000Z</time>
      </trkpt>
      <trkpt lat="43.75734" lon="3.91422">
        <ele>206</ele>
        <time>2026-03-27T11:00:21.000Z</time>
      </trkpt>
      <trkpt lat="43.75739" lon="3.9141">
        <ele>204</ele>
        <time>2026-03-27T11:00:32.000Z</time>
      </trkpt>
      <trkpt lat="43.75744" lon="3.91398">
        <ele>203</ele>
        <time>2026-03-27T11:00:42.000Z</time>
      </trkpt>
      <trkpt lat="43.7575" lon="3.91388">
        <ele>202</ele>
        <time>2026-03-27T11:00:52.000Z</time>
      </trkpt>
      <trkpt lat="43.75754" lon="3.91377">
        <ele>201</ele>
        <time>2026-03-27T11:01:04.000Z</time>
      </trkpt>
      <trkpt lat="43.75755" lon="3.91364">
        <ele>199</ele>
        <time>2026-03-27T11:01:23.000Z</time>
      </trkpt>
      <trkpt lat="43.75758" lon="3.91351">
        <ele>198</ele>
        <time>2026-03-27T11:01:39.000Z</time>
      </trkpt>
      <trkpt lat="43.75761" lon="3.91339">
        <ele>197</ele>
        <time>2026-03-27T11:01:55.000Z</time>
      </trkpt>
      <trkpt lat="43.75769" lon="3.91337">
        <ele>195</ele>
        <time>2026-03-27T11:02:07.000Z</time>
      </trkpt>
      <trkpt lat="43.75778" lon="3.91333">
        <ele>193</ele>
        <time>2026-03-27T11:02:44.000Z</time>
      </trkpt>
      <trkpt lat="43.75782" lon="3.91322">
        <ele>192</ele>
        <time>2026-03-27T11:02:55.000Z</time>
      </trkpt>
      <trkpt lat="43.75782" lon="3.91309">
        <ele>191</ele>
        <time>2026-03-27T11:03:13.000Z</time>
      </trkpt>
      <trkpt lat="43.7578" lon="3.91297">
        <ele>190</ele>
        <time>2026-03-27T11:03:24.000Z</time>
      </trkpt>
      <trkpt lat="43.75779" lon="3.91284">
        <ele>190</ele>
        <time>2026-03-27T11:03:39.000Z</time>
      </trkpt>
      <trkpt lat="43.75783" lon="3.91274">
        <ele>189</ele>
        <time>2026-03-27T11:04:14.000Z</time>
      </trkpt>
      <trkpt lat="43.75791" lon="3.91268">
        <ele>189</ele>
        <time>2026-03-27T11:04:24.000Z</time>
      </trkpt>
      <trkpt lat="43.758" lon="3.91264">
        <ele>188</ele>
        <time>2026-03-27T11:04:39.000Z</time>
      </trkpt>
      <trkpt lat="43.7581" lon="3.91259">
        <ele>188</ele>
        <time>2026-03-27T11:04:49.000Z</time>
      </trkpt>
      <trkpt lat="43.75818" lon="3.91255">
        <ele>187</ele>
        <time>2026-03-27T11:04:59.000Z</time>
      </trkpt>
      <trkpt lat="43.75828" lon="3.91253">
        <ele>186</ele>
        <time>2026-03-27T11:05:09.000Z</time>
      </trkpt>
      <trkpt lat="43.75839" lon="3.91252">
        <ele>185</ele>
        <time>2026-03-27T11:05:17.000Z</time>
      </trkpt>
      <trkpt lat="43.75849" lon="3.91256">
        <ele>184</ele>
        <time>2026-03-27T11:05:25.000Z</time>
      </trkpt>
      <trkpt lat="43.75857" lon="3.91257">
        <ele>183</ele>
        <time>2026-03-27T11:05:55.000Z</time>
      </trkpt>
      <trkpt lat="43.7586" lon="3.91246">
        <ele>182</ele>
        <time>2026-03-27T11:06:27.000Z</time>
      </trkpt>
      <trkpt lat="43.7586" lon="3.91231">
        <ele>181</ele>
        <time>2026-03-27T11:06:43.000Z</time>
      </trkpt>
      <trkpt lat="43.75861" lon="3.91217">
        <ele>180</ele>
        <time>2026-03-27T11:06:52.000Z</time>
      </trkpt>
      <trkpt lat="43.7586" lon="3.91203">
        <ele>180</ele>
        <time>2026-03-27T11:07:01.000Z</time>
      </trkpt>
      <trkpt lat="43.75862" lon="3.91189">
        <ele>179</ele>
        <time>2026-03-27T11:07:10.000Z</time>
      </trkpt>
      <trkpt lat="43.75862" lon="3.91175">
        <ele>179</ele>
        <time>2026-03-27T11:07:20.000Z</time>
      </trkpt>
      <trkpt lat="43.75863" lon="3.91161">
        <ele>179</ele>
        <time>2026-03-27T11:07:30.000Z</time>
      </trkpt>
      <trkpt lat="43.75865" lon="3.91147">
        <ele>179</ele>
        <time>2026-03-27T11:07:39.000Z</time>
      </trkpt>
      <trkpt lat="43.75867" lon="3.91134">
        <ele>179</ele>
        <time>2026-03-27T11:07:49.000Z</time>
      </trkpt>
      <trkpt lat="43.75866" lon="3.91121">
        <ele>179</ele>
        <time>2026-03-27T11:07:59.000Z</time>
      </trkpt>
      <trkpt lat="43.75867" lon="3.91109">
        <ele>178</ele>
        <time>2026-03-27T11:08:06.000Z</time>
      </trkpt>
      <trkpt lat="43.75867" lon="3.91097">
        <ele>177</ele>
        <time>2026-03-27T11:08:17.000Z</time>
      </trkpt>
      <trkpt lat="43.7587" lon="3.91082">
        <ele>177</ele>
        <time>2026-03-27T11:08:27.000Z</time>
      </trkpt>
      <trkpt lat="43.7587" lon="3.9107">
        <ele>177</ele>
        <time>2026-03-27T11:08:37.000Z</time>
      </trkpt>
      <trkpt lat="43.75869" lon="3.91057">
        <ele>177</ele>
        <time>2026-03-27T11:08:47.000Z</time>
      </trkpt>
      <trkpt lat="43.75869" lon="3.91043">
        <ele>177</ele>
        <time>2026-03-27T11:08:57.000Z</time>
      </trkpt>
      <trkpt lat="43.7587" lon="3.91029">
        <ele>178</ele>
        <time>2026-03-27T11:09:06.000Z</time>
      </trkpt>
      <trkpt lat="43.7587" lon="3.91016">
        <ele>178</ele>
        <time>2026-03-27T11:09:13.000Z</time>
      </trkpt>
      <trkpt lat="43.7587" lon="3.91002">
        <ele>178</ele>
        <time>2026-03-27T11:10:02.000Z</time>
      </trkpt>
      <trkpt lat="43.75871" lon="3.90989">
        <ele>179</ele>
        <time>2026-03-27T11:10:08.000Z</time>
      </trkpt>
      <trkpt lat="43.75872" lon="3.90975">
        <ele>179</ele>
        <time>2026-03-27T11:10:17.000Z</time>
      </trkpt>
      <trkpt lat="43.75873" lon="3.90963">
        <ele>178</ele>
        <time>2026-03-27T11:10:27.000Z</time>
      </trkpt>
      <trkpt lat="43.75872" lon="3.90951">
        <ele>178</ele>
        <time>2026-03-27T11:10:35.000Z</time>
      </trkpt>
      <trkpt lat="43.75873" lon="3.90939">
        <ele>177</ele>
        <time>2026-03-27T11:10:43.000Z</time>
      </trkpt>
      <trkpt lat="43.75876" lon="3.90925">
        <ele>176</ele>
        <time>2026-03-27T11:10:51.000Z</time>
      </trkpt>
      <trkpt lat="43.75877" lon="3.9091">
        <ele>176</ele>
        <time>2026-03-27T11:11:04.000Z</time>
      </trkpt>
      <trkpt lat="43.7588" lon="3.90897">
        <ele>175</ele>
        <time>2026-03-27T11:11:10.000Z</time>
      </trkpt>
      <trkpt lat="43.75882" lon="3.90884">
        <ele>174</ele>
        <time>2026-03-27T11:11:19.000Z</time>
      </trkpt>
      <trkpt lat="43.75881" lon="3.90871">
        <ele>174</ele>
        <time>2026-03-27T11:11:24.000Z</time>
      </trkpt>
      <trkpt lat="43.7588" lon="3.90859">
        <ele>174</ele>
        <time>2026-03-27T11:11:32.000Z</time>
      </trkpt>
      <trkpt lat="43.75879" lon="3.90847">
        <ele>173</ele>
        <time>2026-03-27T11:11:41.000Z</time>
      </trkpt>
      <trkpt lat="43.7588" lon="3.90834">
        <ele>174</ele>
        <time>2026-03-27T11:11:51.000Z</time>
      </trkpt>
      <trkpt lat="43.75881" lon="3.90821">
        <ele>174</ele>
        <time>2026-03-27T11:11:59.000Z</time>
      </trkpt>
      <trkpt lat="43.75881" lon="3.90809">
        <ele>174</ele>
        <time>2026-03-27T11:12:04.000Z</time>
      </trkpt>
      <trkpt lat="43.75881" lon="3.90794">
        <ele>175</ele>
        <time>2026-03-27T11:12:15.000Z</time>
      </trkpt>
      <trkpt lat="43.75885" lon="3.90782">
        <ele>176</ele>
        <time>2026-03-27T11:12:22.000Z</time>
      </trkpt>
      <trkpt lat="43.75886" lon="3.9077">
        <ele>177</ele>
        <time>2026-03-27T11:12:33.000Z</time>
      </trkpt>
      <trkpt lat="43.75883" lon="3.90755">
        <ele>177</ele>
        <time>2026-03-27T11:12:55.000Z</time>
      </trkpt>
      <trkpt lat="43.7588" lon="3.90742">
        <ele>178</ele>
        <time>2026-03-27T11:13:01.000Z</time>
      </trkpt>
      <trkpt lat="43.75878" lon="3.90731">
        <ele>178</ele>
        <time>2026-03-27T11:13:11.000Z</time>
      </trkpt>
      <trkpt lat="43.75877" lon="3.90717">
        <ele>179</ele>
        <time>2026-03-27T11:13:34.000Z</time>
      </trkpt>
      <trkpt lat="43.75874" lon="3.90704">
        <ele>179</ele>
        <time>2026-03-27T11:13:43.000Z</time>
      </trkpt>
      <trkpt lat="43.7587" lon="3.90692">
        <ele>180</ele>
        <time>2026-03-27T11:13:54.000Z</time>
      </trkpt>
      <trkpt lat="43.75865" lon="3.9068">
        <ele>181</ele>
        <time>2026-03-27T11:14:04.000Z</time>
      </trkpt>
      <trkpt lat="43.75861" lon="3.90667">
        <ele>181</ele>
        <time>2026-03-27T11:14:12.000Z</time>
      </trkpt>
      <trkpt lat="43.75857" lon="3.90655">
        <ele>181</ele>
        <time>2026-03-27T11:14:21.000Z</time>
      </trkpt>
      <trkpt lat="43.75852" lon="3.90644">
        <ele>181</ele>
        <time>2026-03-27T11:14:30.000Z</time>
      </trkpt>
      <trkpt lat="43.75847" lon="3.90632">
        <ele>180</ele>
        <time>2026-03-27T11:14:40.000Z</time>
      </trkpt>
      <trkpt lat="43.7584" lon="3.90623">
        <ele>181</ele>
        <time>2026-03-27T11:14:47.000Z</time>
      </trkpt>
      <trkpt lat="43.75838" lon="3.90612">
        <ele>182</ele>
        <time>2026-03-27T11:14:55.000Z</time>
      </trkpt>
      <trkpt lat="43.75842" lon="3.90598">
        <ele>183</ele>
        <time>2026-03-27T11:15:03.000Z</time>
      </trkpt>
      <trkpt lat="43.75846" lon="3.90586">
        <ele>184</ele>
        <time>2026-03-27T11:15:10.000Z</time>
      </trkpt>
      <trkpt lat="43.75845" lon="3.90572">
        <ele>185</ele>
        <time>2026-03-27T11:15:19.000Z</time>
      </trkpt>
      <trkpt lat="43.75841" lon="3.9056">
        <ele>186</ele>
        <time>2026-03-27T11:15:30.000Z</time>
      </trkpt>
      <trkpt lat="43.75836" lon="3.90548">
        <ele>186</ele>
        <time>2026-03-27T11:15:42.000Z</time>
      </trkpt>
      <trkpt lat="43.75833" lon="3.90536">
        <ele>187</ele>
        <time>2026-03-27T11:15:50.000Z</time>
      </trkpt>
      <trkpt lat="43.75829" lon="3.90524">
        <ele>187</ele>
        <time>2026-03-27T11:16:01.000Z</time>
      </trkpt>
      <trkpt lat="43.75823" lon="3.90515">
        <ele>187</ele>
        <time>2026-03-27T11:16:09.000Z</time>
      </trkpt>
      <trkpt lat="43.75816" lon="3.90506">
        <ele>187</ele>
        <time>2026-03-27T11:16:16.000Z</time>
      </trkpt>
      <trkpt lat="43.75812" lon="3.90495">
        <ele>188</ele>
        <time>2026-03-27T11:16:32.000Z</time>
      </trkpt>
      <trkpt lat="43.75807" lon="3.90483">
        <ele>188</ele>
        <time>2026-03-27T11:16:42.000Z</time>
      </trkpt>
      <trkpt lat="43.75803" lon="3.9047">
        <ele>188</ele>
        <time>2026-03-27T11:16:55.000Z</time>
      </trkpt>
      <trkpt lat="43.75799" lon="3.90458">
        <ele>188</ele>
        <time>2026-03-27T11:17:03.000Z</time>
      </trkpt>
      <trkpt lat="43.75792" lon="3.90448">
        <ele>188</ele>
        <time>2026-03-27T11:17:11.000Z</time>
      </trkpt>
      <trkpt lat="43.75785" lon="3.90441">
        <ele>188</ele>
        <time>2026-03-27T11:17:18.000Z</time>
      </trkpt>
      <trkpt lat="43.75777" lon="3.90437">
        <ele>188</ele>
        <time>2026-03-27T11:17:26.000Z</time>
      </trkpt>
      <trkpt lat="43.75769" lon="3.9043">
        <ele>188</ele>
        <time>2026-03-27T11:17:35.000Z</time>
      </trkpt>
      <trkpt lat="43.75761" lon="3.90422">
        <ele>188</ele>
        <time>2026-03-27T11:17:43.000Z</time>
      </trkpt>
      <trkpt lat="43.75755" lon="3.90412">
        <ele>188</ele>
        <time>2026-03-27T11:17:51.000Z</time>
      </trkpt>
      <trkpt lat="43.75753" lon="3.90398">
        <ele>188</ele>
        <time>2026-03-27T11:18:03.000Z</time>
      </trkpt>
      <trkpt lat="43.75751" lon="3.90387">
        <ele>187</ele>
        <time>2026-03-27T11:18:21.000Z</time>
      </trkpt>
      <trkpt lat="43.75754" lon="3.90376">
        <ele>187</ele>
        <time>2026-03-27T11:18:39.000Z</time>
      </trkpt>
      <trkpt lat="43.7576" lon="3.90367">
        <ele>186</ele>
        <time>2026-03-27T11:18:47.000Z</time>
      </trkpt>
      <trkpt lat="43.75766" lon="3.90357">
        <ele>186</ele>
        <time>2026-03-27T11:18:55.000Z</time>
      </trkpt>
      <trkpt lat="43.75774" lon="3.90349">
        <ele>187</ele>
        <time>2026-03-27T11:19:02.000Z</time>
      </trkpt>
      <trkpt lat="43.75781" lon="3.90338">
        <ele>188</ele>
        <time>2026-03-27T11:19:11.000Z</time>
      </trkpt>
      <trkpt lat="43.75788" lon="3.90329">
        <ele>189</ele>
        <time>2026-03-27T11:19:21.000Z</time>
      </trkpt>
      <trkpt lat="43.75791" lon="3.90317">
        <ele>190</ele>
        <time>2026-03-27T11:19:35.000Z</time>
      </trkpt>
      <trkpt lat="43.75787" lon="3.90306">
        <ele>191</ele>
        <time>2026-03-27T11:19:45.000Z</time>
      </trkpt>
      <trkpt lat="43.75783" lon="3.90294">
        <ele>192</ele>
        <time>2026-03-27T11:19:54.000Z</time>
      </trkpt>
      <trkpt lat="43.75781" lon="3.90281">
        <ele>193</ele>
        <time>2026-03-27T11:20:04.000Z</time>
      </trkpt>
      <trkpt lat="43.75777" lon="3.9027">
        <ele>193</ele>
        <time>2026-03-27T11:20:15.000Z</time>
      </trkpt>
      <trkpt lat="43.75771" lon="3.90259">
        <ele>194</ele>
        <time>2026-03-27T11:20:24.000Z</time>
      </trkpt>
      <trkpt lat="43.75767" lon="3.90247">
        <ele>194</ele>
        <time>2026-03-27T11:20:32.000Z</time>
      </trkpt>
      <trkpt lat="43.75767" lon="3.90233">
        <ele>195</ele>
        <time>2026-03-27T11:20:43.000Z</time>
      </trkpt>
      <trkpt lat="43.75773" lon="3.90223">
        <ele>195</ele>
        <time>2026-03-27T11:20:53.000Z</time>
      </trkpt>
      <trkpt lat="43.75782" lon="3.90218">
        <ele>196</ele>
        <time>2026-03-27T11:21:05.000Z</time>
      </trkpt>
      <trkpt lat="43.75789" lon="3.90211">
        <ele>196</ele>
        <time>2026-03-27T11:21:15.000Z</time>
      </trkpt>
      <trkpt lat="43.75795" lon="3.90201">
        <ele>197</ele>
        <time>2026-03-27T11:21:24.000Z</time>
      </trkpt>
      <trkpt lat="43.75799" lon="3.90189">
        <ele>197</ele>
        <time>2026-03-27T11:21:34.000Z</time>
      </trkpt>
      <trkpt lat="43.758" lon="3.90177">
        <ele>198</ele>
        <time>2026-03-27T11:21:43.000Z</time>
      </trkpt>
      <trkpt lat="43.75804" lon="3.90165">
        <ele>200</ele>
        <time>2026-03-27T11:21:55.000Z</time>
      </trkpt>
      <trkpt lat="43.75809" lon="3.90155">
        <ele>201</ele>
        <time>2026-03-27T11:22:05.000Z</time>
      </trkpt>
      <trkpt lat="43.75806" lon="3.90144">
        <ele>203</ele>
        <time>2026-03-27T11:22:37.000Z</time>
      </trkpt>
      <trkpt lat="43.75798" lon="3.90136">
        <ele>204</ele>
        <time>2026-03-27T11:22:44.000Z</time>
      </trkpt>
      <trkpt lat="43.75789" lon="3.90132">
        <ele>205</ele>
        <time>2026-03-27T11:22:57.000Z</time>
      </trkpt>
      <trkpt lat="43.75779" lon="3.90132">
        <ele>205</ele>
        <time>2026-03-27T11:23:05.000Z</time>
      </trkpt>
      <trkpt lat="43.75771" lon="3.90134">
        <ele>205</ele>
        <time>2026-03-27T11:23:12.000Z</time>
      </trkpt>
      <trkpt lat="43.75761" lon="3.90135">
        <ele>206</ele>
        <time>2026-03-27T11:23:23.000Z</time>
      </trkpt>
      <trkpt lat="43.75752" lon="3.90134">
        <ele>206</ele>
        <time>2026-03-27T11:23:33.000Z</time>
      </trkpt>
      <trkpt lat="43.75743" lon="3.90129">
        <ele>206</ele>
        <time>2026-03-27T11:23:43.000Z</time>
      </trkpt>
      <trkpt lat="43.75734" lon="3.90124">
        <ele>207</ele>
        <time>2026-03-27T11:23:55.000Z</time>
      </trkpt>
      <trkpt lat="43.75725" lon="3.90122">
        <ele>207</ele>
        <time>2026-03-27T11:24:05.000Z</time>
      </trkpt>
      <trkpt lat="43.75715" lon="3.90121">
        <ele>207</ele>
        <time>2026-03-27T11:24:14.000Z</time>
      </trkpt>
      <trkpt lat="43.75705" lon="3.90119">
        <ele>208</ele>
        <time>2026-03-27T11:24:29.000Z</time>
      </trkpt>
      <trkpt lat="43.75696" lon="3.90117">
        <ele>209</ele>
        <time>2026-03-27T11:24:40.000Z</time>
      </trkpt>
      <trkpt lat="43.75687" lon="3.90115">
        <ele>209</ele>
        <time>2026-03-27T11:24:48.000Z</time>
      </trkpt>
      <trkpt lat="43.75679" lon="3.90116">
        <ele>210</ele>
        <time>2026-03-27T11:24:55.000Z</time>
      </trkpt>
      <trkpt lat="43.75669" lon="3.90115">
        <ele>212</ele>
        <time>2026-03-27T11:25:04.000Z</time>
      </trkpt>
      <trkpt lat="43.75661" lon="3.90112">
        <ele>214</ele>
        <time>2026-03-27T11:25:13.000Z</time>
      </trkpt>
      <trkpt lat="43.75661" lon="3.90103">
        <ele>216</ele>
        <time>2026-03-27T11:25:43.000Z</time>
      </trkpt>
      <trkpt lat="43.75671" lon="3.901">
        <ele>218</ele>
        <time>2026-03-27T11:25:56.000Z</time>
      </trkpt>
      <trkpt lat="43.75681" lon="3.90097">
        <ele>220</ele>
        <time>2026-03-27T11:26:12.000Z</time>
      </trkpt>
      <trkpt lat="43.75691" lon="3.90097">
        <ele>222</ele>
        <time>2026-03-27T11:26:23.000Z</time>
      </trkpt>
      <trkpt lat="43.757" lon="3.90095">
        <ele>223</ele>
        <time>2026-03-27T11:26:37.000Z</time>
      </trkpt>
      <trkpt lat="43.7571" lon="3.90089">
        <ele>223</ele>
        <time>2026-03-27T11:26:44.000Z</time>
      </trkpt>
      <trkpt lat="43.75718" lon="3.90082">
        <ele>222</ele>
        <time>2026-03-27T11:26:55.000Z</time>
      </trkpt>
      <trkpt lat="43.75727" lon="3.90076">
        <ele>221</ele>
        <time>2026-03-27T11:27:04.000Z</time>
      </trkpt>
      <trkpt lat="43.75736" lon="3.90069">
        <ele>220</ele>
        <time>2026-03-27T11:27:14.000Z</time>
      </trkpt>
      <trkpt lat="43.75743" lon="3.90062">
        <ele>220</ele>
        <time>2026-03-27T11:27:25.000Z</time>
      </trkpt>
      <trkpt lat="43.75751" lon="3.90054">
        <ele>220</ele>
        <time>2026-03-27T11:27:33.000Z</time>
      </trkpt>
      <trkpt lat="43.75759" lon="3.90048">
        <ele>221</ele>
        <time>2026-03-27T11:27:40.000Z</time>
      </trkpt>
      <trkpt lat="43.75767" lon="3.90041">
        <ele>222</ele>
        <time>2026-03-27T11:27:48.000Z</time>
      </trkpt>
      <trkpt lat="43.75776" lon="3.90034">
        <ele>223</ele>
        <time>2026-03-27T11:28:00.000Z</time>
      </trkpt>
      <trkpt lat="43.75783" lon="3.90025">
        <ele>223</ele>
        <time>2026-03-27T11:28:14.000Z</time>
      </trkpt>
      <trkpt lat="43.7579" lon="3.90018">
        <ele>224</ele>
        <time>2026-03-27T11:28:22.000Z</time>
      </trkpt>
      <trkpt lat="43.75801" lon="3.90011">
        <ele>225</ele>
        <time>2026-03-27T11:28:31.000Z</time>
      </trkpt>
      <trkpt lat="43.75809" lon="3.90002">
        <ele>226</ele>
        <time>2026-03-27T11:28:41.000Z</time>
      </trkpt>
      <trkpt lat="43.75817" lon="3.89994">
        <ele>227</ele>
        <time>2026-03-27T11:28:53.000Z</time>
      </trkpt>
      <trkpt lat="43.75824" lon="3.89984">
        <ele>228</ele>
        <time>2026-03-27T11:29:03.000Z</time>
      </trkpt>
      <trkpt lat="43.75831" lon="3.89974">
        <ele>229</ele>
        <time>2026-03-27T11:29:13.000Z</time>
      </trkpt>
      <trkpt lat="43.75836" lon="3.89963">
        <ele>229</ele>
        <time>2026-03-27T11:29:23.000Z</time>
      </trkpt>
      <trkpt lat="43.7584" lon="3.8995">
        <ele>230</ele>
        <time>2026-03-27T11:29:33.000Z</time>
      </trkpt>
      <trkpt lat="43.75845" lon="3.89938">
        <ele>230</ele>
        <time>2026-03-27T11:29:41.000Z</time>
      </trkpt>
      <trkpt lat="43.7585" lon="3.89927">
        <ele>231</ele>
        <time>2026-03-27T11:29:51.000Z</time>
      </trkpt>
      <trkpt lat="43.75853" lon="3.89914">
        <ele>231</ele>
        <time>2026-03-27T11:29:59.000Z</time>
      </trkpt>
      <trkpt lat="43.75858" lon="3.89901">
        <ele>232</ele>
        <time>2026-03-27T11:30:06.000Z</time>
      </trkpt>
      <trkpt lat="43.75861" lon="3.89888">
        <ele>232</ele>
        <time>2026-03-27T11:30:16.000Z</time>
      </trkpt>
      <trkpt lat="43.75864" lon="3.89876">
        <ele>232</ele>
        <time>2026-03-27T11:30:26.000Z</time>
      </trkpt>
      <trkpt lat="43.7587" lon="3.89865">
        <ele>231</ele>
        <time>2026-03-27T11:31:09.000Z</time>
      </trkpt>
      <trkpt lat="43.75877" lon="3.89857">
        <ele>229</ele>
        <time>2026-03-27T11:31:19.000Z</time>
      </trkpt>
      <trkpt lat="43.75886" lon="3.89852">
        <ele>228</ele>
        <time>2026-03-27T11:31:29.000Z</time>
      </trkpt>
      <trkpt lat="43.75895" lon="3.89847">
        <ele>226</ele>
        <time>2026-03-27T11:31:39.000Z</time>
      </trkpt>
      <trkpt lat="43.75904" lon="3.89845">
        <ele>225</ele>
        <time>2026-03-27T11:31:49.000Z</time>
      </trkpt>
      <trkpt lat="43.75912" lon="3.89841">
        <ele>224</ele>
        <time>2026-03-27T11:31:56.000Z</time>
      </trkpt>
      <trkpt lat="43.75921" lon="3.89836">
        <ele>223</ele>
        <time>2026-03-27T11:32:06.000Z</time>
      </trkpt>
      <trkpt lat="43.75931" lon="3.8983">
        <ele>223</ele>
        <time>2026-03-27T11:32:16.000Z</time>
      </trkpt>
      <trkpt lat="43.75938" lon="3.89824">
        <ele>223</ele>
        <time>2026-03-27T11:32:25.000Z</time>
      </trkpt>
      <trkpt lat="43.75947" lon="3.89818">
        <ele>223</ele>
        <time>2026-03-27T11:32:33.000Z</time>
      </trkpt>
      <trkpt lat="43.75954" lon="3.89811">
        <ele>223</ele>
        <time>2026-03-27T11:32:41.000Z</time>
      </trkpt>
      <trkpt lat="43.75955" lon="3.89799">
        <ele>224</ele>
        <time>2026-03-27T11:32:51.000Z</time>
      </trkpt>
      <trkpt lat="43.75949" lon="3.89789">
        <ele>224</ele>
        <time>2026-03-27T11:32:59.000Z</time>
      </trkpt>
      <trkpt lat="43.75944" lon="3.89779">
        <ele>224</ele>
        <time>2026-03-27T11:33:07.000Z</time>
      </trkpt>
      <trkpt lat="43.75937" lon="3.89771">
        <ele>224</ele>
        <time>2026-03-27T11:33:21.000Z</time>
      </trkpt>
      <trkpt lat="43.75932" lon="3.8976">
        <ele>224</ele>
        <time>2026-03-27T11:33:29.000Z</time>
      </trkpt>
      <trkpt lat="43.75925" lon="3.8975">
        <ele>224</ele>
        <time>2026-03-27T11:33:37.000Z</time>
      </trkpt>
      <trkpt lat="43.7592" lon="3.89739">
        <ele>224</ele>
        <time>2026-03-27T11:33:44.000Z</time>
      </trkpt>
      <trkpt lat="43.75916" lon="3.89726">
        <ele>223</ele>
        <time>2026-03-27T11:33:53.000Z</time>
      </trkpt>
      <trkpt lat="43.75912" lon="3.89713">
        <ele>223</ele>
        <time>2026-03-27T11:34:03.000Z</time>
      </trkpt>
      <trkpt lat="43.75908" lon="3.897">
        <ele>223</ele>
        <time>2026-03-27T11:34:10.000Z</time>
      </trkpt>
      <trkpt lat="43.75902" lon="3.89688">
        <ele>223</ele>
        <time>2026-03-27T11:34:18.000Z</time>
      </trkpt>
      <trkpt lat="43.75896" lon="3.89679">
        <ele>223</ele>
        <time>2026-03-27T11:34:27.000Z</time>
      </trkpt>
      <trkpt lat="43.75894" lon="3.89667">
        <ele>223</ele>
        <time>2026-03-27T11:34:34.000Z</time>
      </trkpt>
      <trkpt lat="43.75892" lon="3.89654">
        <ele>223</ele>
        <time>2026-03-27T11:34:45.000Z</time>
      </trkpt>
      <trkpt lat="43.75886" lon="3.89642">
        <ele>222</ele>
        <time>2026-03-27T11:34:52.000Z</time>
      </trkpt>
      <trkpt lat="43.75879" lon="3.89631">
        <ele>222</ele>
        <time>2026-03-27T11:35:00.000Z</time>
      </trkpt>
      <trkpt lat="43.75873" lon="3.89622">
        <ele>221</ele>
        <time>2026-03-27T11:35:09.000Z</time>
      </trkpt>
      <trkpt lat="43.75866" lon="3.89615">
        <ele>221</ele>
        <time>2026-03-27T11:35:18.000Z</time>
      </trkpt>
      <trkpt lat="43.75856" lon="3.89613">
        <ele>221</ele>
        <time>2026-03-27T11:35:27.000Z</time>
      </trkpt>
      <trkpt lat="43.75847" lon="3.8961">
        <ele>222</ele>
        <time>2026-03-27T11:35:35.000Z</time>
      </trkpt>
      <trkpt lat="43.75838" lon="3.89607">
        <ele>224</ele>
        <time>2026-03-27T11:35:44.000Z</time>
      </trkpt>
      <trkpt lat="43.75831" lon="3.89599">
        <ele>225</ele>
        <time>2026-03-27T11:35:55.000Z</time>
      </trkpt>
      <trkpt lat="43.75826" lon="3.89588">
        <ele>226</ele>
        <time>2026-03-27T11:36:04.000Z</time>
      </trkpt>
      <trkpt lat="43.75824" lon="3.89577">
        <ele>227</ele>
        <time>2026-03-27T11:36:13.000Z</time>
      </trkpt>
      <trkpt lat="43.75824" lon="3.89563">
        <ele>228</ele>
        <time>2026-03-27T11:36:21.000Z</time>
      </trkpt>
      <trkpt lat="43.75823" lon="3.89551">
        <ele>228</ele>
        <time>2026-03-27T11:36:30.000Z</time>
      </trkpt>
      <trkpt lat="43.75823" lon="3.89537">
        <ele>228</ele>
        <time>2026-03-27T11:36:40.000Z</time>
      </trkpt>
      <trkpt lat="43.75828" lon="3.89526">
        <ele>228</ele>
        <time>2026-03-27T11:36:49.000Z</time>
      </trkpt>
      <trkpt lat="43.75835" lon="3.89519">
        <ele>227</ele>
        <time>2026-03-27T11:36:58.000Z</time>
      </trkpt>
      <trkpt lat="43.75843" lon="3.8951">
        <ele>227</ele>
        <time>2026-03-27T11:37:13.000Z</time>
      </trkpt>
      <trkpt lat="43.75851" lon="3.89503">
        <ele>227</ele>
        <time>2026-03-27T11:37:20.000Z</time>
      </trkpt>
      <trkpt lat="43.75859" lon="3.89496">
        <ele>227</ele>
        <time>2026-03-27T11:37:29.000Z</time>
      </trkpt>
      <trkpt lat="43.75867" lon="3.89487">
        <ele>227</ele>
        <time>2026-03-27T11:37:39.000Z</time>
      </trkpt>
      <trkpt lat="43.75873" lon="3.89479">
        <ele>226</ele>
        <time>2026-03-27T11:37:49.000Z</time>
      </trkpt>
      <trkpt lat="43.75881" lon="3.89469">
        <ele>226</ele>
        <time>2026-03-27T11:37:56.000Z</time>
      </trkpt>
      <trkpt lat="43.75888" lon="3.89462">
        <ele>225</ele>
        <time>2026-03-27T11:38:07.000Z</time>
      </trkpt>
      <trkpt lat="43.75894" lon="3.89453">
        <ele>225</ele>
        <time>2026-03-27T11:38:15.000Z</time>
      </trkpt>
      <trkpt lat="43.75898" lon="3.89441">
        <ele>224</ele>
        <time>2026-03-27T11:38:25.000Z</time>
      </trkpt>
      <trkpt lat="43.75903" lon="3.89428">
        <ele>223</ele>
        <time>2026-03-27T11:38:34.000Z</time>
      </trkpt>
      <trkpt lat="43.75908" lon="3.89415">
        <ele>223</ele>
        <time>2026-03-27T11:38:43.000Z</time>
      </trkpt>
      <trkpt lat="43.75912" lon="3.89402">
        <ele>222</ele>
        <time>2026-03-27T11:38:55.000Z</time>
      </trkpt>
      <trkpt lat="43.75916" lon="3.89389">
        <ele>222</ele>
        <time>2026-03-27T11:39:05.000Z</time>
      </trkpt>
      <trkpt lat="43.75921" lon="3.89375">
        <ele>222</ele>
        <time>2026-03-27T11:39:15.000Z</time>
      </trkpt>
      <trkpt lat="43.75927" lon="3.8936">
        <ele>222</ele>
        <time>2026-03-27T11:39:25.000Z</time>
      </trkpt>
      <trkpt lat="43.75935" lon="3.89339">
        <ele>222</ele>
        <time>2026-03-27T11:39:48.000Z</time>
      </trkpt>
      <trkpt lat="43.75938" lon="3.89325">
        <ele>222</ele>
        <time>2026-03-27T11:40:02.000Z</time>
      </trkpt>
      <trkpt lat="43.75944" lon="3.89314">
        <ele>221</ele>
        <time>2026-03-27T11:40:07.000Z</time>
      </trkpt>
      <trkpt lat="43.75951" lon="3.89304">
        <ele>220</ele>
        <time>2026-03-27T11:40:18.000Z</time>
      </trkpt>
      <trkpt lat="43.75957" lon="3.89293">
        <ele>219</ele>
        <time>2026-03-27T11:40:27.000Z</time>
      </trkpt>
      <trkpt lat="43.75962" lon="3.89281">
        <ele>218</ele>
        <time>2026-03-27T11:40:36.000Z</time>
      </trkpt>
      <trkpt lat="43.75968" lon="3.89269">
        <ele>217</ele>
        <time>2026-03-27T11:40:46.000Z</time>
      </trkpt>
      <trkpt lat="43.75973" lon="3.89258">
        <ele>217</ele>
        <time>2026-03-27T11:40:56.000Z</time>
      </trkpt>
      <trkpt lat="43.7598" lon="3.89249">
        <ele>216</ele>
        <time>2026-03-27T11:41:06.000Z</time>
      </trkpt>
      <trkpt lat="43.75987" lon="3.8924">
        <ele>214</ele>
        <time>2026-03-27T11:41:16.000Z</time>
      </trkpt>
      <trkpt lat="43.75994" lon="3.89232">
        <ele>213</ele>
        <time>2026-03-27T11:41:23.000Z</time>
      </trkpt>
      <trkpt lat="43.76" lon="3.89222">
        <ele>212</ele>
        <time>2026-03-27T11:41:32.000Z</time>
      </trkpt>
      <trkpt lat="43.76006" lon="3.89212">
        <ele>211</ele>
        <time>2026-03-27T11:41:42.000Z</time>
      </trkpt>
      <trkpt lat="43.76011" lon="3.89202">
        <ele>210</ele>
        <time>2026-03-27T11:41:52.000Z</time>
      </trkpt>
      <trkpt lat="43.76016" lon="3.89192">
        <ele>210</ele>
        <time>2026-03-27T11:41:59.000Z</time>
      </trkpt>
      <trkpt lat="43.76023" lon="3.89181">
        <ele>208</ele>
        <time>2026-03-27T11:42:09.000Z</time>
      </trkpt>
      <trkpt lat="43.76029" lon="3.8917">
        <ele>207</ele>
        <time>2026-03-27T11:42:18.000Z</time>
      </trkpt>
      <trkpt lat="43.76034" lon="3.89159">
        <ele>205</ele>
        <time>2026-03-27T11:42:28.000Z</time>
      </trkpt>
      <trkpt lat="43.76039" lon="3.89147">
        <ele>204</ele>
        <time>2026-03-27T11:42:35.000Z</time>
      </trkpt>
      <trkpt lat="43.76042" lon="3.89135">
        <ele>203</ele>
        <time>2026-03-27T11:42:44.000Z</time>
      </trkpt>
      <trkpt lat="43.76046" lon="3.89123">
        <ele>203</ele>
        <time>2026-03-27T11:42:54.000Z</time>
      </trkpt>
      <trkpt lat="43.76043" lon="3.8911">
        <ele>202</ele>
        <time>2026-03-27T11:43:06.000Z</time>
      </trkpt>
      <trkpt lat="43.76036" lon="3.89101">
        <ele>200</ele>
        <time>2026-03-27T11:43:14.000Z</time>
      </trkpt>
      <trkpt lat="43.76029" lon="3.89095">
        <ele>199</ele>
        <time>2026-03-27T11:43:21.000Z</time>
      </trkpt>
      <trkpt lat="43.76022" lon="3.89087">
        <ele>197</ele>
        <time>2026-03-27T11:43:30.000Z</time>
      </trkpt>
      <trkpt lat="43.76013" lon="3.89081">
        <ele>196</ele>
        <time>2026-03-27T11:43:42.000Z</time>
      </trkpt>
      <trkpt lat="43.76003" lon="3.89079">
        <ele>195</ele>
        <time>2026-03-27T11:43:52.000Z</time>
      </trkpt>
      <trkpt lat="43.75994" lon="3.89073">
        <ele>194</ele>
        <time>2026-03-27T11:44:01.000Z</time>
      </trkpt>
      <trkpt lat="43.75987" lon="3.89064">
        <ele>193</ele>
        <time>2026-03-27T11:44:08.000Z</time>
      </trkpt>
      <trkpt lat="43.75982" lon="3.89059">
        <ele>192</ele>
        <time>2026-03-27T11:44:17.000Z</time>
      </trkpt>
      <trkpt lat="43.75987" lon="3.89059">
        <ele>191</ele>
        <time>2026-03-27T11:44:42.000Z</time>
      </trkpt>
      <trkpt lat="43.75988" lon="3.89049">
        <ele>190</ele>
        <time>2026-03-27T11:45:30.000Z</time>
      </trkpt>
      <trkpt lat="43.75982" lon="3.89039">
        <ele>189</ele>
        <time>2026-03-27T11:45:43.000Z</time>
      </trkpt>
      <trkpt lat="43.75976" lon="3.89029">
        <ele>188</ele>
        <time>2026-03-27T11:45:56.000Z</time>
      </trkpt>
      <trkpt lat="43.75974" lon="3.89017">
        <ele>187</ele>
        <time>2026-03-27T11:46:06.000Z</time>
      </trkpt>
      <trkpt lat="43.75967" lon="3.89008">
        <ele>185</ele>
        <time>2026-03-27T11:46:15.000Z</time>
      </trkpt>
      <trkpt lat="43.75958" lon="3.89001">
        <ele>183</ele>
        <time>2026-03-27T11:46:23.000Z</time>
      </trkpt>
      <trkpt lat="43.75951" lon="3.88994">
        <ele>181</ele>
        <time>2026-03-27T11:46:31.000Z</time>
      </trkpt>
      <trkpt lat="43.75942" lon="3.8899">
        <ele>180</ele>
        <time>2026-03-27T11:46:42.000Z</time>
      </trkpt>
      <trkpt lat="43.75933" lon="3.88984">
        <ele>179</ele>
        <time>2026-03-27T11:46:59.000Z</time>
      </trkpt>
      <trkpt lat="43.75926" lon="3.88978">
        <ele>178</ele>
        <time>2026-03-27T11:47:11.000Z</time>
      </trkpt>
      <trkpt lat="43.75924" lon="3.88969">
        <ele>177</ele>
        <time>2026-03-27T11:47:21.000Z</time>
      </trkpt>
      <trkpt lat="43.75931" lon="3.88964">
        <ele>176</ele>
        <time>2026-03-27T11:47:34.000Z</time>
      </trkpt>
      <trkpt lat="43.75937" lon="3.88955">
        <ele>175</ele>
        <time>2026-03-27T11:47:47.000Z</time>
      </trkpt>
      <trkpt lat="43.75945" lon="3.88948">
        <ele>175</ele>
        <time>2026-03-27T11:47:57.000Z</time>
      </trkpt>
      <trkpt lat="43.75954" lon="3.88944">
        <ele>174</ele>
        <time>2026-03-27T11:48:08.000Z</time>
      </trkpt>
      <trkpt lat="43.75964" lon="3.88941">
        <ele>173</ele>
        <time>2026-03-27T11:48:21.000Z</time>
      </trkpt>
      <trkpt lat="43.75972" lon="3.88937">
        <ele>172</ele>
        <time>2026-03-27T11:48:29.000Z</time>
      </trkpt>
      <trkpt lat="43.75982" lon="3.88931">
        <ele>171</ele>
        <time>2026-03-27T11:48:42.000Z</time>
      </trkpt>
      <trkpt lat="43.75989" lon="3.88923">
        <ele>171</ele>
        <time>2026-03-27T11:48:50.000Z</time>
      </trkpt>
      <trkpt lat="43.75994" lon="3.88913">
        <ele>170</ele>
        <time>2026-03-27T11:48:56.000Z</time>
      </trkpt>
      <trkpt lat="43.76" lon="3.88904">
        <ele>170</ele>
        <time>2026-03-27T11:49:11.000Z</time>
      </trkpt>
      <trkpt lat="43.76009" lon="3.88902">
        <ele>170</ele>
        <time>2026-03-27T11:50:08.000Z</time>
      </trkpt>
      <trkpt lat="43.76016" lon="3.88893">
        <ele>170</ele>
        <time>2026-03-27T11:50:13.000Z</time>
      </trkpt>
      <trkpt lat="43.76021" lon="3.88884">
        <ele>169</ele>
        <time>2026-03-27T11:50:21.000Z</time>
      </trkpt>
      <trkpt lat="43.76028" lon="3.88876">
        <ele>169</ele>
        <time>2026-03-27T11:50:28.000Z</time>
      </trkpt>
      <trkpt lat="43.76036" lon="3.88866">
        <ele>168</ele>
        <time>2026-03-27T11:50:38.000Z</time>
      </trkpt>
      <trkpt lat="43.76043" lon="3.88855">
        <ele>167</ele>
        <time>2026-03-27T11:50:46.000Z</time>
      </trkpt>
      <trkpt lat="43.76051" lon="3.88846">
        <ele>166</ele>
        <time>2026-03-27T11:50:54.000Z</time>
      </trkpt>
      <trkpt lat="43.76058" lon="3.88836">
        <ele>165</ele>
        <time>2026-03-27T11:51:01.000Z</time>
      </trkpt>
      <trkpt lat="43.76066" lon="3.88826">
        <ele>165</ele>
        <time>2026-03-27T11:51:11.000Z</time>
      </trkpt>
      <trkpt lat="43.76075" lon="3.8882">
        <ele>164</ele>
        <time>2026-03-27T11:51:22.000Z</time>
      </trkpt>
      <trkpt lat="43.76083" lon="3.88814">
        <ele>164</ele>
        <time>2026-03-27T11:51:32.000Z</time>
      </trkpt>
      <trkpt lat="43.76091" lon="3.88808">
        <ele>163</ele>
        <time>2026-03-27T11:51:42.000Z</time>
      </trkpt>
      <trkpt lat="43.76098" lon="3.88798">
        <ele>163</ele>
        <time>2026-03-27T11:51:49.000Z</time>
      </trkpt>
      <trkpt lat="43.76104" lon="3.88787">
        <ele>161</ele>
        <time>2026-03-27T11:51:58.000Z</time>
      </trkpt>
      <trkpt lat="43.76113" lon="3.88784">
        <ele>160</ele>
        <time>2026-03-27T11:52:23.000Z</time>
      </trkpt>
      <trkpt lat="43.76123" lon="3.88786">
        <ele>160</ele>
        <time>2026-03-27T11:52:33.000Z</time>
      </trkpt>
      <trkpt lat="43.76133" lon="3.8879">
        <ele>159</ele>
        <time>2026-03-27T11:52:43.000Z</time>
      </trkpt>
      <trkpt lat="43.76142" lon="3.88794">
        <ele>159</ele>
        <time>2026-03-27T11:52:52.000Z</time>
      </trkpt>
      <trkpt lat="43.76151" lon="3.88798">
        <ele>159</ele>
        <time>2026-03-27T11:53:06.000Z</time>
      </trkpt>
      <trkpt lat="43.76162" lon="3.88803">
        <ele>159</ele>
        <time>2026-03-27T11:53:14.000Z</time>
      </trkpt>
      <trkpt lat="43.76169" lon="3.88809">
        <ele>160</ele>
        <time>2026-03-27T11:53:22.000Z</time>
      </trkpt>
      <trkpt lat="43.76178" lon="3.88814">
        <ele>161</ele>
        <time>2026-03-27T11:53:31.000Z</time>
      </trkpt>
      <trkpt lat="43.76188" lon="3.88819">
        <ele>163</ele>
        <time>2026-03-27T11:53:38.000Z</time>
      </trkpt>
      <trkpt lat="43.76197" lon="3.88825">
        <ele>164</ele>
        <time>2026-03-27T11:53:44.000Z</time>
      </trkpt>
      <trkpt lat="43.76203" lon="3.88834">
        <ele>165</ele>
        <time>2026-03-27T11:54:01.000Z</time>
      </trkpt>
      <trkpt lat="43.76204" lon="3.88846">
        <ele>165</ele>
        <time>2026-03-27T11:54:14.000Z</time>
      </trkpt>
      <trkpt lat="43.76203" lon="3.8886">
        <ele>166</ele>
        <time>2026-03-27T11:54:24.000Z</time>
      </trkpt>
      <trkpt lat="43.76205" lon="3.88873">
        <ele>166</ele>
        <time>2026-03-27T11:54:33.000Z</time>
      </trkpt>
      <trkpt lat="43.76206" lon="3.88886">
        <ele>166</ele>
        <time>2026-03-27T11:54:41.000Z</time>
      </trkpt>
      <trkpt lat="43.76209" lon="3.88898">
        <ele>166</ele>
        <time>2026-03-27T11:54:50.000Z</time>
      </trkpt>
      <trkpt lat="43.76212" lon="3.8891">
        <ele>166</ele>
        <time>2026-03-27T11:55:00.000Z</time>
      </trkpt>
      <trkpt lat="43.76218" lon="3.88921">
        <ele>166</ele>
        <time>2026-03-27T11:55:18.000Z</time>
      </trkpt>
      <trkpt lat="43.76223" lon="3.88933">
        <ele>167</ele>
        <time>2026-03-27T11:56:08.000Z</time>
      </trkpt>
      <trkpt lat="43.76227" lon="3.88946">
        <ele>167</ele>
        <time>2026-03-27T11:56:16.000Z</time>
      </trkpt>
      <trkpt lat="43.76233" lon="3.88955">
        <ele>167</ele>
        <time>2026-03-27T11:56:24.000Z</time>
      </trkpt>
      <trkpt lat="43.7624" lon="3.88964">
        <ele>167</ele>
        <time>2026-03-27T11:56:33.000Z</time>
      </trkpt>
      <trkpt lat="43.76247" lon="3.88971">
        <ele>168</ele>
        <time>2026-03-27T11:56:42.000Z</time>
      </trkpt>
      <trkpt lat="43.76253" lon="3.88974">
        <ele>168</ele>
        <time>2026-03-27T11:56:50.000Z</time>
      </trkpt>
      <trkpt lat="43.7625" lon="3.88965">
        <ele>169</ele>
        <time>2026-03-27T11:57:34.000Z</time>
      </trkpt>
      <trkpt lat="43.76244" lon="3.88956">
        <ele>169</ele>
        <time>2026-03-27T11:57:42.000Z</time>
      </trkpt>
      <trkpt lat="43.76236" lon="3.88947">
        <ele>169</ele>
        <time>2026-03-27T11:57:47.000Z</time>
      </trkpt>
      <trkpt lat="43.76231" lon="3.88938">
        <ele>169</ele>
        <time>2026-03-27T11:57:56.000Z</time>
      </trkpt>
      <trkpt lat="43.76227" lon="3.88929">
        <ele>169</ele>
        <time>2026-03-27T11:58:04.000Z</time>
      </trkpt>
      <trkpt lat="43.76225" lon="3.8894">
        <ele>169</ele>
        <time>2026-03-27T11:59:00.000Z</time>
      </trkpt>
      <trkpt lat="43.76231" lon="3.88953">
        <ele>170</ele>
        <time>2026-03-27T11:59:08.000Z</time>
      </trkpt>
      <trkpt lat="43.76237" lon="3.88962">
        <ele>170</ele>
        <time>2026-03-27T11:59:16.000Z</time>
      </trkpt>
      <trkpt lat="43.76245" lon="3.88963">
        <ele>171</ele>
        <time>2026-03-27T11:59:33.000Z</time>
      </trkpt>
      <trkpt lat="43.76242" lon="3.88954">
        <ele>171</ele>
        <time>2026-03-27T11:59:59.000Z</time>
      </trkpt>
      <trkpt lat="43.76235" lon="3.88945">
        <ele>171</ele>
        <time>2026-03-27T12:00:08.000Z</time>
      </trkpt>
      <trkpt lat="43.76231" lon="3.88934">
        <ele>171</ele>
        <time>2026-03-27T12:00:13.000Z</time>
      </trkpt>
      <trkpt lat="43.76227" lon="3.88923">
        <ele>171</ele>
        <time>2026-03-27T12:00:24.000Z</time>
      </trkpt>
      <trkpt lat="43.76222" lon="3.88915">
        <ele>171</ele>
        <time>2026-03-27T12:01:02.000Z</time>
      </trkpt>
      <trkpt lat="43.76219" lon="3.88903">
        <ele>172</ele>
        <time>2026-03-27T12:01:09.000Z</time>
      </trkpt>
      <trkpt lat="43.76216" lon="3.8889">
        <ele>172</ele>
        <time>2026-03-27T12:01:18.000Z</time>
      </trkpt>
      <trkpt lat="43.76214" lon="3.88876">
        <ele>172</ele>
        <time>2026-03-27T12:01:28.000Z</time>
      </trkpt>
      <trkpt lat="43.76215" lon="3.88864">
        <ele>173</ele>
        <time>2026-03-27T12:01:33.000Z</time>
      </trkpt>
      <trkpt lat="43.76215" lon="3.88854">
        <ele>172</ele>
        <time>2026-03-27T12:01:50.000Z</time>
      </trkpt>
      <trkpt lat="43.76208" lon="3.88856">
        <ele>172</ele>
        <time>2026-03-27T12:02:23.000Z</time>
      </trkpt>
      <trkpt lat="43.76206" lon="3.88868">
        <ele>172</ele>
        <time>2026-03-27T12:02:36.000Z</time>
      </trkpt>
      <trkpt lat="43.76206" lon="3.88882">
        <ele>171</ele>
        <time>2026-03-27T12:02:46.000Z</time>
      </trkpt>
      <trkpt lat="43.7621" lon="3.88893">
        <ele>171</ele>
        <time>2026-03-27T12:02:52.000Z</time>
      </trkpt>
      <trkpt lat="43.76214" lon="3.88901">
        <ele>171</ele>
        <time>2026-03-27T12:02:57.000Z</time>
      </trkpt>
      <trkpt lat="43.76217" lon="3.88892">
        <ele>171</ele>
        <time>2026-03-27T12:03:37.000Z</time>
      </trkpt>
      <trkpt lat="43.76215" lon="3.88879">
        <ele>171</ele>
        <time>2026-03-27T12:03:44.000Z</time>
      </trkpt>
      <trkpt lat="43.76214" lon="3.88865">
        <ele>170</ele>
        <time>2026-03-27T12:03:50.000Z</time>
      </trkpt>
      <trkpt lat="43.76216" lon="3.88851">
        <ele>170</ele>
        <time>2026-03-27T12:03:57.000Z</time>
      </trkpt>
      <trkpt lat="43.76214" lon="3.88839">
        <ele>169</ele>
        <time>2026-03-27T12:04:07.000Z</time>
      </trkpt>
      <trkpt lat="43.76211" lon="3.88826">
        <ele>168</ele>
        <time>2026-03-27T12:04:18.000Z</time>
      </trkpt>
      <trkpt lat="43.76205" lon="3.88815">
        <ele>167</ele>
        <time>2026-03-27T12:04:25.000Z</time>
      </trkpt>
      <trkpt lat="43.76198" lon="3.88808">
        <ele>165</ele>
        <time>2026-03-27T12:04:35.000Z</time>
      </trkpt>
      <trkpt lat="43.76188" lon="3.88806">
        <ele>163</ele>
        <time>2026-03-27T12:04:44.000Z</time>
      </trkpt>
      <trkpt lat="43.76179" lon="3.88803">
        <ele>162</ele>
        <time>2026-03-27T12:04:51.000Z</time>
      </trkpt>
      <trkpt lat="43.76169" lon="3.88799">
        <ele>161</ele>
        <time>2026-03-27T12:05:04.000Z</time>
      </trkpt>
      <trkpt lat="43.7616" lon="3.88797">
        <ele>160</ele>
        <time>2026-03-27T12:05:12.000Z</time>
      </trkpt>
      <trkpt lat="43.76149" lon="3.88794">
        <ele>160</ele>
        <time>2026-03-27T12:05:22.000Z</time>
      </trkpt>
      <trkpt lat="43.76139" lon="3.88791">
        <ele>160</ele>
        <time>2026-03-27T12:05:31.000Z</time>
      </trkpt>
      <trkpt lat="43.76128" lon="3.88789">
        <ele>160</ele>
        <time>2026-03-27T12:05:40.000Z</time>
      </trkpt>
      <trkpt lat="43.76118" lon="3.88785">
        <ele>161</ele>
        <time>2026-03-27T12:05:50.000Z</time>
      </trkpt>
      <trkpt lat="43.7611" lon="3.88782">
        <ele>161</ele>
        <time>2026-03-27T12:06:02.000Z</time>
      </trkpt>
      <trkpt lat="43.76101" lon="3.88775">
        <ele>161</ele>
        <time>2026-03-27T12:06:14.000Z</time>
      </trkpt>
      <trkpt lat="43.76093" lon="3.88769">
        <ele>160</ele>
        <time>2026-03-27T12:06:21.000Z</time>
      </trkpt>
      <trkpt lat="43.76085" lon="3.88763">
        <ele>160</ele>
        <time>2026-03-27T12:06:30.000Z</time>
      </trkpt>
      <trkpt lat="43.76076" lon="3.88757">
        <ele>159</ele>
        <time>2026-03-27T12:06:40.000Z</time>
      </trkpt>
      <trkpt lat="43.76067" lon="3.8875">
        <ele>158</ele>
        <time>2026-03-27T12:06:52.000Z</time>
      </trkpt>
      <trkpt lat="43.76058" lon="3.88744">
        <ele>158</ele>
        <time>2026-03-27T12:07:02.000Z</time>
      </trkpt>
      <trkpt lat="43.76049" lon="3.88738">
        <ele>158</ele>
        <time>2026-03-27T12:07:10.000Z</time>
      </trkpt>
      <trkpt lat="43.76041" lon="3.88737">
        <ele>159</ele>
        <time>2026-03-27T12:07:18.000Z</time>
      </trkpt>
      <trkpt lat="43.76039" lon="3.88746">
        <ele>161</ele>
        <time>2026-03-27T12:08:46.000Z</time>
      </trkpt>
      <trkpt lat="43.76042" lon="3.88742">
        <ele>163</ele>
        <time>2026-03-27T12:09:26.000Z</time>
      </trkpt>
      <trkpt lat="43.76035" lon="3.88743">
        <ele>164</ele>
        <time>2026-03-27T12:40:50.000Z</time>
      </trkpt>
      <trkpt lat="43.7603" lon="3.88734">
        <ele>164</ele>
        <time>2026-03-27T12:46:45.000Z</time>
      </trkpt>
      <trkpt lat="43.76024" lon="3.88725">
        <ele>165</ele>
        <time>2026-03-27T12:46:56.000Z</time>
      </trkpt>
      <trkpt lat="43.76018" lon="3.88715">
        <ele>165</ele>
        <time>2026-03-27T12:47:07.000Z</time>
      </trkpt>
      <trkpt lat="43.76014" lon="3.88703">
        <ele>165</ele>
        <time>2026-03-27T12:47:21.000Z</time>
      </trkpt>
      <trkpt lat="43.76008" lon="3.88694">
        <ele>164</ele>
        <time>2026-03-27T12:47:35.000Z</time>
      </trkpt>
      <trkpt lat="43.76004" lon="3.88685">
        <ele>164</ele>
        <time>2026-03-27T12:47:48.000Z</time>
      </trkpt>
      <trkpt lat="43.76009" lon="3.88676">
        <ele>164</ele>
        <time>2026-03-27T12:48:13.000Z</time>
      </trkpt>
      <trkpt lat="43.76016" lon="3.88668">
        <ele>163</ele>
        <time>2026-03-27T12:48:24.000Z</time>
      </trkpt>
      <trkpt lat="43.76024" lon="3.88658">
        <ele>163</ele>
        <time>2026-03-27T12:48:32.000Z</time>
      </trkpt>
      <trkpt lat="43.76029" lon="3.88647">
        <ele>162</ele>
        <time>2026-03-27T12:48:40.000Z</time>
      </trkpt>
      <trkpt lat="43.76034" lon="3.88635">
        <ele>161</ele>
        <time>2026-03-27T12:48:48.000Z</time>
      </trkpt>
      <trkpt lat="43.76035" lon="3.88623">
        <ele>160</ele>
        <time>2026-03-27T12:48:55.000Z</time>
      </trkpt>
      <trkpt lat="43.76038" lon="3.88609">
        <ele>159</ele>
        <time>2026-03-27T12:49:05.000Z</time>
      </trkpt>
      <trkpt lat="43.76041" lon="3.88595">
        <ele>159</ele>
        <time>2026-03-27T12:49:16.000Z</time>
      </trkpt>
      <trkpt lat="43.76044" lon="3.88583">
        <ele>158</ele>
        <time>2026-03-27T12:49:23.000Z</time>
      </trkpt>
      <trkpt lat="43.76045" lon="3.8857">
        <ele>158</ele>
        <time>2026-03-27T12:49:32.000Z</time>
      </trkpt>
      <trkpt lat="43.76048" lon="3.88557">
        <ele>157</ele>
        <time>2026-03-27T12:49:42.000Z</time>
      </trkpt>
      <trkpt lat="43.76051" lon="3.88544">
        <ele>157</ele>
        <time>2026-03-27T12:49:49.000Z</time>
      </trkpt>
      <trkpt lat="43.76055" lon="3.88531">
        <ele>157</ele>
        <time>2026-03-27T12:49:59.000Z</time>
      </trkpt>
      <trkpt lat="43.76058" lon="3.88519">
        <ele>157</ele>
        <time>2026-03-27T12:50:07.000Z</time>
      </trkpt>
      <trkpt lat="43.76064" lon="3.88507">
        <ele>157</ele>
        <time>2026-03-27T12:50:17.000Z</time>
      </trkpt>
      <trkpt lat="43.7607" lon="3.88497">
        <ele>158</ele>
        <time>2026-03-27T12:50:27.000Z</time>
      </trkpt>
      <trkpt lat="43.76075" lon="3.88486">
        <ele>159</ele>
        <time>2026-03-27T12:50:37.000Z</time>
      </trkpt>
      <trkpt lat="43.76081" lon="3.88481">
        <ele>160</ele>
        <time>2026-03-27T12:50:55.000Z</time>
      </trkpt>
      <trkpt lat="43.76077" lon="3.88487">
        <ele>160</ele>
        <time>2026-03-27T12:51:33.000Z</time>
      </trkpt>
      <trkpt lat="43.76077" lon="3.885">
        <ele>160</ele>
        <time>2026-03-27T12:51:42.000Z</time>
      </trkpt>
      <trkpt lat="43.76084" lon="3.88511">
        <ele>159</ele>
        <time>2026-03-27T12:51:49.000Z</time>
      </trkpt>
      <trkpt lat="43.76089" lon="3.88523">
        <ele>159</ele>
        <time>2026-03-27T12:51:58.000Z</time>
      </trkpt>
      <trkpt lat="43.76096" lon="3.88534">
        <ele>158</ele>
        <time>2026-03-27T12:52:08.000Z</time>
      </trkpt>
      <trkpt lat="43.76103" lon="3.88543">
        <ele>158</ele>
        <time>2026-03-27T12:52:16.000Z</time>
      </trkpt>
      <trkpt lat="43.76107" lon="3.88554">
        <ele>158</ele>
        <time>2026-03-27T12:52:24.000Z</time>
      </trkpt>
      <trkpt lat="43.76112" lon="3.88565">
        <ele>158</ele>
        <time>2026-03-27T12:52:37.000Z</time>
      </trkpt>
      <trkpt lat="43.76118" lon="3.88575">
        <ele>158</ele>
        <time>2026-03-27T12:52:45.000Z</time>
      </trkpt>
      <trkpt lat="43.76125" lon="3.88586">
        <ele>158</ele>
        <time>2026-03-27T12:52:59.000Z</time>
      </trkpt>
      <trkpt lat="43.76132" lon="3.88595">
        <ele>159</ele>
        <time>2026-03-27T12:53:06.000Z</time>
      </trkpt>
      <trkpt lat="43.76139" lon="3.88602">
        <ele>159</ele>
        <time>2026-03-27T12:53:11.000Z</time>
      </trkpt>
      <trkpt lat="43.76144" lon="3.88613">
        <ele>159</ele>
        <time>2026-03-27T12:53:22.000Z</time>
      </trkpt>
      <trkpt lat="43.76149" lon="3.88624">
        <ele>160</ele>
        <time>2026-03-27T12:53:46.000Z</time>
      </trkpt>
      <trkpt lat="43.76156" lon="3.88634">
        <ele>160</ele>
        <time>2026-03-27T12:53:54.000Z</time>
      </trkpt>
      <trkpt lat="43.76162" lon="3.88644">
        <ele>161</ele>
        <time>2026-03-27T12:54:02.000Z</time>
      </trkpt>
      <trkpt lat="43.76169" lon="3.88654">
        <ele>161</ele>
        <time>2026-03-27T12:54:11.000Z</time>
      </trkpt>
      <trkpt lat="43.76176" lon="3.88664">
        <ele>162</ele>
        <time>2026-03-27T12:54:30.000Z</time>
      </trkpt>
      <trkpt lat="43.76183" lon="3.88674">
        <ele>163</ele>
        <time>2026-03-27T12:54:38.000Z</time>
      </trkpt>
      <trkpt lat="43.7619" lon="3.88683">
        <ele>164</ele>
        <time>2026-03-27T12:54:46.000Z</time>
      </trkpt>
      <trkpt lat="43.76197" lon="3.88692">
        <ele>165</ele>
        <time>2026-03-27T12:54:56.000Z</time>
      </trkpt>
      <trkpt lat="43.76205" lon="3.88701">
        <ele>166</ele>
        <time>2026-03-27T12:55:03.000Z</time>
      </trkpt>
      <trkpt lat="43.76213" lon="3.88708">
        <ele>166</ele>
        <time>2026-03-27T12:55:13.000Z</time>
      </trkpt>
      <trkpt lat="43.76222" lon="3.88716">
        <ele>166</ele>
        <time>2026-03-27T12:55:23.000Z</time>
      </trkpt>
      <trkpt lat="43.76231" lon="3.88723">
        <ele>166</ele>
        <time>2026-03-27T12:55:32.000Z</time>
      </trkpt>
      <trkpt lat="43.76239" lon="3.8873">
        <ele>165</ele>
        <time>2026-03-27T12:55:43.000Z</time>
      </trkpt>
      <trkpt lat="43.76248" lon="3.88736">
        <ele>163</ele>
        <time>2026-03-27T12:55:51.000Z</time>
      </trkpt>
      <trkpt lat="43.76247" lon="3.88746">
        <ele>163</ele>
        <time>2026-03-27T12:56:25.000Z</time>
      </trkpt>
      <trkpt lat="43.76242" lon="3.88755">
        <ele>163</ele>
        <time>2026-03-27T12:56:36.000Z</time>
      </trkpt>
      <trkpt lat="43.76238" lon="3.88767">
        <ele>163</ele>
        <time>2026-03-27T12:56:43.000Z</time>
      </trkpt>
      <trkpt lat="43.76235" lon="3.8878">
        <ele>164</ele>
        <time>2026-03-27T12:56:54.000Z</time>
      </trkpt>
      <trkpt lat="43.76232" lon="3.88793">
        <ele>165</ele>
        <time>2026-03-27T12:57:03.000Z</time>
      </trkpt>
      <trkpt lat="43.76228" lon="3.88806">
        <ele>167</ele>
        <time>2026-03-27T12:57:14.000Z</time>
      </trkpt>
      <trkpt lat="43.76225" lon="3.88818">
        <ele>168</ele>
        <time>2026-03-27T12:57:24.000Z</time>
      </trkpt>
      <trkpt lat="43.76225" lon="3.88832">
        <ele>169</ele>
        <time>2026-03-27T12:57:31.000Z</time>
      </trkpt>
      <trkpt lat="43.76225" lon="3.88845">
        <ele>169</ele>
        <time>2026-03-27T12:57:41.000Z</time>
      </trkpt>
      <trkpt lat="43.76228" lon="3.88857">
        <ele>170</ele>
        <time>2026-03-27T12:57:50.000Z</time>
      </trkpt>
      <trkpt lat="43.76232" lon="3.88868">
        <ele>170</ele>
        <time>2026-03-27T12:58:24.000Z</time>
      </trkpt>
      <trkpt lat="43.76238" lon="3.88876">
        <ele>170</ele>
        <time>2026-03-27T13:00:14.000Z</time>
      </trkpt>
      <trkpt lat="43.76238" lon="3.88887">
        <ele>170</ele>
        <time>2026-03-27T13:01:58.000Z</time>
      </trkpt>
      <trkpt lat="43.76234" lon="3.88897">
        <ele>171</ele>
        <time>2026-03-27T13:02:19.000Z</time>
      </trkpt>
      <trkpt lat="43.76229" lon="3.8891">
        <ele>171</ele>
        <time>2026-03-27T13:02:36.000Z</time>
      </trkpt>
      <trkpt lat="43.7623" lon="3.88922">
        <ele>171</ele>
        <time>2026-03-27T13:02:41.000Z</time>
      </trkpt>
      <trkpt lat="43.76238" lon="3.88922">
        <ele>171</ele>
        <time>2026-03-27T13:02:51.000Z</time>
      </trkpt>
      <trkpt lat="43.76246" lon="3.8892">
        <ele>171</ele>
        <time>2026-03-27T13:03:08.000Z</time>
      </trkpt>
      <trkpt lat="43.76249" lon="3.88929">
        <ele>171</ele>
        <time>2026-03-27T13:03:35.000Z</time>
      </trkpt>
      <trkpt lat="43.76254" lon="3.88936">
        <ele>171</ele>
        <time>2026-03-27T13:05:16.000Z</time>
      </trkpt>
      <trkpt lat="43.76258" lon="3.88928">
        <ele>171</ele>
        <time>2026-03-27T13:05:46.000Z</time>
      </trkpt>
      <trkpt lat="43.76254" lon="3.88918">
        <ele>171</ele>
        <time>2026-03-27T13:06:02.000Z</time>
      </trkpt>
      <trkpt lat="43.76245" lon="3.88915">
        <ele>171</ele>
        <time>2026-03-27T13:06:17.000Z</time>
      </trkpt>
      <trkpt lat="43.76238" lon="3.88906">
        <ele>171</ele>
        <time>2026-03-27T13:06:32.000Z</time>
      </trkpt>
      <trkpt lat="43.76235" lon="3.88895">
        <ele>171</ele>
        <time>2026-03-27T13:06:44.000Z</time>
      </trkpt>
      <trkpt lat="43.76241" lon="3.88889">
        <ele>171</ele>
        <time>2026-03-27T13:06:56.000Z</time>
      </trkpt>
      <trkpt lat="43.76243" lon="3.88876">
        <ele>171</ele>
        <time>2026-03-27T13:07:11.000Z</time>
      </trkpt>
      <trkpt lat="43.76241" lon="3.88864">
        <ele>171</ele>
        <time>2026-03-27T13:07:19.000Z</time>
      </trkpt>
      <trkpt lat="43.76245" lon="3.88853">
        <ele>171</ele>
        <time>2026-03-27T13:07:32.000Z</time>
      </trkpt>
      <trkpt lat="43.76251" lon="3.88844">
        <ele>171</ele>
        <time>2026-03-27T13:07:46.000Z</time>
      </trkpt>
      <trkpt lat="43.76257" lon="3.88834">
        <ele>171</ele>
        <time>2026-03-27T13:07:56.000Z</time>
      </trkpt>
      <trkpt lat="43.76263" lon="3.88824">
        <ele>171</ele>
        <time>2026-03-27T13:08:03.000Z</time>
      </trkpt>
      <trkpt lat="43.76271" lon="3.88815">
        <ele>171</ele>
        <time>2026-03-27T13:08:14.000Z</time>
      </trkpt>
      <trkpt lat="43.76278" lon="3.88806">
        <ele>171</ele>
        <time>2026-03-27T13:08:22.000Z</time>
      </trkpt>
      <trkpt lat="43.76285" lon="3.88798">
        <ele>171</ele>
        <time>2026-03-27T13:08:29.000Z</time>
      </trkpt>
      <trkpt lat="43.76292" lon="3.88788">
        <ele>171</ele>
        <time>2026-03-27T13:08:39.000Z</time>
      </trkpt>
      <trkpt lat="43.76298" lon="3.88779">
        <ele>171</ele>
        <time>2026-03-27T13:08:47.000Z</time>
      </trkpt>
      <trkpt lat="43.76305" lon="3.8877">
        <ele>171</ele>
        <time>2026-03-27T13:08:56.000Z</time>
      </trkpt>
      <trkpt lat="43.76313" lon="3.88762">
        <ele>171</ele>
        <time>2026-03-27T13:09:03.000Z</time>
      </trkpt>
      <trkpt lat="43.7632" lon="3.88753">
        <ele>171</ele>
        <time>2026-03-27T13:09:14.000Z</time>
      </trkpt>
      <trkpt lat="43.76328" lon="3.88744">
        <ele>171</ele>
        <time>2026-03-27T13:09:21.000Z</time>
      </trkpt>
      <trkpt lat="43.76334" lon="3.88734">
        <ele>171</ele>
        <time>2026-03-27T13:09:30.000Z</time>
      </trkpt>
      <trkpt lat="43.7634" lon="3.88725">
        <ele>171</ele>
        <time>2026-03-27T13:09:36.000Z</time>
      </trkpt>
      <trkpt lat="43.76345" lon="3.88718">
        <ele>171</ele>
        <time>2026-03-27T13:09:44.000Z</time>
      </trkpt>
      <trkpt lat="43.76339" lon="3.8872">
        <ele>171</ele>
        <time>2026-03-27T13:11:25.000Z</time>
      </trkpt>
      <trkpt lat="43.76345" lon="3.88718">
        <ele>171</ele>
        <time>2026-03-27T13:13:25.000Z</time>
      </trkpt>
      <trkpt lat="43.76345" lon="3.88708">
        <ele>171</ele>
        <time>2026-03-27T13:14:10.000Z</time>
      </trkpt>
      <trkpt lat="43.76344" lon="3.88694">
        <ele>171</ele>
        <time>2026-03-27T13:16:10.000Z</time>
      </trkpt>
      <trkpt lat="43.76339" lon="3.88684">
        <ele>171</ele>
        <time>2026-03-27T13:16:19.000Z</time>
      </trkpt>
      <trkpt lat="43.76333" lon="3.88675">
        <ele>171</ele>
        <time>2026-03-27T13:16:32.000Z</time>
      </trkpt>
      <trkpt lat="43.76326" lon="3.88667">
        <ele>171</ele>
        <time>2026-03-27T13:16:43.000Z</time>
      </trkpt>
      <trkpt lat="43.76318" lon="3.88658">
        <ele>171</ele>
        <time>2026-03-27T13:16:56.000Z</time>
      </trkpt>
      <trkpt lat="43.7631" lon="3.88648">
        <ele>171</ele>
        <time>2026-03-27T13:17:05.000Z</time>
      </trkpt>
      <trkpt lat="43.76304" lon="3.88639">
        <ele>171</ele>
        <time>2026-03-27T13:17:18.000Z</time>
      </trkpt>
      <trkpt lat="43.76302" lon="3.88627">
        <ele>170</ele>
        <time>2026-03-27T13:17:28.000Z</time>
      </trkpt>
      <trkpt lat="43.76301" lon="3.88614">
        <ele>169</ele>
        <time>2026-03-27T13:17:39.000Z</time>
      </trkpt>
      <trkpt lat="43.76299" lon="3.88601">
        <ele>168</ele>
        <time>2026-03-27T13:17:50.000Z</time>
      </trkpt>
      <trkpt lat="43.76297" lon="3.88589">
        <ele>167</ele>
        <time>2026-03-27T13:17:59.000Z</time>
      </trkpt>
      <trkpt lat="43.76294" lon="3.88578">
        <ele>166</ele>
        <time>2026-03-27T13:18:11.000Z</time>
      </trkpt>
      <trkpt lat="43.76294" lon="3.88564">
        <ele>166</ele>
        <time>2026-03-27T13:18:22.000Z</time>
      </trkpt>
      <trkpt lat="43.76297" lon="3.88551">
        <ele>165</ele>
        <time>2026-03-27T13:18:31.000Z</time>
      </trkpt>
      <trkpt lat="43.76299" lon="3.88537">
        <ele>165</ele>
        <time>2026-03-27T13:18:41.000Z</time>
      </trkpt>
      <trkpt lat="43.76302" lon="3.88525">
        <ele>165</ele>
        <time>2026-03-27T13:18:51.000Z</time>
      </trkpt>
      <trkpt lat="43.76307" lon="3.88513">
        <ele>165</ele>
        <time>2026-03-27T13:19:02.000Z</time>
      </trkpt>
      <trkpt lat="43.7631" lon="3.88502">
        <ele>165</ele>
        <time>2026-03-27T13:19:18.000Z</time>
      </trkpt>
      <trkpt lat="43.76313" lon="3.8849">
        <ele>165</ele>
        <time>2026-03-27T13:19:26.000Z</time>
      </trkpt>
      <trkpt lat="43.76317" lon="3.88478">
        <ele>165</ele>
        <time>2026-03-27T13:19:36.000Z</time>
      </trkpt>
      <trkpt lat="43.76322" lon="3.88467">
        <ele>165</ele>
        <time>2026-03-27T13:19:45.000Z</time>
      </trkpt>
      <trkpt lat="43.76329" lon="3.88456">
        <ele>165</ele>
        <time>2026-03-27T13:19:56.000Z</time>
      </trkpt>
      <trkpt lat="43.76336" lon="3.88445">
        <ele>165</ele>
        <time>2026-03-27T13:20:07.000Z</time>
      </trkpt>
      <trkpt lat="43.76339" lon="3.88434">
        <ele>165</ele>
        <time>2026-03-27T13:20:17.000Z</time>
      </trkpt>
      <trkpt lat="43.76347" lon="3.88426">
        <ele>165</ele>
        <time>2026-03-27T13:20:30.000Z</time>
      </trkpt>
      <trkpt lat="43.76355" lon="3.88419">
        <ele>165</ele>
        <time>2026-03-27T13:20:40.000Z</time>
      </trkpt>
      <trkpt lat="43.76362" lon="3.88412">
        <ele>165</ele>
        <time>2026-03-27T13:20:57.000Z</time>
      </trkpt>
      <trkpt lat="43.76368" lon="3.88403">
        <ele>165</ele>
        <time>2026-03-27T13:21:31.000Z</time>
      </trkpt>
      <trkpt lat="43.76374" lon="3.88393">
        <ele>165</ele>
        <time>2026-03-27T13:21:40.000Z</time>
      </trkpt>
      <trkpt lat="43.76373" lon="3.88381">
        <ele>165</ele>
        <time>2026-03-27T13:21:55.000Z</time>
      </trkpt>
      <trkpt lat="43.76376" lon="3.8837">
        <ele>165</ele>
        <time>2026-03-27T13:22:18.000Z</time>
      </trkpt>
      <trkpt lat="43.76384" lon="3.88364">
        <ele>165</ele>
        <time>2026-03-27T13:22:34.000Z</time>
      </trkpt>
      <trkpt lat="43.76391" lon="3.88355">
        <ele>165</ele>
        <time>2026-03-27T13:22:43.000Z</time>
      </trkpt>
      <trkpt lat="43.76397" lon="3.88346">
        <ele>165</ele>
        <time>2026-03-27T13:22:52.000Z</time>
      </trkpt>
      <trkpt lat="43.76403" lon="3.88335">
        <ele>165</ele>
        <time>2026-03-27T13:23:06.000Z</time>
      </trkpt>
      <trkpt lat="43.7641" lon="3.88325">
        <ele>165</ele>
        <time>2026-03-27T13:23:22.000Z</time>
      </trkpt>
      <trkpt lat="43.76413" lon="3.88311">
        <ele>165</ele>
        <time>2026-03-27T13:25:42.000Z</time>
      </trkpt>
      <trkpt lat="43.76419" lon="3.88298">
        <ele>165</ele>
        <time>2026-03-27T13:25:49.000Z</time>
      </trkpt>
      <trkpt lat="43.76426" lon="3.88288">
        <ele>165</ele>
        <time>2026-03-27T13:25:57.000Z</time>
      </trkpt>
      <trkpt lat="43.76432" lon="3.88278">
        <ele>165</ele>
        <time>2026-03-27T13:26:04.000Z</time>
      </trkpt>
      <trkpt lat="43.76441" lon="3.88273">
        <ele>165</ele>
        <time>2026-03-27T13:26:11.000Z</time>
      </trkpt>
      <trkpt lat="43.76449" lon="3.88267">
        <ele>165</ele>
        <time>2026-03-27T13:26:19.000Z</time>
      </trkpt>
      <trkpt lat="43.76456" lon="3.88259">
        <ele>165</ele>
        <time>2026-03-27T13:26:28.000Z</time>
      </trkpt>
      <trkpt lat="43.76464" lon="3.88251">
        <ele>165</ele>
        <time>2026-03-27T13:26:38.000Z</time>
      </trkpt>
      <trkpt lat="43.76473" lon="3.88243">
        <ele>166</ele>
        <time>2026-03-27T13:26:48.000Z</time>
      </trkpt>
      <trkpt lat="43.76481" lon="3.88237">
        <ele>167</ele>
        <time>2026-03-27T13:26:53.000Z</time>
      </trkpt>
      <trkpt lat="43.76488" lon="3.88231">
        <ele>168</ele>
        <time>2026-03-27T13:27:00.000Z</time>
      </trkpt>
      <trkpt lat="43.76496" lon="3.88225">
        <ele>169</ele>
        <time>2026-03-27T13:27:10.000Z</time>
      </trkpt>
      <trkpt lat="43.76503" lon="3.88216">
        <ele>168</ele>
        <time>2026-03-27T13:27:24.000Z</time>
      </trkpt>
      <trkpt lat="43.76506" lon="3.88203">
        <ele>167</ele>
        <time>2026-03-27T13:27:34.000Z</time>
      </trkpt>
      <trkpt lat="43.7651" lon="3.8819">
        <ele>166</ele>
        <time>2026-03-27T13:27:41.000Z</time>
      </trkpt>
      <trkpt lat="43.76515" lon="3.88177">
        <ele>165</ele>
        <time>2026-03-27T13:27:49.000Z</time>
      </trkpt>
      <trkpt lat="43.76522" lon="3.88167">
        <ele>165</ele>
        <time>2026-03-27T13:28:09.000Z</time>
      </trkpt>
      <trkpt lat="43.7653" lon="3.88159">
        <ele>165</ele>
        <time>2026-03-27T13:28:19.000Z</time>
      </trkpt>
      <trkpt lat="43.76537" lon="3.88147">
        <ele>165</ele>
        <time>2026-03-27T13:28:28.000Z</time>
      </trkpt>
      <trkpt lat="43.76544" lon="3.8814">
        <ele>165</ele>
        <time>2026-03-27T13:28:41.000Z</time>
      </trkpt>
      <trkpt lat="43.76551" lon="3.88131">
        <ele>165</ele>
        <time>2026-03-27T13:28:55.000Z</time>
      </trkpt>
      <trkpt lat="43.7656" lon="3.88126">
        <ele>166</ele>
        <time>2026-03-27T13:29:04.000Z</time>
      </trkpt>
      <trkpt lat="43.7657" lon="3.88124">
        <ele>166</ele>
        <time>2026-03-27T13:29:12.000Z</time>
      </trkpt>
      <trkpt lat="43.76579" lon="3.88121">
        <ele>165</ele>
        <time>2026-03-27T13:29:19.000Z</time>
      </trkpt>
      <trkpt lat="43.76587" lon="3.88115">
        <ele>165</ele>
        <time>2026-03-27T13:29:34.000Z</time>
      </trkpt>
      <trkpt lat="43.76595" lon="3.88107">
        <ele>164</ele>
        <time>2026-03-27T13:29:44.000Z</time>
      </trkpt>
      <trkpt lat="43.76601" lon="3.88092">
        <ele>164</ele>
        <time>2026-03-27T13:30:32.000Z</time>
      </trkpt>
      <trkpt lat="43.76606" lon="3.88082">
        <ele>164</ele>
        <time>2026-03-27T13:30:37.000Z</time>
      </trkpt>
      <trkpt lat="43.76614" lon="3.88077">
        <ele>164</ele>
        <time>2026-03-27T13:30:46.000Z</time>
      </trkpt>
      <trkpt lat="43.76623" lon="3.88072">
        <ele>164</ele>
        <time>2026-03-27T13:30:55.000Z</time>
      </trkpt>
      <trkpt lat="43.76632" lon="3.88067">
        <ele>164</ele>
        <time>2026-03-27T13:31:03.000Z</time>
      </trkpt>
      <trkpt lat="43.76639" lon="3.88058">
        <ele>164</ele>
        <time>2026-03-27T13:31:14.000Z</time>
      </trkpt>
      <trkpt lat="43.76646" lon="3.88048">
        <ele>164</ele>
        <time>2026-03-27T13:31:21.000Z</time>
      </trkpt>
      <trkpt lat="43.76655" lon="3.8804">
        <ele>163</ele>
        <time>2026-03-27T13:31:32.000Z</time>
      </trkpt>
      <trkpt lat="43.76662" lon="3.88031">
        <ele>163</ele>
        <time>2026-03-27T13:31:40.000Z</time>
      </trkpt>
      <trkpt lat="43.76669" lon="3.88021">
        <ele>163</ele>
        <time>2026-03-27T13:31:52.000Z</time>
      </trkpt>
      <trkpt lat="43.76675" lon="3.88011">
        <ele>162</ele>
        <time>2026-03-27T13:31:57.000Z</time>
      </trkpt>
      <trkpt lat="43.76684" lon="3.8801">
        <ele>162</ele>
        <time>2026-03-27T13:32:13.000Z</time>
      </trkpt>
      <trkpt lat="43.76691" lon="3.88004">
        <ele>161</ele>
        <time>2026-03-27T13:32:24.000Z</time>
      </trkpt>
      <trkpt lat="43.76696" lon="3.87994">
        <ele>160</ele>
        <time>2026-03-27T13:32:32.000Z</time>
      </trkpt>
      <trkpt lat="43.76699" lon="3.87981">
        <ele>159</ele>
        <time>2026-03-27T13:32:38.000Z</time>
      </trkpt>
      <trkpt lat="43.76698" lon="3.87969">
        <ele>159</ele>
        <time>2026-03-27T13:32:45.000Z</time>
      </trkpt>
      <trkpt lat="43.76694" lon="3.87958">
        <ele>159</ele>
        <time>2026-03-27T13:32:54.000Z</time>
      </trkpt>
      <trkpt lat="43.76695" lon="3.87947">
        <ele>159</ele>
        <time>2026-03-27T13:33:01.000Z</time>
      </trkpt>
      <trkpt lat="43.76703" lon="3.87951">
        <ele>159</ele>
        <time>2026-03-27T13:33:27.000Z</time>
      </trkpt>
      <trkpt lat="43.76712" lon="3.87954">
        <ele>159</ele>
        <time>2026-03-27T13:33:38.000Z</time>
      </trkpt>
      <trkpt lat="43.76722" lon="3.87952">
        <ele>161</ele>
        <time>2026-03-27T13:33:46.000Z</time>
      </trkpt>
      <trkpt lat="43.76732" lon="3.87956">
        <ele>163</ele>
        <time>2026-03-27T13:33:53.000Z</time>
      </trkpt>
      <trkpt lat="43.76742" lon="3.87961">
        <ele>166</ele>
        <time>2026-03-27T13:34:09.000Z</time>
      </trkpt>
      <trkpt lat="43.7675" lon="3.87967">
        <ele>169</ele>
        <time>2026-03-27T13:34:16.000Z</time>
      </trkpt>
      <trkpt lat="43.7676" lon="3.87969">
        <ele>170</ele>
        <time>2026-03-27T13:34:23.000Z</time>
      </trkpt>
      <trkpt lat="43.76769" lon="3.87971">
        <ele>172</ele>
        <time>2026-03-27T13:34:38.000Z</time>
      </trkpt>
      <trkpt lat="43.76779" lon="3.8797">
        <ele>174</ele>
        <time>2026-03-27T13:34:49.000Z</time>
      </trkpt>
      <trkpt lat="43.76789" lon="3.87973">
        <ele>175</ele>
        <time>2026-03-27T13:35:02.000Z</time>
      </trkpt>
      <trkpt lat="43.76798" lon="3.87978">
        <ele>175</ele>
        <time>2026-03-27T13:35:18.000Z</time>
      </trkpt>
      <trkpt lat="43.76804" lon="3.87986">
        <ele>175</ele>
        <time>2026-03-27T13:35:30.000Z</time>
      </trkpt>
      <trkpt lat="43.76806" lon="3.87998">
        <ele>175</ele>
        <time>2026-03-27T13:35:39.000Z</time>
      </trkpt>
      <trkpt lat="43.7681" lon="3.8801">
        <ele>175</ele>
        <time>2026-03-27T13:35:58.000Z</time>
      </trkpt>
      <trkpt lat="43.76811" lon="3.88024">
        <ele>175</ele>
        <time>2026-03-27T13:37:25.000Z</time>
      </trkpt>
      <trkpt lat="43.76813" lon="3.88036">
        <ele>175</ele>
        <time>2026-03-27T13:37:34.000Z</time>
      </trkpt>
      <trkpt lat="43.76815" lon="3.88048">
        <ele>175</ele>
        <time>2026-03-27T13:37:42.000Z</time>
      </trkpt>
      <trkpt lat="43.76817" lon="3.88061">
        <ele>175</ele>
        <time>2026-03-27T13:37:52.000Z</time>
      </trkpt>
      <trkpt lat="43.76822" lon="3.88071">
        <ele>175</ele>
        <time>2026-03-27T13:38:02.000Z</time>
      </trkpt>
      <trkpt lat="43.7683" lon="3.88076">
        <ele>175</ele>
        <time>2026-03-27T13:38:14.000Z</time>
      </trkpt>
      <trkpt lat="43.76837" lon="3.88081">
        <ele>175</ele>
        <time>2026-03-27T13:38:53.000Z</time>
      </trkpt>
      <trkpt lat="43.7684" lon="3.88093">
        <ele>175</ele>
        <time>2026-03-27T13:39:18.000Z</time>
      </trkpt>
      <trkpt lat="43.76839" lon="3.88106">
        <ele>176</ele>
        <time>2026-03-27T13:39:26.000Z</time>
      </trkpt>
      <trkpt lat="43.76842" lon="3.88118">
        <ele>177</ele>
        <time>2026-03-27T13:39:38.000Z</time>
      </trkpt>
      <trkpt lat="43.76843" lon="3.8813">
        <ele>179</ele>
        <time>2026-03-27T13:39:49.000Z</time>
      </trkpt>
      <trkpt lat="43.76838" lon="3.8814">
        <ele>181</ele>
        <time>2026-03-27T13:39:59.000Z</time>
      </trkpt>
      <trkpt lat="43.7683" lon="3.88147">
        <ele>182</ele>
        <time>2026-03-27T13:40:10.000Z</time>
      </trkpt>
      <trkpt lat="43.76823" lon="3.88156">
        <ele>182</ele>
        <time>2026-03-27T13:40:20.000Z</time>
      </trkpt>
      <trkpt lat="43.76817" lon="3.88166">
        <ele>183</ele>
        <time>2026-03-27T13:40:28.000Z</time>
      </trkpt>
      <trkpt lat="43.76812" lon="3.88178">
        <ele>183</ele>
        <time>2026-03-27T13:40:40.000Z</time>
      </trkpt>
      <trkpt lat="43.76807" lon="3.8819">
        <ele>185</ele>
        <time>2026-03-27T13:40:53.000Z</time>
      </trkpt>
      <trkpt lat="43.76799" lon="3.882">
        <ele>186</ele>
        <time>2026-03-27T13:41:02.000Z</time>
      </trkpt>
      <trkpt lat="43.76793" lon="3.88209">
        <ele>188</ele>
        <time>2026-03-27T13:41:10.000Z</time>
      </trkpt>
      <trkpt lat="43.76788" lon="3.88215">
        <ele>189</ele>
        <time>2026-03-27T13:41:22.000Z</time>
      </trkpt>
      <trkpt lat="43.7679" lon="3.8821">
        <ele>190</ele>
        <time>2026-03-27T13:42:46.000Z</time>
      </trkpt>
      <trkpt lat="43.76786" lon="3.88217">
        <ele>191</ele>
        <time>2026-03-27T13:45:31.000Z</time>
      </trkpt>
      <trkpt lat="43.76782" lon="3.88228">
        <ele>191</ele>
        <time>2026-03-27T13:45:39.000Z</time>
      </trkpt>
      <trkpt lat="43.76777" lon="3.8824">
        <ele>192</ele>
        <time>2026-03-27T13:45:49.000Z</time>
      </trkpt>
      <trkpt lat="43.76772" lon="3.88251">
        <ele>192</ele>
        <time>2026-03-27T13:45:58.000Z</time>
      </trkpt>
      <trkpt lat="43.76766" lon="3.88261">
        <ele>193</ele>
        <time>2026-03-27T13:46:07.000Z</time>
      </trkpt>
      <trkpt lat="43.76761" lon="3.88272">
        <ele>193</ele>
        <time>2026-03-27T13:46:22.000Z</time>
      </trkpt>
      <trkpt lat="43.76755" lon="3.88284">
        <ele>194</ele>
        <time>2026-03-27T13:46:29.000Z</time>
      </trkpt>
      <trkpt lat="43.76749" lon="3.88295">
        <ele>195</ele>
        <time>2026-03-27T13:46:39.000Z</time>
      </trkpt>
      <trkpt lat="43.76743" lon="3.88305">
        <ele>196</ele>
        <time>2026-03-27T13:46:48.000Z</time>
      </trkpt>
      <trkpt lat="43.76738" lon="3.88315">
        <ele>197</ele>
        <time>2026-03-27T13:46:56.000Z</time>
      </trkpt>
      <trkpt lat="43.76734" lon="3.88326">
        <ele>198</ele>
        <time>2026-03-27T13:47:06.000Z</time>
      </trkpt>
      <trkpt lat="43.76733" lon="3.88339">
        <ele>199</ele>
        <time>2026-03-27T13:47:18.000Z</time>
      </trkpt>
      <trkpt lat="43.76735" lon="3.8835">
        <ele>200</ele>
        <time>2026-03-27T13:47:24.000Z</time>
      </trkpt>
      <trkpt lat="43.76733" lon="3.88362">
        <ele>200</ele>
        <time>2026-03-27T13:47:32.000Z</time>
      </trkpt>
      <trkpt lat="43.76727" lon="3.88374">
        <ele>200</ele>
        <time>2026-03-27T13:47:41.000Z</time>
      </trkpt>
      <trkpt lat="43.76721" lon="3.88383">
        <ele>200</ele>
        <time>2026-03-27T13:47:51.000Z</time>
      </trkpt>
      <trkpt lat="43.76719" lon="3.88395">
        <ele>200</ele>
        <time>2026-03-27T13:48:01.000Z</time>
      </trkpt>
      <trkpt lat="43.76716" lon="3.88408">
        <ele>200</ele>
        <time>2026-03-27T13:48:11.000Z</time>
      </trkpt>
      <trkpt lat="43.76712" lon="3.88421">
        <ele>200</ele>
        <time>2026-03-27T13:48:22.000Z</time>
      </trkpt>
      <trkpt lat="43.76711" lon="3.88434">
        <ele>200</ele>
        <time>2026-03-27T13:48:29.000Z</time>
      </trkpt>
      <trkpt lat="43.7671" lon="3.88447">
        <ele>200</ele>
        <time>2026-03-27T13:48:42.000Z</time>
      </trkpt>
      <trkpt lat="43.76711" lon="3.88461">
        <ele>199</ele>
        <time>2026-03-27T13:48:52.000Z</time>
      </trkpt>
      <trkpt lat="43.76712" lon="3.88474">
        <ele>199</ele>
        <time>2026-03-27T13:48:59.000Z</time>
      </trkpt>
      <trkpt lat="43.76711" lon="3.88486">
        <ele>199</ele>
        <time>2026-03-27T13:49:07.000Z</time>
      </trkpt>
      <trkpt lat="43.76712" lon="3.88498">
        <ele>199</ele>
        <time>2026-03-27T13:49:16.000Z</time>
      </trkpt>
      <trkpt lat="43.76714" lon="3.88511">
        <ele>199</ele>
        <time>2026-03-27T13:49:22.000Z</time>
      </trkpt>
      <trkpt lat="43.76717" lon="3.88525">
        <ele>199</ele>
        <time>2026-03-27T13:49:33.000Z</time>
      </trkpt>
      <trkpt lat="43.7672" lon="3.88538">
        <ele>199</ele>
        <time>2026-03-27T13:49:45.000Z</time>
      </trkpt>
      <trkpt lat="43.76725" lon="3.8855">
        <ele>199</ele>
        <time>2026-03-27T13:49:56.000Z</time>
      </trkpt>
      <trkpt lat="43.76728" lon="3.88562">
        <ele>200</ele>
        <time>2026-03-27T13:50:03.000Z</time>
      </trkpt>
      <trkpt lat="43.76735" lon="3.8857">
        <ele>201</ele>
        <time>2026-03-27T13:50:12.000Z</time>
      </trkpt>
      <trkpt lat="43.76741" lon="3.88581">
        <ele>202</ele>
        <time>2026-03-27T13:50:23.000Z</time>
      </trkpt>
      <trkpt lat="43.76747" lon="3.8859">
        <ele>204</ele>
        <time>2026-03-27T13:50:37.000Z</time>
      </trkpt>
      <trkpt lat="43.76751" lon="3.88603">
        <ele>205</ele>
        <time>2026-03-27T13:50:45.000Z</time>
      </trkpt>
      <trkpt lat="43.76755" lon="3.88614">
        <ele>206</ele>
        <time>2026-03-27T13:50:55.000Z</time>
      </trkpt>
      <trkpt lat="43.76756" lon="3.88626">
        <ele>206</ele>
        <time>2026-03-27T13:51:06.000Z</time>
      </trkpt>
      <trkpt lat="43.76758" lon="3.88639">
        <ele>206</ele>
        <time>2026-03-27T13:51:31.000Z</time>
      </trkpt>
      <trkpt lat="43.76759" lon="3.88653">
        <ele>206</ele>
        <time>2026-03-27T13:51:44.000Z</time>
      </trkpt>
      <trkpt lat="43.76751" lon="3.8866">
        <ele>206</ele>
        <time>2026-03-27T13:51:52.000Z</time>
      </trkpt>
      <trkpt lat="43.76741" lon="3.88662">
        <ele>205</ele>
        <time>2026-03-27T13:51:58.000Z</time>
      </trkpt>
      <trkpt lat="43.76732" lon="3.88661">
        <ele>204</ele>
        <time>2026-03-27T13:52:07.000Z</time>
      </trkpt>
      <trkpt lat="43.76725" lon="3.88651">
        <ele>203</ele>
        <time>2026-03-27T13:52:17.000Z</time>
      </trkpt>
      <trkpt lat="43.7672" lon="3.88639">
        <ele>202</ele>
        <time>2026-03-27T13:52:27.000Z</time>
      </trkpt>
      <trkpt lat="43.76715" lon="3.88629">
        <ele>202</ele>
        <time>2026-03-27T13:52:35.000Z</time>
      </trkpt>
      <trkpt lat="43.7671" lon="3.8862">
        <ele>203</ele>
        <time>2026-03-27T13:52:43.000Z</time>
      </trkpt>
      <trkpt lat="43.76702" lon="3.88614">
        <ele>205</ele>
        <time>2026-03-27T13:52:50.000Z</time>
      </trkpt>
      <trkpt lat="43.76694" lon="3.88608">
        <ele>207</ele>
        <time>2026-03-27T13:52:59.000Z</time>
      </trkpt>
      <trkpt lat="43.76685" lon="3.88605">
        <ele>209</ele>
        <time>2026-03-27T13:53:06.000Z</time>
      </trkpt>
      <trkpt lat="43.76676" lon="3.88605">
        <ele>212</ele>
        <time>2026-03-27T13:53:15.000Z</time>
      </trkpt>
      <trkpt lat="43.76665" lon="3.88606">
        <ele>214</ele>
        <time>2026-03-27T13:53:24.000Z</time>
      </trkpt>
      <trkpt lat="43.76657" lon="3.88603">
        <ele>215</ele>
        <time>2026-03-27T13:53:35.000Z</time>
      </trkpt>
      <trkpt lat="43.76652" lon="3.88593">
        <ele>216</ele>
        <time>2026-03-27T13:53:43.000Z</time>
      </trkpt>
      <trkpt lat="43.76645" lon="3.88584">
        <ele>216</ele>
        <time>2026-03-27T13:53:53.000Z</time>
      </trkpt>
      <trkpt lat="43.76637" lon="3.88579">
        <ele>216</ele>
        <time>2026-03-27T13:54:04.000Z</time>
      </trkpt>
      <trkpt lat="43.76629" lon="3.88579">
        <ele>216</ele>
        <time>2026-03-27T13:54:10.000Z</time>
      </trkpt>
      <trkpt lat="43.76619" lon="3.88579">
        <ele>216</ele>
        <time>2026-03-27T13:54:17.000Z</time>
      </trkpt>
      <trkpt lat="43.76613" lon="3.8857">
        <ele>217</ele>
        <time>2026-03-27T13:54:39.000Z</time>
      </trkpt>
      <trkpt lat="43.76613" lon="3.88559">
        <ele>218</ele>
        <time>2026-03-27T13:54:51.000Z</time>
      </trkpt>
      <trkpt lat="43.76621" lon="3.8855">
        <ele>219</ele>
        <time>2026-03-27T13:54:59.000Z</time>
      </trkpt>
      <trkpt lat="43.76627" lon="3.8854">
        <ele>220</ele>
        <time>2026-03-27T13:55:09.000Z</time>
      </trkpt>
      <trkpt lat="43.76632" lon="3.8853">
        <ele>221</ele>
        <time>2026-03-27T13:55:17.000Z</time>
      </trkpt>
      <trkpt lat="43.76636" lon="3.88517">
        <ele>221</ele>
        <time>2026-03-27T13:55:25.000Z</time>
      </trkpt>
      <trkpt lat="43.76637" lon="3.88503">
        <ele>222</ele>
        <time>2026-03-27T13:55:33.000Z</time>
      </trkpt>
      <trkpt lat="43.76638" lon="3.88489">
        <ele>223</ele>
        <time>2026-03-27T13:55:41.000Z</time>
      </trkpt>
      <trkpt lat="43.76637" lon="3.88475">
        <ele>224</ele>
        <time>2026-03-27T13:55:52.000Z</time>
      </trkpt>
      <trkpt lat="43.76637" lon="3.88462">
        <ele>225</ele>
        <time>2026-03-27T13:55:58.000Z</time>
      </trkpt>
      <trkpt lat="43.76638" lon="3.88448">
        <ele>225</ele>
        <time>2026-03-27T13:56:09.000Z</time>
      </trkpt>
      <trkpt lat="43.76638" lon="3.88436">
        <ele>226</ele>
        <time>2026-03-27T13:56:19.000Z</time>
      </trkpt>
      <trkpt lat="43.76638" lon="3.88423">
        <ele>226</ele>
        <time>2026-03-27T13:56:31.000Z</time>
      </trkpt>
      <trkpt lat="43.76639" lon="3.88409">
        <ele>226</ele>
        <time>2026-03-27T13:56:41.000Z</time>
      </trkpt>
      <trkpt lat="43.76642" lon="3.88396">
        <ele>227</ele>
        <time>2026-03-27T13:56:50.000Z</time>
      </trkpt>
      <trkpt lat="43.76642" lon="3.88383">
        <ele>227</ele>
        <time>2026-03-27T13:57:01.000Z</time>
      </trkpt>
      <trkpt lat="43.76644" lon="3.88371">
        <ele>226</ele>
        <time>2026-03-27T13:57:08.000Z</time>
      </trkpt>
      <trkpt lat="43.76644" lon="3.88358">
        <ele>226</ele>
        <time>2026-03-27T13:57:17.000Z</time>
      </trkpt>
      <trkpt lat="43.76643" lon="3.88346">
        <ele>226</ele>
        <time>2026-03-27T13:57:25.000Z</time>
      </trkpt>
      <trkpt lat="43.76643" lon="3.88336">
        <ele>226</ele>
        <time>2026-03-27T13:57:34.000Z</time>
      </trkpt>
      <trkpt lat="43.76636" lon="3.8834">
        <ele>227</ele>
        <time>2026-03-27T13:58:01.000Z</time>
      </trkpt>
      <trkpt lat="43.7663" lon="3.8835">
        <ele>227</ele>
        <time>2026-03-27T13:58:15.000Z</time>
      </trkpt>
      <trkpt lat="43.76622" lon="3.88356">
        <ele>228</ele>
        <time>2026-03-27T13:58:27.000Z</time>
      </trkpt>
      <trkpt lat="43.76616" lon="3.88365">
        <ele>228</ele>
        <time>2026-03-27T13:58:37.000Z</time>
      </trkpt>
      <trkpt lat="43.7661" lon="3.88375">
        <ele>228</ele>
        <time>2026-03-27T13:58:45.000Z</time>
      </trkpt>
      <trkpt lat="43.76604" lon="3.88383">
        <ele>229</ele>
        <time>2026-03-27T13:58:52.000Z</time>
      </trkpt>
      <trkpt lat="43.76599" lon="3.88394">
        <ele>231</ele>
        <time>2026-03-27T13:59:02.000Z</time>
      </trkpt>
      <trkpt lat="43.76594" lon="3.88406">
        <ele>232</ele>
        <time>2026-03-27T13:59:14.000Z</time>
      </trkpt>
      <trkpt lat="43.76589" lon="3.88417">
        <ele>233</ele>
        <time>2026-03-27T13:59:22.000Z</time>
      </trkpt>
      <trkpt lat="43.76583" lon="3.88426">
        <ele>234</ele>
        <time>2026-03-27T13:59:33.000Z</time>
      </trkpt>
      <trkpt lat="43.76577" lon="3.88435">
        <ele>236</ele>
        <time>2026-03-27T13:59:41.000Z</time>
      </trkpt>
      <trkpt lat="43.76573" lon="3.88446">
        <ele>236</ele>
        <time>2026-03-27T13:59:49.000Z</time>
      </trkpt>
      <trkpt lat="43.76569" lon="3.88457">
        <ele>237</ele>
        <time>2026-03-27T13:59:57.000Z</time>
      </trkpt>
      <trkpt lat="43.76565" lon="3.8847">
        <ele>238</ele>
        <time>2026-03-27T14:00:06.000Z</time>
      </trkpt>
      <trkpt lat="43.76561" lon="3.88482">
        <ele>239</ele>
        <time>2026-03-27T14:00:15.000Z</time>
      </trkpt>
      <trkpt lat="43.76557" lon="3.88494">
        <ele>240</ele>
        <time>2026-03-27T14:00:24.000Z</time>
      </trkpt>
      <trkpt lat="43.7655" lon="3.88504">
        <ele>241</ele>
        <time>2026-03-27T14:00:34.000Z</time>
      </trkpt>
      <trkpt lat="43.76545" lon="3.88514">
        <ele>242</ele>
        <time>2026-03-27T14:00:45.000Z</time>
      </trkpt>
      <trkpt lat="43.76541" lon="3.88526">
        <ele>242</ele>
        <time>2026-03-27T14:00:53.000Z</time>
      </trkpt>
      <trkpt lat="43.76537" lon="3.88537">
        <ele>242</ele>
        <time>2026-03-27T14:01:02.000Z</time>
      </trkpt>
      <trkpt lat="43.76532" lon="3.8855">
        <ele>242</ele>
        <time>2026-03-27T14:01:11.000Z</time>
      </trkpt>
      <trkpt lat="43.76527" lon="3.88561">
        <ele>242</ele>
        <time>2026-03-27T14:01:19.000Z</time>
      </trkpt>
      <trkpt lat="43.76518" lon="3.88566">
        <ele>243</ele>
        <time>2026-03-27T14:01:32.000Z</time>
      </trkpt>
      <trkpt lat="43.7651" lon="3.88569">
        <ele>244</ele>
        <time>2026-03-27T14:01:40.000Z</time>
      </trkpt>
      <trkpt lat="43.76501" lon="3.88567">
        <ele>245</ele>
        <time>2026-03-27T14:01:52.000Z</time>
      </trkpt>
      <trkpt lat="43.76492" lon="3.8857">
        <ele>246</ele>
        <time>2026-03-27T14:01:58.000Z</time>
      </trkpt>
      <trkpt lat="43.76488" lon="3.88576">
        <ele>247</ele>
        <time>2026-03-27T14:02:39.000Z</time>
      </trkpt>
      <trkpt lat="43.76494" lon="3.88569">
        <ele>248</ele>
        <time>2026-03-27T14:03:15.000Z</time>
      </trkpt>
      <trkpt lat="43.76489" lon="3.88575">
        <ele>248</ele>
        <time>2026-03-27T14:04:45.000Z</time>
      </trkpt>
      <trkpt lat="43.76483" lon="3.88585">
        <ele>247</ele>
        <time>2026-03-27T14:04:58.000Z</time>
      </trkpt>
      <trkpt lat="43.76479" lon="3.88597">
        <ele>247</ele>
        <time>2026-03-27T14:05:04.000Z</time>
      </trkpt>
      <trkpt lat="43.76478" lon="3.88609">
        <ele>245</ele>
        <time>2026-03-27T14:05:14.000Z</time>
      </trkpt>
      <trkpt lat="43.76479" lon="3.88622">
        <ele>244</ele>
        <time>2026-03-27T14:05:27.000Z</time>
      </trkpt>
      <trkpt lat="43.76487" lon="3.88632">
        <ele>243</ele>
        <time>2026-03-27T14:05:37.000Z</time>
      </trkpt>
      <trkpt lat="43.76496" lon="3.88636">
        <ele>242</ele>
        <time>2026-03-27T14:05:43.000Z</time>
      </trkpt>
      <trkpt lat="43.76506" lon="3.88637">
        <ele>242</ele>
        <time>2026-03-27T14:05:52.000Z</time>
      </trkpt>
      <trkpt lat="43.76514" lon="3.88642">
        <ele>241</ele>
        <time>2026-03-27T14:05:58.000Z</time>
      </trkpt>
      <trkpt lat="43.76523" lon="3.8865">
        <ele>241</ele>
        <time>2026-03-27T14:06:08.000Z</time>
      </trkpt>
      <trkpt lat="43.76533" lon="3.88657">
        <ele>241</ele>
        <time>2026-03-27T14:06:18.000Z</time>
      </trkpt>
      <trkpt lat="43.76542" lon="3.88664">
        <ele>241</ele>
        <time>2026-03-27T14:06:28.000Z</time>
      </trkpt>
      <trkpt lat="43.76551" lon="3.88669">
        <ele>241</ele>
        <time>2026-03-27T14:06:39.000Z</time>
      </trkpt>
      <trkpt lat="43.7656" lon="3.88675">
        <ele>241</ele>
        <time>2026-03-27T14:06:48.000Z</time>
      </trkpt>
      <trkpt lat="43.76569" lon="3.88682">
        <ele>241</ele>
        <time>2026-03-27T14:06:58.000Z</time>
      </trkpt>
      <trkpt lat="43.76577" lon="3.8869">
        <ele>242</ele>
        <time>2026-03-27T14:07:07.000Z</time>
      </trkpt>
      <trkpt lat="43.76585" lon="3.88698">
        <ele>242</ele>
        <time>2026-03-27T14:07:18.000Z</time>
      </trkpt>
      <trkpt lat="43.76594" lon="3.88707">
        <ele>242</ele>
        <time>2026-03-27T14:07:28.000Z</time>
      </trkpt>
      <trkpt lat="43.76602" lon="3.88713">
        <ele>242</ele>
        <time>2026-03-27T14:07:38.000Z</time>
      </trkpt>
      <trkpt lat="43.7661" lon="3.88721">
        <ele>242</ele>
        <time>2026-03-27T14:07:47.000Z</time>
      </trkpt>
      <trkpt lat="43.76618" lon="3.88729">
        <ele>243</ele>
        <time>2026-03-27T14:07:56.000Z</time>
      </trkpt>
      <trkpt lat="43.76625" lon="3.88736">
        <ele>243</ele>
        <time>2026-03-27T14:08:04.000Z</time>
      </trkpt>
      <trkpt lat="43.76633" lon="3.88743">
        <ele>243</ele>
        <time>2026-03-27T14:08:14.000Z</time>
      </trkpt>
      <trkpt lat="43.76641" lon="3.8875">
        <ele>243</ele>
        <time>2026-03-27T14:08:23.000Z</time>
      </trkpt>
      <trkpt lat="43.7665" lon="3.88755">
        <ele>243</ele>
        <time>2026-03-27T14:08:32.000Z</time>
      </trkpt>
      <trkpt lat="43.76658" lon="3.88762">
        <ele>243</ele>
        <time>2026-03-27T14:08:43.000Z</time>
      </trkpt>
      <trkpt lat="43.76666" lon="3.8877">
        <ele>243</ele>
        <time>2026-03-27T14:08:52.000Z</time>
      </trkpt>
      <trkpt lat="43.76675" lon="3.88776">
        <ele>244</ele>
        <time>2026-03-27T14:09:04.000Z</time>
      </trkpt>
      <trkpt lat="43.76684" lon="3.8878">
        <ele>245</ele>
        <time>2026-03-27T14:09:17.000Z</time>
      </trkpt>
      <trkpt lat="43.76692" lon="3.88787">
        <ele>246</ele>
        <time>2026-03-27T14:09:24.000Z</time>
      </trkpt>
      <trkpt lat="43.76699" lon="3.88796">
        <ele>247</ele>
        <time>2026-03-27T14:09:33.000Z</time>
      </trkpt>
      <trkpt lat="43.76706" lon="3.88804">
        <ele>249</ele>
        <time>2026-03-27T14:09:42.000Z</time>
      </trkpt>
      <trkpt lat="43.76714" lon="3.88811">
        <ele>249</ele>
        <time>2026-03-27T14:09:52.000Z</time>
      </trkpt>
      <trkpt lat="43.76722" lon="3.88817">
        <ele>250</ele>
        <time>2026-03-27T14:10:41.000Z</time>
      </trkpt>
      <trkpt lat="43.7673" lon="3.88822">
        <ele>250</ele>
        <time>2026-03-27T14:11:17.000Z</time>
      </trkpt>
      <trkpt lat="43.76739" lon="3.88828">
        <ele>250</ele>
        <time>2026-03-27T14:11:23.000Z</time>
      </trkpt>
      <trkpt lat="43.76746" lon="3.88838">
        <ele>251</ele>
        <time>2026-03-27T14:11:32.000Z</time>
      </trkpt>
      <trkpt lat="43.76752" lon="3.88847">
        <ele>251</ele>
        <time>2026-03-27T14:11:43.000Z</time>
      </trkpt>
      <trkpt lat="43.76759" lon="3.88857">
        <ele>252</ele>
        <time>2026-03-27T14:11:52.000Z</time>
      </trkpt>
      <trkpt lat="43.76766" lon="3.88866">
        <ele>253</ele>
        <time>2026-03-27T14:12:01.000Z</time>
      </trkpt>
      <trkpt lat="43.76774" lon="3.88872">
        <ele>253</ele>
        <time>2026-03-27T14:12:10.000Z</time>
      </trkpt>
      <trkpt lat="43.76784" lon="3.88878">
        <ele>254</ele>
        <time>2026-03-27T14:12:20.000Z</time>
      </trkpt>
      <trkpt lat="43.76792" lon="3.88886">
        <ele>255</ele>
        <time>2026-03-27T14:12:31.000Z</time>
      </trkpt>
      <trkpt lat="43.76799" lon="3.88895">
        <ele>257</ele>
        <time>2026-03-27T14:12:36.000Z</time>
      </trkpt>
      <trkpt lat="43.76806" lon="3.88903">
        <ele>258</ele>
        <time>2026-03-27T14:12:44.000Z</time>
      </trkpt>
      <trkpt lat="43.76813" lon="3.8891">
        <ele>260</ele>
        <time>2026-03-27T14:12:52.000Z</time>
      </trkpt>
      <trkpt lat="43.76821" lon="3.88917">
        <ele>262</ele>
        <time>2026-03-27T14:13:03.000Z</time>
      </trkpt>
      <trkpt lat="43.76831" lon="3.88922">
        <ele>264</ele>
        <time>2026-03-27T14:13:11.000Z</time>
      </trkpt>
      <trkpt lat="43.7684" lon="3.88929">
        <ele>265</ele>
        <time>2026-03-27T14:13:22.000Z</time>
      </trkpt>
      <trkpt lat="43.76848" lon="3.88936">
        <ele>267</ele>
        <time>2026-03-27T14:13:32.000Z</time>
      </trkpt>
      <trkpt lat="43.76854" lon="3.88945">
        <ele>268</ele>
        <time>2026-03-27T14:13:44.000Z</time>
      </trkpt>
      <trkpt lat="43.76862" lon="3.88954">
        <ele>269</ele>
        <time>2026-03-27T14:13:57.000Z</time>
      </trkpt>
      <trkpt lat="43.76869" lon="3.88961">
        <ele>269</ele>
        <time>2026-03-27T14:14:04.000Z</time>
      </trkpt>
      <trkpt lat="43.76878" lon="3.88966">
        <ele>270</ele>
        <time>2026-03-27T14:14:14.000Z</time>
      </trkpt>
      <trkpt lat="43.76887" lon="3.8897">
        <ele>271</ele>
        <time>2026-03-27T14:14:20.000Z</time>
      </trkpt>
      <trkpt lat="43.76894" lon="3.88977">
        <ele>272</ele>
        <time>2026-03-27T14:14:31.000Z</time>
      </trkpt>
      <trkpt lat="43.76903" lon="3.88984">
        <ele>274</ele>
        <time>2026-03-27T14:14:38.000Z</time>
      </trkpt>
      <trkpt lat="43.76911" lon="3.88991">
        <ele>276</ele>
        <time>2026-03-27T14:14:47.000Z</time>
      </trkpt>
      <trkpt lat="43.7692" lon="3.88996">
        <ele>277</ele>
        <time>2026-03-27T14:14:55.000Z</time>
      </trkpt>
      <trkpt lat="43.7693" lon="3.88999">
        <ele>279</ele>
        <time>2026-03-27T14:15:06.000Z</time>
      </trkpt>
      <trkpt lat="43.76941" lon="3.89002">
        <ele>280</ele>
        <time>2026-03-27T14:15:15.000Z</time>
      </trkpt>
      <trkpt lat="43.76951" lon="3.89006">
        <ele>280</ele>
        <time>2026-03-27T14:15:22.000Z</time>
      </trkpt>
      <trkpt lat="43.76961" lon="3.89009">
        <ele>279</ele>
        <time>2026-03-27T14:15:33.000Z</time>
      </trkpt>
      <trkpt lat="43.76969" lon="3.8901">
        <ele>279</ele>
        <time>2026-03-27T14:15:41.000Z</time>
      </trkpt>
      <trkpt lat="43.76976" lon="3.89005">
        <ele>278</ele>
        <time>2026-03-27T14:16:25.000Z</time>
      </trkpt>
      <trkpt lat="43.76986" lon="3.89007">
        <ele>277</ele>
        <time>2026-03-27T14:17:19.000Z</time>
      </trkpt>
      <trkpt lat="43.76995" lon="3.89004">
        <ele>277</ele>
        <time>2026-03-27T14:17:26.000Z</time>
      </trkpt>
      <trkpt lat="43.77004" lon="3.89003">
        <ele>277</ele>
        <time>2026-03-27T14:17:37.000Z</time>
      </trkpt>
      <trkpt lat="43.77015" lon="3.89003">
        <ele>277</ele>
        <time>2026-03-27T14:17:47.000Z</time>
      </trkpt>
      <trkpt lat="43.77025" lon="3.89004">
        <ele>278</ele>
        <time>2026-03-27T14:17:57.000Z</time>
      </trkpt>
      <trkpt lat="43.77035" lon="3.89001">
        <ele>279</ele>
        <time>2026-03-27T14:18:06.000Z</time>
      </trkpt>
      <trkpt lat="43.77044" lon="3.88997">
        <ele>279</ele>
        <time>2026-03-27T14:18:16.000Z</time>
      </trkpt>
      <trkpt lat="43.77053" lon="3.88992">
        <ele>280</ele>
        <time>2026-03-27T14:18:27.000Z</time>
      </trkpt>
      <trkpt lat="43.77063" lon="3.88988">
        <ele>280</ele>
        <time>2026-03-27T14:18:37.000Z</time>
      </trkpt>
      <trkpt lat="43.77071" lon="3.88982">
        <ele>280</ele>
        <time>2026-03-27T14:18:46.000Z</time>
      </trkpt>
      <trkpt lat="43.7708" lon="3.88977">
        <ele>281</ele>
        <time>2026-03-27T14:18:56.000Z</time>
      </trkpt>
      <trkpt lat="43.7709" lon="3.88974">
        <ele>281</ele>
        <time>2026-03-27T14:19:05.000Z</time>
      </trkpt>
      <trkpt lat="43.77099" lon="3.88971">
        <ele>281</ele>
        <time>2026-03-27T14:19:12.000Z</time>
      </trkpt>
      <trkpt lat="43.77107" lon="3.88969">
        <ele>281</ele>
        <time>2026-03-27T14:19:21.000Z</time>
      </trkpt>
      <trkpt lat="43.77115" lon="3.88963">
        <ele>281</ele>
        <time>2026-03-27T14:19:30.000Z</time>
      </trkpt>
      <trkpt lat="43.77122" lon="3.88955">
        <ele>282</ele>
        <time>2026-03-27T14:19:43.000Z</time>
      </trkpt>
      <trkpt lat="43.7713" lon="3.88947">
        <ele>282</ele>
        <time>2026-03-27T14:19:51.000Z</time>
      </trkpt>
      <trkpt lat="43.77135" lon="3.88937">
        <ele>282</ele>
        <time>2026-03-27T14:19:59.000Z</time>
      </trkpt>
      <trkpt lat="43.77138" lon="3.88924">
        <ele>281</ele>
        <time>2026-03-27T14:20:11.000Z</time>
      </trkpt>
      <trkpt lat="43.77141" lon="3.88912">
        <ele>280</ele>
        <time>2026-03-27T14:20:22.000Z</time>
      </trkpt>
      <trkpt lat="43.77144" lon="3.889">
        <ele>279</ele>
        <time>2026-03-27T14:20:33.000Z</time>
      </trkpt>
      <trkpt lat="43.77149" lon="3.88891">
        <ele>278</ele>
        <time>2026-03-27T14:20:41.000Z</time>
      </trkpt>
      <trkpt lat="43.77154" lon="3.88881">
        <ele>277</ele>
        <time>2026-03-27T14:20:55.000Z</time>
      </trkpt>
      <trkpt lat="43.77162" lon="3.88877">
        <ele>276</ele>
        <time>2026-03-27T14:21:02.000Z</time>
      </trkpt>
      <trkpt lat="43.7717" lon="3.8888">
        <ele>274</ele>
        <time>2026-03-27T14:21:13.000Z</time>
      </trkpt>
      <trkpt lat="43.77179" lon="3.88882">
        <ele>273</ele>
        <time>2026-03-27T14:21:22.000Z</time>
      </trkpt>
      <trkpt lat="43.77189" lon="3.88883">
        <ele>272</ele>
        <time>2026-03-27T14:21:32.000Z</time>
      </trkpt>
      <trkpt lat="43.77198" lon="3.88883">
        <ele>271</ele>
        <time>2026-03-27T14:21:41.000Z</time>
      </trkpt>
      <trkpt lat="43.77207" lon="3.88884">
        <ele>270</ele>
        <time>2026-03-27T14:21:48.000Z</time>
      </trkpt>
      <trkpt lat="43.77217" lon="3.88884">
        <ele>269</ele>
        <time>2026-03-27T14:22:02.000Z</time>
      </trkpt>
      <trkpt lat="43.77226" lon="3.88886">
        <ele>269</ele>
        <time>2026-03-27T14:22:10.000Z</time>
      </trkpt>
      <trkpt lat="43.77235" lon="3.88888">
        <ele>268</ele>
        <time>2026-03-27T14:22:20.000Z</time>
      </trkpt>
      <trkpt lat="43.77244" lon="3.88889">
        <ele>266</ele>
        <time>2026-03-27T14:22:29.000Z</time>
      </trkpt>
      <trkpt lat="43.77253" lon="3.88891">
        <ele>265</ele>
        <time>2026-03-27T14:22:39.000Z</time>
      </trkpt>
      <trkpt lat="43.77261" lon="3.88896">
        <ele>264</ele>
        <time>2026-03-27T14:22:46.000Z</time>
      </trkpt>
      <trkpt lat="43.7727" lon="3.88902">
        <ele>263</ele>
        <time>2026-03-27T14:22:57.000Z</time>
      </trkpt>
      <trkpt lat="43.7728" lon="3.88902">
        <ele>262</ele>
        <time>2026-03-27T14:23:12.000Z</time>
      </trkpt>
      <trkpt lat="43.7729" lon="3.88902">
        <ele>261</ele>
        <time>2026-03-27T14:23:18.000Z</time>
      </trkpt>
      <trkpt lat="43.77299" lon="3.88902">
        <ele>259</ele>
        <time>2026-03-27T14:23:28.000Z</time>
      </trkpt>
      <trkpt lat="43.77307" lon="3.88903">
        <ele>258</ele>
        <time>2026-03-27T14:23:37.000Z</time>
      </trkpt>
      <trkpt lat="43.77316" lon="3.88909">
        <ele>257</ele>
        <time>2026-03-27T14:23:47.000Z</time>
      </trkpt>
      <trkpt lat="43.77323" lon="3.88919">
        <ele>257</ele>
        <time>2026-03-27T14:23:55.000Z</time>
      </trkpt>
      <trkpt lat="43.7733" lon="3.88927">
        <ele>256</ele>
        <time>2026-03-27T14:24:05.000Z</time>
      </trkpt>
      <trkpt lat="43.77338" lon="3.8893">
        <ele>256</ele>
        <time>2026-03-27T14:24:13.000Z</time>
      </trkpt>
      <trkpt lat="43.77346" lon="3.88933">
        <ele>256</ele>
        <time>2026-03-27T14:25:14.000Z</time>
      </trkpt>
      <trkpt lat="43.77356" lon="3.88939">
        <ele>256</ele>
        <time>2026-03-27T14:25:20.000Z</time>
      </trkpt>
      <trkpt lat="43.77364" lon="3.88936">
        <ele>256</ele>
        <time>2026-03-27T14:25:27.000Z</time>
      </trkpt>
      <trkpt lat="43.77365" lon="3.88924">
        <ele>256</ele>
        <time>2026-03-27T14:25:33.000Z</time>
      </trkpt>
      <trkpt lat="43.77361" lon="3.88913">
        <ele>255</ele>
        <time>2026-03-27T14:25:39.000Z</time>
      </trkpt>
      <trkpt lat="43.77355" lon="3.88902">
        <ele>254</ele>
        <time>2026-03-27T14:25:47.000Z</time>
      </trkpt>
      <trkpt lat="43.7735" lon="3.88889">
        <ele>253</ele>
        <time>2026-03-27T14:25:55.000Z</time>
      </trkpt>
      <trkpt lat="43.77343" lon="3.88879">
        <ele>252</ele>
        <time>2026-03-27T14:26:05.000Z</time>
      </trkpt>
      <trkpt lat="43.77335" lon="3.88873">
        <ele>251</ele>
        <time>2026-03-27T14:26:11.000Z</time>
      </trkpt>
      <trkpt lat="43.77326" lon="3.88864">
        <ele>250</ele>
        <time>2026-03-27T14:26:16.000Z</time>
      </trkpt>
      <trkpt lat="43.77321" lon="3.88851">
        <ele>249</ele>
        <time>2026-03-27T14:26:40.000Z</time>
      </trkpt>
      <trkpt lat="43.7732" lon="3.88837">
        <ele>248</ele>
        <time>2026-03-27T14:26:47.000Z</time>
      </trkpt>
      <trkpt lat="43.77321" lon="3.88825">
        <ele>247</ele>
        <time>2026-03-27T14:26:57.000Z</time>
      </trkpt>
      <trkpt lat="43.77326" lon="3.88813">
        <ele>247</ele>
        <time>2026-03-27T14:27:07.000Z</time>
      </trkpt>
      <trkpt lat="43.77329" lon="3.88805">
        <ele>247</ele>
        <time>2026-03-27T14:27:15.000Z</time>
      </trkpt>
      <trkpt lat="43.77324" lon="3.88812">
        <ele>247</ele>
        <time>2026-03-27T14:27:39.000Z</time>
      </trkpt>
      <trkpt lat="43.77317" lon="3.8882">
        <ele>248</ele>
        <time>2026-03-27T14:27:45.000Z</time>
      </trkpt>
      <trkpt lat="43.77312" lon="3.88831">
        <ele>248</ele>
        <time>2026-03-27T14:27:55.000Z</time>
      </trkpt>
      <trkpt lat="43.77311" lon="3.88844">
        <ele>248</ele>
        <time>2026-03-27T14:28:05.000Z</time>
      </trkpt>
      <trkpt lat="43.77315" lon="3.88856">
        <ele>248</ele>
        <time>2026-03-27T14:28:14.000Z</time>
      </trkpt>
      <trkpt lat="43.77322" lon="3.88865">
        <ele>248</ele>
        <time>2026-03-27T14:28:23.000Z</time>
      </trkpt>
      <trkpt lat="43.77329" lon="3.88873">
        <ele>248</ele>
        <time>2026-03-27T14:28:31.000Z</time>
      </trkpt>
      <trkpt lat="43.77336" lon="3.88882">
        <ele>248</ele>
        <time>2026-03-27T14:28:41.000Z</time>
      </trkpt>
      <trkpt lat="43.77341" lon="3.88893">
        <ele>248</ele>
        <time>2026-03-27T14:28:52.000Z</time>
      </trkpt>
      <trkpt lat="43.77347" lon="3.88903">
        <ele>248</ele>
        <time>2026-03-27T14:29:03.000Z</time>
      </trkpt>
      <trkpt lat="43.77353" lon="3.88913">
        <ele>248</ele>
        <time>2026-03-27T14:29:12.000Z</time>
      </trkpt>
      <trkpt lat="43.7736" lon="3.88925">
        <ele>248</ele>
        <time>2026-03-27T14:29:25.000Z</time>
      </trkpt>
      <trkpt lat="43.77368" lon="3.88934">
        <ele>247</ele>
        <time>2026-03-27T14:29:36.000Z</time>
      </trkpt>
      <trkpt lat="43.77376" lon="3.88936">
        <ele>246</ele>
        <time>2026-03-27T14:32:43.000Z</time>
      </trkpt>
      <trkpt lat="43.77383" lon="3.88929">
        <ele>245</ele>
        <time>2026-03-27T14:33:06.000Z</time>
      </trkpt>
      <trkpt lat="43.77391" lon="3.88922">
        <ele>244</ele>
        <time>2026-03-27T14:33:16.000Z</time>
      </trkpt>
      <trkpt lat="43.77398" lon="3.88916">
        <ele>242</ele>
        <time>2026-03-27T14:33:35.000Z</time>
      </trkpt>
      <trkpt lat="43.77408" lon="3.88914">
        <ele>240</ele>
        <time>2026-03-27T14:33:48.000Z</time>
      </trkpt>
      <trkpt lat="43.77417" lon="3.88914">
        <ele>238</ele>
        <time>2026-03-27T14:34:02.000Z</time>
      </trkpt>
      <trkpt lat="43.77427" lon="3.88914">
        <ele>236</ele>
        <time>2026-03-27T14:34:22.000Z</time>
      </trkpt>
      <trkpt lat="43.77435" lon="3.88911">
        <ele>233</ele>
        <time>2026-03-27T14:34:43.000Z</time>
      </trkpt>
      <trkpt lat="43.77444" lon="3.88908">
        <ele>231</ele>
        <time>2026-03-27T14:34:55.000Z</time>
      </trkpt>
      <trkpt lat="43.77451" lon="3.88901">
        <ele>229</ele>
        <time>2026-03-27T14:35:05.000Z</time>
      </trkpt>
      <trkpt lat="43.77456" lon="3.88889">
        <ele>228</ele>
        <time>2026-03-27T14:35:21.000Z</time>
      </trkpt>
      <trkpt lat="43.77459" lon="3.88878">
        <ele>227</ele>
        <time>2026-03-27T14:35:35.000Z</time>
      </trkpt>
      <trkpt lat="43.77465" lon="3.88867">
        <ele>226</ele>
        <time>2026-03-27T14:35:46.000Z</time>
      </trkpt>
      <trkpt lat="43.77469" lon="3.88856">
        <ele>225</ele>
        <time>2026-03-27T14:35:57.000Z</time>
      </trkpt>
      <trkpt lat="43.77469" lon="3.88843">
        <ele>225</ele>
        <time>2026-03-27T14:36:10.000Z</time>
      </trkpt>
      <trkpt lat="43.77465" lon="3.88832">
        <ele>223</ele>
        <time>2026-03-27T14:36:24.000Z</time>
      </trkpt>
      <trkpt lat="43.77462" lon="3.8882">
        <ele>222</ele>
        <time>2026-03-27T14:36:39.000Z</time>
      </trkpt>
      <trkpt lat="43.77456" lon="3.8881">
        <ele>219</ele>
        <time>2026-03-27T14:36:51.000Z</time>
      </trkpt>
      <trkpt lat="43.77456" lon="3.88798">
        <ele>217</ele>
        <time>2026-03-27T14:37:00.000Z</time>
      </trkpt>
      <trkpt lat="43.77462" lon="3.88787">
        <ele>215</ele>
        <time>2026-03-27T14:37:56.000Z</time>
      </trkpt>
      <trkpt lat="43.7747" lon="3.88779">
        <ele>214</ele>
        <time>2026-03-27T14:38:13.000Z</time>
      </trkpt>
      <trkpt lat="43.77477" lon="3.8877">
        <ele>212</ele>
        <time>2026-03-27T14:38:27.000Z</time>
      </trkpt>
      <trkpt lat="43.77483" lon="3.88761">
        <ele>210</ele>
        <time>2026-03-27T14:38:45.000Z</time>
      </trkpt>
      <trkpt lat="43.77488" lon="3.8875">
        <ele>207</ele>
        <time>2026-03-27T14:38:55.000Z</time>
      </trkpt>
      <trkpt lat="43.77492" lon="3.8874">
        <ele>205</ele>
        <time>2026-03-27T14:39:08.000Z</time>
      </trkpt>
      <trkpt lat="43.77496" lon="3.88731">
        <ele>202</ele>
        <time>2026-03-27T14:41:37.000Z</time>
      </trkpt>
      <trkpt lat="43.77503" lon="3.88735">
        <ele>199</ele>
        <time>2026-03-27T14:42:00.000Z</time>
      </trkpt>
      <trkpt lat="43.77512" lon="3.88739">
        <ele>196</ele>
        <time>2026-03-27T14:42:14.000Z</time>
      </trkpt>
      <trkpt lat="43.77521" lon="3.8874">
        <ele>193</ele>
        <time>2026-03-27T14:42:29.000Z</time>
      </trkpt>
      <trkpt lat="43.7753" lon="3.88737">
        <ele>190</ele>
        <time>2026-03-27T14:42:42.000Z</time>
      </trkpt>
      <trkpt lat="43.77537" lon="3.88744">
        <ele>187</ele>
        <time>2026-03-27T14:42:53.000Z</time>
      </trkpt>
      <trkpt lat="43.77541" lon="3.88755">
        <ele>185</ele>
        <time>2026-03-27T14:43:56.000Z</time>
      </trkpt>
      <trkpt lat="43.77545" lon="3.88766">
        <ele>183</ele>
        <time>2026-03-27T14:44:04.000Z</time>
      </trkpt>
      <trkpt lat="43.7755" lon="3.88778">
        <ele>180</ele>
        <time>2026-03-27T14:44:15.000Z</time>
      </trkpt>
      <trkpt lat="43.77556" lon="3.88789">
        <ele>178</ele>
        <time>2026-03-27T14:44:22.000Z</time>
      </trkpt>
      <trkpt lat="43.77563" lon="3.888">
        <ele>175</ele>
        <time>2026-03-27T14:44:34.000Z</time>
      </trkpt>
      <trkpt lat="43.77566" lon="3.88813">
        <ele>173</ele>
        <time>2026-03-27T14:44:45.000Z</time>
      </trkpt>
      <trkpt lat="43.7757" lon="3.88825">
        <ele>172</ele>
        <time>2026-03-27T14:44:55.000Z</time>
      </trkpt>
      <trkpt lat="43.77575" lon="3.88838">
        <ele>171</ele>
        <time>2026-03-27T14:45:07.000Z</time>
      </trkpt>
      <trkpt lat="43.77581" lon="3.88849">
        <ele>172</ele>
        <time>2026-03-27T14:45:19.000Z</time>
      </trkpt>
      <trkpt lat="43.77589" lon="3.88856">
        <ele>173</ele>
        <time>2026-03-27T14:45:27.000Z</time>
      </trkpt>
      <trkpt lat="43.77596" lon="3.88862">
        <ele>173</ele>
        <time>2026-03-27T14:45:35.000Z</time>
      </trkpt>
      <trkpt lat="43.77595" lon="3.88875">
        <ele>174</ele>
        <time>2026-03-27T14:45:43.000Z</time>
      </trkpt>
      <trkpt lat="43.77596" lon="3.88887">
        <ele>174</ele>
        <time>2026-03-27T14:46:05.000Z</time>
      </trkpt>
      <trkpt lat="43.77594" lon="3.889">
        <ele>174</ele>
        <time>2026-03-27T14:46:13.000Z</time>
      </trkpt>
      <trkpt lat="43.7759" lon="3.88912">
        <ele>174</ele>
        <time>2026-03-27T14:46:41.000Z</time>
      </trkpt>
      <trkpt lat="43.77588" lon="3.88924">
        <ele>175</ele>
        <time>2026-03-27T14:46:46.000Z</time>
      </trkpt>
      <trkpt lat="43.77587" lon="3.88939">
        <ele>175</ele>
        <time>2026-03-27T14:46:55.000Z</time>
      </trkpt>
      <trkpt lat="43.77585" lon="3.88952">
        <ele>175</ele>
        <time>2026-03-27T14:47:01.000Z</time>
      </trkpt>
      <trkpt lat="43.77583" lon="3.88965">
        <ele>175</ele>
        <time>2026-03-27T14:47:11.000Z</time>
      </trkpt>
      <trkpt lat="43.7758" lon="3.88977">
        <ele>175</ele>
        <time>2026-03-27T14:47:18.000Z</time>
      </trkpt>
      <trkpt lat="43.77577" lon="3.8899">
        <ele>177</ele>
        <time>2026-03-27T14:47:26.000Z</time>
      </trkpt>
      <trkpt lat="43.77576" lon="3.89003">
        <ele>178</ele>
        <time>2026-03-27T14:47:35.000Z</time>
      </trkpt>
      <trkpt lat="43.77577" lon="3.89017">
        <ele>180</ele>
        <time>2026-03-27T14:47:42.000Z</time>
      </trkpt>
      <trkpt lat="43.77578" lon="3.8903">
        <ele>181</ele>
        <time>2026-03-27T14:47:51.000Z</time>
      </trkpt>
      <trkpt lat="43.77579" lon="3.89042">
        <ele>181</ele>
        <time>2026-03-27T14:48:00.000Z</time>
      </trkpt>
      <trkpt lat="43.77577" lon="3.89055">
        <ele>180</ele>
        <time>2026-03-27T14:48:08.000Z</time>
      </trkpt>
      <trkpt lat="43.77575" lon="3.89068">
        <ele>179</ele>
        <time>2026-03-27T14:48:17.000Z</time>
      </trkpt>
      <trkpt lat="43.77572" lon="3.89081">
        <ele>178</ele>
        <time>2026-03-27T14:48:24.000Z</time>
      </trkpt>
      <trkpt lat="43.7757" lon="3.89095">
        <ele>176</ele>
        <time>2026-03-27T14:48:33.000Z</time>
      </trkpt>
      <trkpt lat="43.77567" lon="3.8911">
        <ele>175</ele>
        <time>2026-03-27T14:48:41.000Z</time>
      </trkpt>
      <trkpt lat="43.77567" lon="3.89122">
        <ele>174</ele>
        <time>2026-03-27T14:48:49.000Z</time>
      </trkpt>
      <trkpt lat="43.77564" lon="3.89136">
        <ele>173</ele>
        <time>2026-03-27T14:48:57.000Z</time>
      </trkpt>
      <trkpt lat="43.77565" lon="3.8915">
        <ele>173</ele>
        <time>2026-03-27T14:49:07.000Z</time>
      </trkpt>
      <trkpt lat="43.77562" lon="3.89164">
        <ele>172</ele>
        <time>2026-03-27T14:49:14.000Z</time>
      </trkpt>
      <trkpt lat="43.77561" lon="3.89177">
        <ele>172</ele>
        <time>2026-03-27T14:49:22.000Z</time>
      </trkpt>
      <trkpt lat="43.77561" lon="3.89191">
        <ele>172</ele>
        <time>2026-03-27T14:49:31.000Z</time>
      </trkpt>
      <trkpt lat="43.77559" lon="3.89202">
        <ele>172</ele>
        <time>2026-03-27T14:49:38.000Z</time>
      </trkpt>
      <trkpt lat="43.77561" lon="3.89214">
        <ele>173</ele>
        <time>2026-03-27T14:49:44.000Z</time>
      </trkpt>
      <trkpt lat="43.7756" lon="3.89226">
        <ele>174</ele>
        <time>2026-03-27T14:49:53.000Z</time>
      </trkpt>
      <trkpt lat="43.77559" lon="3.89237">
        <ele>174</ele>
        <time>2026-03-27T14:50:00.000Z</time>
      </trkpt>
      <trkpt lat="43.77557" lon="3.89249">
        <ele>175</ele>
        <time>2026-03-27T14:50:09.000Z</time>
      </trkpt>
      <trkpt lat="43.77555" lon="3.89263">
        <ele>175</ele>
        <time>2026-03-27T14:50:16.000Z</time>
      </trkpt>
      <trkpt lat="43.77552" lon="3.89275">
        <ele>175</ele>
        <time>2026-03-27T14:50:24.000Z</time>
      </trkpt>
      <trkpt lat="43.77551" lon="3.8929">
        <ele>175</ele>
        <time>2026-03-27T14:50:35.000Z</time>
      </trkpt>
      <trkpt lat="43.7755" lon="3.89304">
        <ele>174</ele>
        <time>2026-03-27T14:50:42.000Z</time>
      </trkpt>
      <trkpt lat="43.77549" lon="3.89316">
        <ele>174</ele>
        <time>2026-03-27T14:50:50.000Z</time>
      </trkpt>
      <trkpt lat="43.77547" lon="3.89329">
        <ele>173</ele>
        <time>2026-03-27T14:50:59.000Z</time>
      </trkpt>
      <trkpt lat="43.77546" lon="3.89343">
        <ele>173</ele>
        <time>2026-03-27T14:51:09.000Z</time>
      </trkpt>
      <trkpt lat="43.77545" lon="3.89357">
        <ele>173</ele>
        <time>2026-03-27T14:51:16.000Z</time>
      </trkpt>
      <trkpt lat="43.77542" lon="3.89369">
        <ele>172</ele>
        <time>2026-03-27T14:51:25.000Z</time>
      </trkpt>
      <trkpt lat="43.77542" lon="3.89382">
        <ele>172</ele>
        <time>2026-03-27T14:51:33.000Z</time>
      </trkpt>
      <trkpt lat="43.77541" lon="3.89394">
        <ele>172</ele>
        <time>2026-03-27T14:51:40.000Z</time>
      </trkpt>
      <trkpt lat="43.7754" lon="3.89407">
        <ele>172</ele>
        <time>2026-03-27T14:51:50.000Z</time>
      </trkpt>
      <trkpt lat="43.7754" lon="3.8942">
        <ele>172</ele>
        <time>2026-03-27T14:51:59.000Z</time>
      </trkpt>
      <trkpt lat="43.77539" lon="3.89433">
        <ele>172</ele>
        <time>2026-03-27T14:52:09.000Z</time>
      </trkpt>
      <trkpt lat="43.77536" lon="3.89445">
        <ele>172</ele>
        <time>2026-03-27T14:52:17.000Z</time>
      </trkpt>
      <trkpt lat="43.77535" lon="3.89458">
        <ele>172</ele>
        <time>2026-03-27T14:52:27.000Z</time>
      </trkpt>
      <trkpt lat="43.77534" lon="3.89472">
        <ele>172</ele>
        <time>2026-03-27T14:52:37.000Z</time>
      </trkpt>
      <trkpt lat="43.77533" lon="3.89486">
        <ele>172</ele>
        <time>2026-03-27T14:52:47.000Z</time>
      </trkpt>
      <trkpt lat="43.77531" lon="3.895">
        <ele>172</ele>
        <time>2026-03-27T14:52:56.000Z</time>
      </trkpt>
      <trkpt lat="43.77529" lon="3.89514">
        <ele>172</ele>
        <time>2026-03-27T14:53:06.000Z</time>
      </trkpt>
      <trkpt lat="43.77526" lon="3.89528">
        <ele>172</ele>
        <time>2026-03-27T14:53:16.000Z</time>
      </trkpt>
      <trkpt lat="43.77524" lon="3.8954">
        <ele>172</ele>
        <time>2026-03-27T14:53:25.000Z</time>
      </trkpt>
      <trkpt lat="43.77522" lon="3.89554">
        <ele>172</ele>
        <time>2026-03-27T14:53:34.000Z</time>
      </trkpt>
      <trkpt lat="43.7752" lon="3.89569">
        <ele>172</ele>
        <time>2026-03-27T14:53:45.000Z</time>
      </trkpt>
      <trkpt lat="43.77518" lon="3.89583">
        <ele>172</ele>
        <time>2026-03-27T14:53:55.000Z</time>
      </trkpt>
      <trkpt lat="43.77516" lon="3.89597">
        <ele>173</ele>
        <time>2026-03-27T14:54:05.000Z</time>
      </trkpt>
      <trkpt lat="43.77517" lon="3.89611">
        <ele>173</ele>
        <time>2026-03-27T14:54:14.000Z</time>
      </trkpt>
      <trkpt lat="43.77518" lon="3.89624">
        <ele>172</ele>
        <time>2026-03-27T14:54:25.000Z</time>
      </trkpt>
      <trkpt lat="43.77515" lon="3.89635">
        <ele>171</ele>
        <time>2026-03-27T14:54:33.000Z</time>
      </trkpt>
      <trkpt lat="43.77511" lon="3.89646">
        <ele>170</ele>
        <time>2026-03-27T14:54:40.000Z</time>
      </trkpt>
      <trkpt lat="43.77507" lon="3.89658">
        <ele>170</ele>
        <time>2026-03-27T14:54:49.000Z</time>
      </trkpt>
      <trkpt lat="43.77502" lon="3.89668">
        <ele>169</ele>
        <time>2026-03-27T14:54:57.000Z</time>
      </trkpt>
      <trkpt lat="43.77497" lon="3.89677">
        <ele>169</ele>
        <time>2026-03-27T14:55:09.000Z</time>
      </trkpt>
      <trkpt lat="43.7749" lon="3.89685">
        <ele>170</ele>
        <time>2026-03-27T14:55:21.000Z</time>
      </trkpt>
      <trkpt lat="43.77483" lon="3.89689">
        <ele>170</ele>
        <time>2026-03-27T14:55:26.000Z</time>
      </trkpt>
      <trkpt lat="43.77478" lon="3.89699">
        <ele>170</ele>
        <time>2026-03-27T14:55:47.000Z</time>
      </trkpt>
      <trkpt lat="43.7747" lon="3.89706">
        <ele>171</ele>
        <time>2026-03-27T14:55:55.000Z</time>
      </trkpt>
      <trkpt lat="43.77461" lon="3.89713">
        <ele>171</ele>
        <time>2026-03-27T14:56:02.000Z</time>
      </trkpt>
      <trkpt lat="43.77451" lon="3.89719">
        <ele>172</ele>
        <time>2026-03-27T14:56:11.000Z</time>
      </trkpt>
      <trkpt lat="43.7744" lon="3.89724">
        <ele>172</ele>
        <time>2026-03-27T14:56:17.000Z</time>
      </trkpt>
      <trkpt lat="43.7743" lon="3.89728">
        <ele>172</ele>
        <time>2026-03-27T14:56:24.000Z</time>
      </trkpt>
      <trkpt lat="43.77421" lon="3.89736">
        <ele>172</ele>
        <time>2026-03-27T14:56:34.000Z</time>
      </trkpt>
      <trkpt lat="43.77415" lon="3.89748">
        <ele>171</ele>
        <time>2026-03-27T14:56:43.000Z</time>
      </trkpt>
      <trkpt lat="43.77411" lon="3.89763">
        <ele>171</ele>
        <time>2026-03-27T14:56:51.000Z</time>
      </trkpt>
      <trkpt lat="43.7741" lon="3.89775">
        <ele>171</ele>
        <time>2026-03-27T14:56:58.000Z</time>
      </trkpt>
      <trkpt lat="43.77412" lon="3.89787">
        <ele>171</ele>
        <time>2026-03-27T14:57:09.000Z</time>
      </trkpt>
      <trkpt lat="43.77414" lon="3.89801">
        <ele>171</ele>
        <time>2026-03-27T14:57:17.000Z</time>
      </trkpt>
      <trkpt lat="43.77412" lon="3.89814">
        <ele>172</ele>
        <time>2026-03-27T14:57:25.000Z</time>
      </trkpt>
      <trkpt lat="43.77415" lon="3.89825">
        <ele>172</ele>
        <time>2026-03-27T14:57:34.000Z</time>
      </trkpt>
      <trkpt lat="43.77417" lon="3.89839">
        <ele>172</ele>
        <time>2026-03-27T14:57:42.000Z</time>
      </trkpt>
      <trkpt lat="43.77421" lon="3.8985">
        <ele>171</ele>
        <time>2026-03-27T14:57:53.000Z</time>
      </trkpt>
      <trkpt lat="43.7742" lon="3.89863">
        <ele>170</ele>
        <time>2026-03-27T14:58:02.000Z</time>
      </trkpt>
      <trkpt lat="43.77417" lon="3.89875">
        <ele>169</ele>
        <time>2026-03-27T14:58:10.000Z</time>
      </trkpt>
      <trkpt lat="43.77416" lon="3.89889">
        <ele>169</ele>
        <time>2026-03-27T14:58:17.000Z</time>
      </trkpt>
      <trkpt lat="43.77412" lon="3.89899">
        <ele>168</ele>
        <time>2026-03-27T14:58:27.000Z</time>
      </trkpt>
      <trkpt lat="43.7741" lon="3.89913">
        <ele>168</ele>
        <time>2026-03-27T14:58:36.000Z</time>
      </trkpt>
      <trkpt lat="43.77407" lon="3.89925">
        <ele>168</ele>
        <time>2026-03-27T14:58:45.000Z</time>
      </trkpt>
      <trkpt lat="43.77405" lon="3.89939">
        <ele>168</ele>
        <time>2026-03-27T14:58:53.000Z</time>
      </trkpt>
      <trkpt lat="43.77406" lon="3.89951">
        <ele>168</ele>
        <time>2026-03-27T14:58:58.000Z</time>
      </trkpt>
      <trkpt lat="43.77404" lon="3.89963">
        <ele>168</ele>
        <time>2026-03-27T14:59:06.000Z</time>
      </trkpt>
      <trkpt lat="43.77401" lon="3.89976">
        <ele>168</ele>
        <time>2026-03-27T14:59:14.000Z</time>
      </trkpt>
      <trkpt lat="43.77399" lon="3.8999">
        <ele>168</ele>
        <time>2026-03-27T14:59:25.000Z</time>
      </trkpt>
      <trkpt lat="43.77394" lon="3.90004">
        <ele>168</ele>
        <time>2026-03-27T14:59:34.000Z</time>
      </trkpt>
      <trkpt lat="43.7739" lon="3.90015">
        <ele>168</ele>
        <time>2026-03-27T14:59:43.000Z</time>
      </trkpt>
      <trkpt lat="43.77383" lon="3.90025">
        <ele>168</ele>
        <time>2026-03-27T14:59:51.000Z</time>
      </trkpt>
      <trkpt lat="43.77379" lon="3.90036">
        <ele>168</ele>
        <time>2026-03-27T14:59:59.000Z</time>
      </trkpt>
      <trkpt lat="43.77374" lon="3.90047">
        <ele>168</ele>
        <time>2026-03-27T15:00:06.000Z</time>
      </trkpt>
      <trkpt lat="43.77369" lon="3.9006">
        <ele>168</ele>
        <time>2026-03-27T15:00:14.000Z</time>
      </trkpt>
      <trkpt lat="43.77366" lon="3.90074">
        <ele>168</ele>
        <time>2026-03-27T15:00:25.000Z</time>
      </trkpt>
      <trkpt lat="43.77362" lon="3.90087">
        <ele>168</ele>
        <time>2026-03-27T15:00:35.000Z</time>
      </trkpt>
      <trkpt lat="43.77358" lon="3.901">
        <ele>168</ele>
        <time>2026-03-27T15:00:42.000Z</time>
      </trkpt>
      <trkpt lat="43.77356" lon="3.90113">
        <ele>168</ele>
        <time>2026-03-27T15:00:50.000Z</time>
      </trkpt>
      <trkpt lat="43.77354" lon="3.90127">
        <ele>168</ele>
        <time>2026-03-27T15:00:58.000Z</time>
      </trkpt>
      <trkpt lat="43.77351" lon="3.90139">
        <ele>168</ele>
        <time>2026-03-27T15:01:07.000Z</time>
      </trkpt>
      <trkpt lat="43.77347" lon="3.90151">
        <ele>168</ele>
        <time>2026-03-27T15:01:15.000Z</time>
      </trkpt>
      <trkpt lat="43.77344" lon="3.90164">
        <ele>168</ele>
        <time>2026-03-27T15:01:23.000Z</time>
      </trkpt>
      <trkpt lat="43.77341" lon="3.90177">
        <ele>168</ele>
        <time>2026-03-27T15:01:30.000Z</time>
      </trkpt>
      <trkpt lat="43.77342" lon="3.90191">
        <ele>168</ele>
        <time>2026-03-27T15:01:41.000Z</time>
      </trkpt>
      <trkpt lat="43.77339" lon="3.90205">
        <ele>168</ele>
        <time>2026-03-27T15:01:49.000Z</time>
      </trkpt>
      <trkpt lat="43.77337" lon="3.90218">
        <ele>168</ele>
        <time>2026-03-27T15:01:54.000Z</time>
      </trkpt>
      <trkpt lat="43.77334" lon="3.9023">
        <ele>168</ele>
        <time>2026-03-27T15:02:04.000Z</time>
      </trkpt>
      <trkpt lat="43.77333" lon="3.90243">
        <ele>168</ele>
        <time>2026-03-27T15:02:11.000Z</time>
      </trkpt>
      <trkpt lat="43.7733" lon="3.90255">
        <ele>167</ele>
        <time>2026-03-27T15:02:18.000Z</time>
      </trkpt>
      <trkpt lat="43.77329" lon="3.90268">
        <ele>167</ele>
        <time>2026-03-27T15:02:29.000Z</time>
      </trkpt>
      <trkpt lat="43.77329" lon="3.9028">
        <ele>167</ele>
        <time>2026-03-27T15:02:39.000Z</time>
      </trkpt>
      <trkpt lat="43.77327" lon="3.90292">
        <ele>167</ele>
        <time>2026-03-27T15:02:44.000Z</time>
      </trkpt>
      <trkpt lat="43.77326" lon="3.90304">
        <ele>167</ele>
        <time>2026-03-27T15:02:53.000Z</time>
      </trkpt>
      <trkpt lat="43.77327" lon="3.90318">
        <ele>167</ele>
        <time>2026-03-27T15:03:02.000Z</time>
      </trkpt>
      <trkpt lat="43.77328" lon="3.90331">
        <ele>167</ele>
        <time>2026-03-27T15:03:12.000Z</time>
      </trkpt>
      <trkpt lat="43.77329" lon="3.90344">
        <ele>167</ele>
        <time>2026-03-27T15:03:20.000Z</time>
      </trkpt>
      <trkpt lat="43.77332" lon="3.90357">
        <ele>167</ele>
        <time>2026-03-27T15:03:30.000Z</time>
      </trkpt>
      <trkpt lat="43.77332" lon="3.9037">
        <ele>167</ele>
        <time>2026-03-27T15:03:38.000Z</time>
      </trkpt>
      <trkpt lat="43.77334" lon="3.90383">
        <ele>167</ele>
        <time>2026-03-27T15:03:49.000Z</time>
      </trkpt>
      <trkpt lat="43.77337" lon="3.90397">
        <ele>167</ele>
        <time>2026-03-27T15:03:57.000Z</time>
      </trkpt>
      <trkpt lat="43.77338" lon="3.9041">
        <ele>167</ele>
        <time>2026-03-27T15:04:04.000Z</time>
      </trkpt>
      <trkpt lat="43.77338" lon="3.90424">
        <ele>167</ele>
        <time>2026-03-27T15:04:14.000Z</time>
      </trkpt>
      <trkpt lat="43.77341" lon="3.90436">
        <ele>167</ele>
        <time>2026-03-27T15:04:24.000Z</time>
      </trkpt>
      <trkpt lat="43.77345" lon="3.90448">
        <ele>167</ele>
        <time>2026-03-27T15:04:33.000Z</time>
      </trkpt>
      <trkpt lat="43.77347" lon="3.9046">
        <ele>167</ele>
        <time>2026-03-27T15:04:38.000Z</time>
      </trkpt>
      <trkpt lat="43.77348" lon="3.90474">
        <ele>167</ele>
        <time>2026-03-27T15:04:48.000Z</time>
      </trkpt>
      <trkpt lat="43.77349" lon="3.90487">
        <ele>167</ele>
        <time>2026-03-27T15:04:57.000Z</time>
      </trkpt>
      <trkpt lat="43.77352" lon="3.90499">
        <ele>167</ele>
        <time>2026-03-27T15:05:04.000Z</time>
      </trkpt>
      <trkpt lat="43.77355" lon="3.9051">
        <ele>167</ele>
        <time>2026-03-27T15:05:13.000Z</time>
      </trkpt>
      <trkpt lat="43.77357" lon="3.90524">
        <ele>167</ele>
        <time>2026-03-27T15:05:22.000Z</time>
      </trkpt>
      <trkpt lat="43.77358" lon="3.90536">
        <ele>166</ele>
        <time>2026-03-27T15:05:30.000Z</time>
      </trkpt>
      <trkpt lat="43.77359" lon="3.90548">
        <ele>166</ele>
        <time>2026-03-27T15:05:39.000Z</time>
      </trkpt>
      <trkpt lat="43.77359" lon="3.90561">
        <ele>166</ele>
        <time>2026-03-27T15:05:47.000Z</time>
      </trkpt>
      <trkpt lat="43.77357" lon="3.90575">
        <ele>165</ele>
        <time>2026-03-27T15:05:55.000Z</time>
      </trkpt>
      <trkpt lat="43.77357" lon="3.90588">
        <ele>165</ele>
        <time>2026-03-27T15:06:03.000Z</time>
      </trkpt>
      <trkpt lat="43.77357" lon="3.90601">
        <ele>165</ele>
        <time>2026-03-27T15:06:10.000Z</time>
      </trkpt>
      <trkpt lat="43.77358" lon="3.90615">
        <ele>165</ele>
        <time>2026-03-27T15:06:21.000Z</time>
      </trkpt>
      <trkpt lat="43.7736" lon="3.9063">
        <ele>165</ele>
        <time>2026-03-27T15:06:28.000Z</time>
      </trkpt>
      <trkpt lat="43.77361" lon="3.90643">
        <ele>165</ele>
        <time>2026-03-27T15:06:37.000Z</time>
      </trkpt>
      <trkpt lat="43.77362" lon="3.90658">
        <ele>164</ele>
        <time>2026-03-27T15:06:45.000Z</time>
      </trkpt>
      <trkpt lat="43.77362" lon="3.90672">
        <ele>164</ele>
        <time>2026-03-27T15:06:54.000Z</time>
      </trkpt>
      <trkpt lat="43.77362" lon="3.90688">
        <ele>164</ele>
        <time>2026-03-27T15:07:09.000Z</time>
      </trkpt>
      <trkpt lat="43.77362" lon="3.90702">
        <ele>163</ele>
        <time>2026-03-27T15:07:17.000Z</time>
      </trkpt>
      <trkpt lat="43.77363" lon="3.90716">
        <ele>162</ele>
        <time>2026-03-27T15:07:26.000Z</time>
      </trkpt>
      <trkpt lat="43.77365" lon="3.90728">
        <ele>162</ele>
        <time>2026-03-27T15:08:25.000Z</time>
      </trkpt>
      <trkpt lat="43.7737" lon="3.9074">
        <ele>162</ele>
        <time>2026-03-27T15:08:33.000Z</time>
      </trkpt>
      <trkpt lat="43.77378" lon="3.90746">
        <ele>162</ele>
        <time>2026-03-27T15:08:43.000Z</time>
      </trkpt>
    </trkseg>
  </trk>
</gpx>